<?xml version="1.0" encoding="UTF-8" standalone="no" ?>
<gpx xmlns="http://www.topografix.com/GPX/1/1" xmlns:xsi="http://www.w3.org/2001/XMLSchema-instance" xsi:schemaLocation="http://www.topografix.com/GPX/1/1 http://www.topografix.com/GPX/1/1/gpx.xsd" version="1.1" creator="VisuGPX - https://www.visugpx.com">
  <metadata>
    <name>MTG 2</name>
  </metadata>
  <trk>
    <name><![CDATA[Ski rando le matin MTG]]></name>
    <trkseg>
      <trkpt lat="44.93009" lon="6.72211">
        <ele>1845.4</ele>
        <time>2025-01-25T09:25:19Z</time>
      </trkpt>
      <trkpt lat="44.9301" lon="6.72214">
        <ele>1845.4</ele>
        <time>2025-01-25T09:25:23Z</time>
      </trkpt>
      <trkpt lat="44.9301" lon="6.72217">
        <ele>1845.5</ele>
        <time>2025-01-25T09:25:32Z</time>
      </trkpt>
      <trkpt lat="44.93009" lon="6.72219">
        <ele>1845.5</ele>
        <time>2025-01-25T09:25:37Z</time>
      </trkpt>
      <trkpt lat="44.93009" lon="6.72222">
        <ele>1845.6</ele>
        <time>2025-01-25T09:25:42Z</time>
      </trkpt>
      <trkpt lat="44.93009" lon="6.72225">
        <ele>1845.6</ele>
        <time>2025-01-25T09:25:48Z</time>
      </trkpt>
      <trkpt lat="44.93008" lon="6.72228">
        <ele>1845.7</ele>
        <time>2025-01-25T09:25:53Z</time>
      </trkpt>
      <trkpt lat="44.93008" lon="6.72231">
        <ele>1845.7</ele>
        <time>2025-01-25T09:25:58Z</time>
      </trkpt>
      <trkpt lat="44.93007" lon="6.72234">
        <ele>1845.8</ele>
        <time>2025-01-25T09:26:03Z</time>
      </trkpt>
      <trkpt lat="44.93007" lon="6.72237">
        <ele>1845.8</ele>
        <time>2025-01-25T09:26:07Z</time>
      </trkpt>
      <trkpt lat="44.93007" lon="6.7224">
        <ele>1845.9</ele>
        <time>2025-01-25T09:26:13Z</time>
      </trkpt>
      <trkpt lat="44.93006" lon="6.72243">
        <ele>1845.9</ele>
        <time>2025-01-25T09:26:19Z</time>
      </trkpt>
      <trkpt lat="44.93006" lon="6.72246">
        <ele>1845.9</ele>
        <time>2025-01-25T09:26:25Z</time>
      </trkpt>
      <trkpt lat="44.93006" lon="6.72249">
        <ele>1846</ele>
        <time>2025-01-25T09:26:26Z</time>
      </trkpt>
      <trkpt lat="44.93005" lon="6.72252">
        <ele>1846</ele>
        <time>2025-01-25T09:26:33Z</time>
      </trkpt>
      <trkpt lat="44.93005" lon="6.72254">
        <ele>1846.1</ele>
        <time>2025-01-25T09:26:36Z</time>
      </trkpt>
      <trkpt lat="44.93005" lon="6.72257">
        <ele>1846.1</ele>
        <time>2025-01-25T09:26:39Z</time>
      </trkpt>
      <trkpt lat="44.93004" lon="6.7226">
        <ele>1846.2</ele>
        <time>2025-01-25T09:26:46Z</time>
      </trkpt>
      <trkpt lat="44.93004" lon="6.72263">
        <ele>1846.3</ele>
        <time>2025-01-25T09:26:52Z</time>
      </trkpt>
      <trkpt lat="44.93004" lon="6.72266">
        <ele>1846.3</ele>
        <time>2025-01-25T09:26:59Z</time>
      </trkpt>
      <trkpt lat="44.93003" lon="6.72269">
        <ele>1846.4</ele>
        <time>2025-01-25T09:27:05Z</time>
      </trkpt>
      <trkpt lat="44.93003" lon="6.72272">
        <ele>1846.4</ele>
        <time>2025-01-25T09:27:10Z</time>
      </trkpt>
      <trkpt lat="44.93002" lon="6.72275">
        <ele>1846.5</ele>
        <time>2025-01-25T09:27:12Z</time>
      </trkpt>
      <trkpt lat="44.93002" lon="6.72278">
        <ele>1846.6</ele>
        <time>2025-01-25T09:27:15Z</time>
      </trkpt>
      <trkpt lat="44.93002" lon="6.72281">
        <ele>1846.7</ele>
        <time>2025-01-25T09:27:22Z</time>
      </trkpt>
      <trkpt lat="44.93001" lon="6.72284">
        <ele>1846.8</ele>
        <time>2025-01-25T09:27:26Z</time>
      </trkpt>
      <trkpt lat="44.93001" lon="6.72287">
        <ele>1846.8</ele>
        <time>2025-01-25T09:27:27Z</time>
      </trkpt>
      <trkpt lat="44.93001" lon="6.72289">
        <ele>1846.9</ele>
        <time>2025-01-25T09:27:28Z</time>
      </trkpt>
      <trkpt lat="44.92989" lon="6.72298">
        <ele>1846.1</ele>
        <time>2025-01-25T09:27:31Z</time>
      </trkpt>
      <trkpt lat="44.92983" lon="6.72301">
        <ele>1846</ele>
        <time>2025-01-25T09:27:36Z</time>
      </trkpt>
      <trkpt lat="44.92978" lon="6.72304">
        <ele>1846.1</ele>
        <time>2025-01-25T09:27:43Z</time>
      </trkpt>
      <trkpt lat="44.92976" lon="6.72307">
        <ele>1846.1</ele>
        <time>2025-01-25T09:27:47Z</time>
      </trkpt>
      <trkpt lat="44.92973" lon="6.72309">
        <ele>1846.4</ele>
        <time>2025-01-25T09:27:52Z</time>
      </trkpt>
      <trkpt lat="44.92968" lon="6.72312">
        <ele>1846.8</ele>
        <time>2025-01-25T09:27:56Z</time>
      </trkpt>
      <trkpt lat="44.92967" lon="6.72312">
        <ele>1846.9</ele>
        <time>2025-01-25T09:27:57Z</time>
      </trkpt>
      <trkpt lat="44.92963" lon="6.72314">
        <ele>1847.2</ele>
        <time>2025-01-25T09:28:00Z</time>
      </trkpt>
      <trkpt lat="44.92962" lon="6.72317">
        <ele>1847.6</ele>
        <time>2025-01-25T09:28:02Z</time>
      </trkpt>
      <trkpt lat="44.9296" lon="6.72318">
        <ele>1847.6</ele>
        <time>2025-01-25T09:28:05Z</time>
      </trkpt>
      <trkpt lat="44.92959" lon="6.72318">
        <ele>1847.8</ele>
        <time>2025-01-25T09:28:06Z</time>
      </trkpt>
      <trkpt lat="44.92956" lon="6.7232">
        <ele>1848.1</ele>
        <time>2025-01-25T09:28:11Z</time>
      </trkpt>
      <trkpt lat="44.92951" lon="6.72321">
        <ele>1848.6</ele>
        <time>2025-01-25T09:28:15Z</time>
      </trkpt>
      <trkpt lat="44.9295" lon="6.72322">
        <ele>1848.8</ele>
        <time>2025-01-25T09:28:17Z</time>
      </trkpt>
      <trkpt lat="44.92948" lon="6.7232">
        <ele>1848.6</ele>
        <time>2025-01-25T09:28:19Z</time>
      </trkpt>
      <trkpt lat="44.92947" lon="6.7232">
        <ele>1849.1</ele>
        <time>2025-01-25T09:28:20Z</time>
      </trkpt>
      <trkpt lat="44.92945" lon="6.72322">
        <ele>1849.1</ele>
        <time>2025-01-25T09:28:23Z</time>
      </trkpt>
      <trkpt lat="44.92944" lon="6.72323">
        <ele>1849.1</ele>
        <time>2025-01-25T09:28:25Z</time>
      </trkpt>
      <trkpt lat="44.92944" lon="6.72326">
        <ele>1849.7</ele>
        <time>2025-01-25T09:28:27Z</time>
      </trkpt>
      <trkpt lat="44.92943" lon="6.72326">
        <ele>1849.7</ele>
        <time>2025-01-25T09:28:30Z</time>
      </trkpt>
      <trkpt lat="44.92942" lon="6.72325">
        <ele>1849.7</ele>
        <time>2025-01-25T09:28:32Z</time>
      </trkpt>
      <trkpt lat="44.9294" lon="6.72325">
        <ele>1850.1</ele>
        <time>2025-01-25T09:28:34Z</time>
      </trkpt>
      <trkpt lat="44.92939" lon="6.72324">
        <ele>1849.7</ele>
        <time>2025-01-25T09:28:36Z</time>
      </trkpt>
      <trkpt lat="44.92937" lon="6.72322">
        <ele>1850</ele>
        <time>2025-01-25T09:28:39Z</time>
      </trkpt>
      <trkpt lat="44.92936" lon="6.72325">
        <ele>1850.4</ele>
        <time>2025-01-25T09:28:43Z</time>
      </trkpt>
      <trkpt lat="44.92934" lon="6.72325">
        <ele>1850.6</ele>
        <time>2025-01-25T09:28:46Z</time>
      </trkpt>
      <trkpt lat="44.92933" lon="6.72325">
        <ele>1850.6</ele>
        <time>2025-01-25T09:28:47Z</time>
      </trkpt>
      <trkpt lat="44.92934" lon="6.72328">
        <ele>1850.6</ele>
        <time>2025-01-25T09:28:49Z</time>
      </trkpt>
      <trkpt lat="44.92933" lon="6.72333">
        <ele>1851.4</ele>
        <time>2025-01-25T09:28:54Z</time>
      </trkpt>
      <trkpt lat="44.92931" lon="6.72335">
        <ele>1851.7</ele>
        <time>2025-01-25T09:28:58Z</time>
      </trkpt>
      <trkpt lat="44.92928" lon="6.72339">
        <ele>1852.3</ele>
        <time>2025-01-25T09:29:03Z</time>
      </trkpt>
      <trkpt lat="44.92927" lon="6.72338">
        <ele>1852</ele>
        <time>2025-01-25T09:29:07Z</time>
      </trkpt>
      <trkpt lat="44.92923" lon="6.72339">
        <ele>1852.7</ele>
        <time>2025-01-25T09:29:12Z</time>
      </trkpt>
      <trkpt lat="44.92921" lon="6.72339">
        <ele>1853.1</ele>
        <time>2025-01-25T09:29:14Z</time>
      </trkpt>
      <trkpt lat="44.9292" lon="6.72339">
        <ele>1853.1</ele>
        <time>2025-01-25T09:29:16Z</time>
      </trkpt>
      <trkpt lat="44.92918" lon="6.72339">
        <ele>1853.6</ele>
        <time>2025-01-25T09:29:19Z</time>
      </trkpt>
      <trkpt lat="44.92918" lon="6.72339">
        <ele>1853.6</ele>
        <time>2025-01-25T09:29:23Z</time>
      </trkpt>
      <trkpt lat="44.92917" lon="6.72339">
        <ele>1853.6</ele>
        <time>2025-01-25T09:29:28Z</time>
      </trkpt>
      <trkpt lat="44.92917" lon="6.72339">
        <ele>1853.6</ele>
        <time>2025-01-25T09:29:36Z</time>
      </trkpt>
      <trkpt lat="44.92917" lon="6.72339">
        <ele>1853.6</ele>
        <time>2025-01-25T09:29:44Z</time>
      </trkpt>
      <trkpt lat="44.92917" lon="6.7234">
        <ele>1853.6</ele>
        <time>2025-01-25T09:29:49Z</time>
      </trkpt>
      <trkpt lat="44.92917" lon="6.7234">
        <ele>1853.6</ele>
        <time>2025-01-25T09:29:53Z</time>
      </trkpt>
      <trkpt lat="44.92917" lon="6.7234">
        <ele>1854</ele>
        <time>2025-01-25T09:29:58Z</time>
      </trkpt>
      <trkpt lat="44.92916" lon="6.7234">
        <ele>1854</ele>
        <time>2025-01-25T09:30:05Z</time>
      </trkpt>
      <trkpt lat="44.92916" lon="6.7234">
        <ele>1854</ele>
        <time>2025-01-25T09:30:11Z</time>
      </trkpt>
      <trkpt lat="44.92916" lon="6.7234">
        <ele>1854</ele>
        <time>2025-01-25T09:30:18Z</time>
      </trkpt>
      <trkpt lat="44.92916" lon="6.72339">
        <ele>1854</ele>
        <time>2025-01-25T09:30:26Z</time>
      </trkpt>
      <trkpt lat="44.92915" lon="6.72339">
        <ele>1854</ele>
        <time>2025-01-25T09:30:34Z</time>
      </trkpt>
      <trkpt lat="44.92911" lon="6.72337">
        <ele>1854</ele>
        <time>2025-01-25T09:30:40Z</time>
      </trkpt>
      <trkpt lat="44.9291" lon="6.72337">
        <ele>1854.5</ele>
        <time>2025-01-25T09:30:42Z</time>
      </trkpt>
      <trkpt lat="44.92909" lon="6.72336">
        <ele>1854.5</ele>
        <time>2025-01-25T09:30:45Z</time>
      </trkpt>
      <trkpt lat="44.92903" lon="6.72336">
        <ele>1855.4</ele>
        <time>2025-01-25T09:30:50Z</time>
      </trkpt>
      <trkpt lat="44.92901" lon="6.72337">
        <ele>1855.9</ele>
        <time>2025-01-25T09:30:52Z</time>
      </trkpt>
      <trkpt lat="44.92901" lon="6.72336">
        <ele>1855.9</ele>
        <time>2025-01-25T09:30:54Z</time>
      </trkpt>
      <trkpt lat="44.92899" lon="6.72336">
        <ele>1856.4</ele>
        <time>2025-01-25T09:30:57Z</time>
      </trkpt>
      <trkpt lat="44.92898" lon="6.72336">
        <ele>1856.4</ele>
        <time>2025-01-25T09:30:58Z</time>
      </trkpt>
      <trkpt lat="44.92897" lon="6.72336">
        <ele>1856.4</ele>
        <time>2025-01-25T09:30:59Z</time>
      </trkpt>
      <trkpt lat="44.92895" lon="6.72337">
        <ele>1857</ele>
        <time>2025-01-25T09:31:02Z</time>
      </trkpt>
      <trkpt lat="44.92895" lon="6.72337">
        <ele>1857</ele>
        <time>2025-01-25T09:31:03Z</time>
      </trkpt>
      <trkpt lat="44.92892" lon="6.72337">
        <ele>1857.6</ele>
        <time>2025-01-25T09:31:06Z</time>
      </trkpt>
      <trkpt lat="44.92892" lon="6.72337">
        <ele>1857.6</ele>
        <time>2025-01-25T09:31:07Z</time>
      </trkpt>
      <trkpt lat="44.92891" lon="6.72338">
        <ele>1858.1</ele>
        <time>2025-01-25T09:31:09Z</time>
      </trkpt>
      <trkpt lat="44.9289" lon="6.72337">
        <ele>1857.6</ele>
        <time>2025-01-25T09:31:11Z</time>
      </trkpt>
      <trkpt lat="44.9289" lon="6.72337">
        <ele>1857.6</ele>
        <time>2025-01-25T09:31:12Z</time>
      </trkpt>
      <trkpt lat="44.92887" lon="6.72337">
        <ele>1858.2</ele>
        <time>2025-01-25T09:31:15Z</time>
      </trkpt>
      <trkpt lat="44.92885" lon="6.72335">
        <ele>1858.9</ele>
        <time>2025-01-25T09:31:17Z</time>
      </trkpt>
      <trkpt lat="44.92884" lon="6.72336">
        <ele>1858.9</ele>
        <time>2025-01-25T09:31:19Z</time>
      </trkpt>
      <trkpt lat="44.92882" lon="6.72337">
        <ele>1859.5</ele>
        <time>2025-01-25T09:31:23Z</time>
      </trkpt>
      <trkpt lat="44.92877" lon="6.72336">
        <ele>1860.9</ele>
        <time>2025-01-25T09:31:28Z</time>
      </trkpt>
      <trkpt lat="44.92875" lon="6.72335">
        <ele>1860.9</ele>
        <time>2025-01-25T09:31:32Z</time>
      </trkpt>
      <trkpt lat="44.92874" lon="6.72334">
        <ele>1861.5</ele>
        <time>2025-01-25T09:31:34Z</time>
      </trkpt>
      <trkpt lat="44.92871" lon="6.72334">
        <ele>1862.1</ele>
        <time>2025-01-25T09:31:36Z</time>
      </trkpt>
      <trkpt lat="44.92869" lon="6.72334">
        <ele>1862.1</ele>
        <time>2025-01-25T09:31:38Z</time>
      </trkpt>
      <trkpt lat="44.92867" lon="6.72334">
        <ele>1862.8</ele>
        <time>2025-01-25T09:31:40Z</time>
      </trkpt>
      <trkpt lat="44.92867" lon="6.72333">
        <ele>1862.2</ele>
        <time>2025-01-25T09:31:41Z</time>
      </trkpt>
      <trkpt lat="44.92866" lon="6.72333">
        <ele>1862.8</ele>
        <time>2025-01-25T09:31:42Z</time>
      </trkpt>
      <trkpt lat="44.92865" lon="6.72332">
        <ele>1862.2</ele>
        <time>2025-01-25T09:31:45Z</time>
      </trkpt>
      <trkpt lat="44.92866" lon="6.72332">
        <ele>1862.2</ele>
        <time>2025-01-25T09:31:47Z</time>
      </trkpt>
      <trkpt lat="44.92865" lon="6.72332">
        <ele>1862.9</ele>
        <time>2025-01-25T09:31:50Z</time>
      </trkpt>
      <trkpt lat="44.92865" lon="6.72332">
        <ele>1862.9</ele>
        <time>2025-01-25T09:32:02Z</time>
      </trkpt>
      <trkpt lat="44.92864" lon="6.72331">
        <ele>1862.9</ele>
        <time>2025-01-25T09:32:04Z</time>
      </trkpt>
      <trkpt lat="44.92862" lon="6.72331">
        <ele>1863.6</ele>
        <time>2025-01-25T09:32:06Z</time>
      </trkpt>
      <trkpt lat="44.9286" lon="6.72329">
        <ele>1863.6</ele>
        <time>2025-01-25T09:32:08Z</time>
      </trkpt>
      <trkpt lat="44.92859" lon="6.72329">
        <ele>1864.4</ele>
        <time>2025-01-25T09:32:09Z</time>
      </trkpt>
      <trkpt lat="44.92856" lon="6.72329">
        <ele>1863.8</ele>
        <time>2025-01-25T09:32:13Z</time>
      </trkpt>
      <trkpt lat="44.92853" lon="6.72328">
        <ele>1865.3</ele>
        <time>2025-01-25T09:32:17Z</time>
      </trkpt>
      <trkpt lat="44.92849" lon="6.72328">
        <ele>1865.9</ele>
        <time>2025-01-25T09:32:22Z</time>
      </trkpt>
      <trkpt lat="44.92849" lon="6.72326">
        <ele>1865.9</ele>
        <time>2025-01-25T09:32:24Z</time>
      </trkpt>
      <trkpt lat="44.92848" lon="6.72326">
        <ele>1865.9</ele>
        <time>2025-01-25T09:32:26Z</time>
      </trkpt>
      <trkpt lat="44.92847" lon="6.72324">
        <ele>1866</ele>
        <time>2025-01-25T09:32:28Z</time>
      </trkpt>
      <trkpt lat="44.92845" lon="6.72325">
        <ele>1866.6</ele>
        <time>2025-01-25T09:32:30Z</time>
      </trkpt>
      <trkpt lat="44.92844" lon="6.72324">
        <ele>1866.7</ele>
        <time>2025-01-25T09:32:31Z</time>
      </trkpt>
      <trkpt lat="44.92842" lon="6.72324">
        <ele>1866.7</ele>
        <time>2025-01-25T09:32:33Z</time>
      </trkpt>
      <trkpt lat="44.92841" lon="6.72323">
        <ele>1866.7</ele>
        <time>2025-01-25T09:32:34Z</time>
      </trkpt>
      <trkpt lat="44.9284" lon="6.72321">
        <ele>1867.4</ele>
        <time>2025-01-25T09:32:36Z</time>
      </trkpt>
      <trkpt lat="44.92838" lon="6.72321">
        <ele>1867.4</ele>
        <time>2025-01-25T09:32:38Z</time>
      </trkpt>
      <trkpt lat="44.92838" lon="6.72321">
        <ele>1868.2</ele>
        <time>2025-01-25T09:32:39Z</time>
      </trkpt>
      <trkpt lat="44.92836" lon="6.72321">
        <ele>1868.2</ele>
        <time>2025-01-25T09:32:41Z</time>
      </trkpt>
      <trkpt lat="44.92834" lon="6.7232">
        <ele>1868.4</ele>
        <time>2025-01-25T09:32:43Z</time>
      </trkpt>
      <trkpt lat="44.92832" lon="6.72319">
        <ele>1868.4</ele>
        <time>2025-01-25T09:32:46Z</time>
      </trkpt>
      <trkpt lat="44.92831" lon="6.72319">
        <ele>1869.2</ele>
        <time>2025-01-25T09:32:48Z</time>
      </trkpt>
      <trkpt lat="44.9283" lon="6.72319">
        <ele>1869.2</ele>
        <time>2025-01-25T09:32:49Z</time>
      </trkpt>
      <trkpt lat="44.92827" lon="6.72316">
        <ele>1869.9</ele>
        <time>2025-01-25T09:32:53Z</time>
      </trkpt>
      <trkpt lat="44.92826" lon="6.72315">
        <ele>1869.4</ele>
        <time>2025-01-25T09:32:54Z</time>
      </trkpt>
      <trkpt lat="44.92824" lon="6.72315">
        <ele>1870.1</ele>
        <time>2025-01-25T09:32:57Z</time>
      </trkpt>
      <trkpt lat="44.92823" lon="6.72314">
        <ele>1870.1</ele>
        <time>2025-01-25T09:32:58Z</time>
      </trkpt>
      <trkpt lat="44.92821" lon="6.72312">
        <ele>1870.7</ele>
        <time>2025-01-25T09:33:02Z</time>
      </trkpt>
      <trkpt lat="44.92818" lon="6.72311">
        <ele>1870.8</ele>
        <time>2025-01-25T09:33:06Z</time>
      </trkpt>
      <trkpt lat="44.92816" lon="6.72312">
        <ele>1871.9</ele>
        <time>2025-01-25T09:33:07Z</time>
      </trkpt>
      <trkpt lat="44.92815" lon="6.72312">
        <ele>1871.9</ele>
        <time>2025-01-25T09:33:09Z</time>
      </trkpt>
      <trkpt lat="44.92815" lon="6.72313">
        <ele>1871.9</ele>
        <time>2025-01-25T09:33:10Z</time>
      </trkpt>
      <trkpt lat="44.92815" lon="6.72312">
        <ele>1871.9</ele>
        <time>2025-01-25T09:33:16Z</time>
      </trkpt>
      <trkpt lat="44.92815" lon="6.72314">
        <ele>1871.9</ele>
        <time>2025-01-25T09:33:20Z</time>
      </trkpt>
      <trkpt lat="44.92816" lon="6.72313">
        <ele>1871.9</ele>
        <time>2025-01-25T09:33:21Z</time>
      </trkpt>
      <trkpt lat="44.92816" lon="6.72315">
        <ele>1871.9</ele>
        <time>2025-01-25T09:33:23Z</time>
      </trkpt>
      <trkpt lat="44.92818" lon="6.72317">
        <ele>1871.8</ele>
        <time>2025-01-25T09:33:28Z</time>
      </trkpt>
      <trkpt lat="44.9282" lon="6.7232">
        <ele>1871.2</ele>
        <time>2025-01-25T09:33:33Z</time>
      </trkpt>
      <trkpt lat="44.92821" lon="6.72325">
        <ele>1872.3</ele>
        <time>2025-01-25T09:33:38Z</time>
      </trkpt>
      <trkpt lat="44.92822" lon="6.72327">
        <ele>1872.3</ele>
        <time>2025-01-25T09:33:42Z</time>
      </trkpt>
      <trkpt lat="44.92822" lon="6.7233">
        <ele>1872.9</ele>
        <time>2025-01-25T09:33:46Z</time>
      </trkpt>
      <trkpt lat="44.92821" lon="6.72332">
        <ele>1872.9</ele>
        <time>2025-01-25T09:33:51Z</time>
      </trkpt>
      <trkpt lat="44.92819" lon="6.7233">
        <ele>1873.4</ele>
        <time>2025-01-25T09:33:55Z</time>
      </trkpt>
      <trkpt lat="44.92816" lon="6.72328">
        <ele>1873.5</ele>
        <time>2025-01-25T09:33:58Z</time>
      </trkpt>
      <trkpt lat="44.92815" lon="6.72329">
        <ele>1873.5</ele>
        <time>2025-01-25T09:34:01Z</time>
      </trkpt>
      <trkpt lat="44.92814" lon="6.72327">
        <ele>1873.5</ele>
        <time>2025-01-25T09:34:03Z</time>
      </trkpt>
      <trkpt lat="44.92812" lon="6.72325">
        <ele>1874.1</ele>
        <time>2025-01-25T09:34:07Z</time>
      </trkpt>
      <trkpt lat="44.92811" lon="6.72325">
        <ele>1874.1</ele>
        <time>2025-01-25T09:34:08Z</time>
      </trkpt>
      <trkpt lat="44.92809" lon="6.72324">
        <ele>1874.2</ele>
        <time>2025-01-25T09:34:11Z</time>
      </trkpt>
      <trkpt lat="44.92807" lon="6.72323">
        <ele>1874.8</ele>
        <time>2025-01-25T09:34:17Z</time>
      </trkpt>
      <trkpt lat="44.92803" lon="6.7232">
        <ele>1874.9</ele>
        <time>2025-01-25T09:34:24Z</time>
      </trkpt>
      <trkpt lat="44.92801" lon="6.72319">
        <ele>1875.5</ele>
        <time>2025-01-25T09:34:30Z</time>
      </trkpt>
      <trkpt lat="44.92799" lon="6.72317">
        <ele>1875.5</ele>
        <time>2025-01-25T09:34:34Z</time>
      </trkpt>
      <trkpt lat="44.92797" lon="6.72317">
        <ele>1876.1</ele>
        <time>2025-01-25T09:34:39Z</time>
      </trkpt>
      <trkpt lat="44.92794" lon="6.72314">
        <ele>1876.2</ele>
        <time>2025-01-25T09:34:43Z</time>
      </trkpt>
      <trkpt lat="44.92793" lon="6.72312">
        <ele>1876.2</ele>
        <time>2025-01-25T09:34:48Z</time>
      </trkpt>
      <trkpt lat="44.9279" lon="6.72311">
        <ele>1876.3</ele>
        <time>2025-01-25T09:34:52Z</time>
      </trkpt>
      <trkpt lat="44.92789" lon="6.72311">
        <ele>1876.9</ele>
        <time>2025-01-25T09:34:53Z</time>
      </trkpt>
      <trkpt lat="44.92788" lon="6.72311">
        <ele>1876.9</ele>
        <time>2025-01-25T09:34:58Z</time>
      </trkpt>
      <trkpt lat="44.92786" lon="6.72309">
        <ele>1877.5</ele>
        <time>2025-01-25T09:35:03Z</time>
      </trkpt>
      <trkpt lat="44.92785" lon="6.72308">
        <ele>1877.5</ele>
        <time>2025-01-25T09:35:07Z</time>
      </trkpt>
      <trkpt lat="44.92783" lon="6.72309">
        <ele>1877.5</ele>
        <time>2025-01-25T09:35:12Z</time>
      </trkpt>
      <trkpt lat="44.92783" lon="6.72308">
        <ele>1878.1</ele>
        <time>2025-01-25T09:35:14Z</time>
      </trkpt>
      <trkpt lat="44.92782" lon="6.72308">
        <ele>1878.1</ele>
        <time>2025-01-25T09:35:16Z</time>
      </trkpt>
      <trkpt lat="44.92781" lon="6.72307">
        <ele>1877.6</ele>
        <time>2025-01-25T09:35:19Z</time>
      </trkpt>
      <trkpt lat="44.92779" lon="6.72306">
        <ele>1878.3</ele>
        <time>2025-01-25T09:35:23Z</time>
      </trkpt>
      <trkpt lat="44.92778" lon="6.72307">
        <ele>1878.3</ele>
        <time>2025-01-25T09:35:24Z</time>
      </trkpt>
      <trkpt lat="44.92779" lon="6.72307">
        <ele>1878.3</ele>
        <time>2025-01-25T09:35:26Z</time>
      </trkpt>
      <trkpt lat="44.92778" lon="6.72306">
        <ele>1878.3</ele>
        <time>2025-01-25T09:35:32Z</time>
      </trkpt>
      <trkpt lat="44.92778" lon="6.72305">
        <ele>1878.3</ele>
        <time>2025-01-25T09:35:37Z</time>
      </trkpt>
      <trkpt lat="44.92778" lon="6.72305">
        <ele>1878.3</ele>
        <time>2025-01-25T09:35:42Z</time>
      </trkpt>
      <trkpt lat="44.92778" lon="6.72305">
        <ele>1878.3</ele>
        <time>2025-01-25T09:35:49Z</time>
      </trkpt>
      <trkpt lat="44.92778" lon="6.72305">
        <ele>1878.3</ele>
        <time>2025-01-25T09:35:58Z</time>
      </trkpt>
      <trkpt lat="44.92778" lon="6.72305">
        <ele>1878.3</ele>
        <time>2025-01-25T09:36:05Z</time>
      </trkpt>
      <trkpt lat="44.92778" lon="6.72305">
        <ele>1878.3</ele>
        <time>2025-01-25T09:36:12Z</time>
      </trkpt>
      <trkpt lat="44.92778" lon="6.72305">
        <ele>1878.3</ele>
        <time>2025-01-25T09:36:20Z</time>
      </trkpt>
      <trkpt lat="44.92778" lon="6.72305">
        <ele>1878.3</ele>
        <time>2025-01-25T09:36:28Z</time>
      </trkpt>
      <trkpt lat="44.92778" lon="6.72305">
        <ele>1878.3</ele>
        <time>2025-01-25T09:36:34Z</time>
      </trkpt>
      <trkpt lat="44.92778" lon="6.72305">
        <ele>1878.3</ele>
        <time>2025-01-25T09:36:40Z</time>
      </trkpt>
      <trkpt lat="44.92779" lon="6.72305">
        <ele>1878.3</ele>
        <time>2025-01-25T09:36:46Z</time>
      </trkpt>
      <trkpt lat="44.92779" lon="6.72305">
        <ele>1878.3</ele>
        <time>2025-01-25T09:36:56Z</time>
      </trkpt>
      <trkpt lat="44.92779" lon="6.72305">
        <ele>1878.3</ele>
        <time>2025-01-25T09:37:04Z</time>
      </trkpt>
      <trkpt lat="44.92779" lon="6.72305">
        <ele>1878.3</ele>
        <time>2025-01-25T09:37:11Z</time>
      </trkpt>
      <trkpt lat="44.92779" lon="6.72305">
        <ele>1878.3</ele>
        <time>2025-01-25T09:37:22Z</time>
      </trkpt>
      <trkpt lat="44.92778" lon="6.72305">
        <ele>1878.3</ele>
        <time>2025-01-25T09:37:28Z</time>
      </trkpt>
      <trkpt lat="44.92779" lon="6.72305">
        <ele>1878.3</ele>
        <time>2025-01-25T09:37:34Z</time>
      </trkpt>
      <trkpt lat="44.92779" lon="6.72305">
        <ele>1878.3</ele>
        <time>2025-01-25T09:37:45Z</time>
      </trkpt>
      <trkpt lat="44.92779" lon="6.72305">
        <ele>1878.3</ele>
        <time>2025-01-25T09:37:52Z</time>
      </trkpt>
      <trkpt lat="44.92779" lon="6.72305">
        <ele>1878.3</ele>
        <time>2025-01-25T09:37:59Z</time>
      </trkpt>
      <trkpt lat="44.92778" lon="6.72306">
        <ele>1878.3</ele>
        <time>2025-01-25T09:38:04Z</time>
      </trkpt>
      <trkpt lat="44.92778" lon="6.72306">
        <ele>1878.3</ele>
        <time>2025-01-25T09:38:11Z</time>
      </trkpt>
      <trkpt lat="44.92778" lon="6.72305">
        <ele>1878.3</ele>
        <time>2025-01-25T09:38:18Z</time>
      </trkpt>
      <trkpt lat="44.92776" lon="6.72304">
        <ele>1878.9</ele>
        <time>2025-01-25T09:38:23Z</time>
      </trkpt>
      <trkpt lat="44.92775" lon="6.72303">
        <ele>1878.9</ele>
        <time>2025-01-25T09:38:28Z</time>
      </trkpt>
      <trkpt lat="44.92775" lon="6.72303">
        <ele>1878.4</ele>
        <time>2025-01-25T09:38:35Z</time>
      </trkpt>
      <trkpt lat="44.92773" lon="6.72302">
        <ele>1879</ele>
        <time>2025-01-25T09:38:39Z</time>
      </trkpt>
      <trkpt lat="44.92771" lon="6.72302">
        <ele>1879.6</ele>
        <time>2025-01-25T09:38:43Z</time>
      </trkpt>
      <trkpt lat="44.92769" lon="6.72301">
        <ele>1879.6</ele>
        <time>2025-01-25T09:38:47Z</time>
      </trkpt>
      <trkpt lat="44.92768" lon="6.72301">
        <ele>1880.2</ele>
        <time>2025-01-25T09:38:52Z</time>
      </trkpt>
      <trkpt lat="44.92767" lon="6.723">
        <ele>1880.2</ele>
        <time>2025-01-25T09:38:57Z</time>
      </trkpt>
      <trkpt lat="44.92767" lon="6.723">
        <ele>1880.2</ele>
        <time>2025-01-25T09:39:05Z</time>
      </trkpt>
      <trkpt lat="44.92767" lon="6.723">
        <ele>1880.2</ele>
        <time>2025-01-25T09:39:13Z</time>
      </trkpt>
      <trkpt lat="44.92767" lon="6.723">
        <ele>1880.2</ele>
        <time>2025-01-25T09:39:19Z</time>
      </trkpt>
      <trkpt lat="44.92767" lon="6.723">
        <ele>1880.2</ele>
        <time>2025-01-25T09:39:26Z</time>
      </trkpt>
      <trkpt lat="44.92767" lon="6.723">
        <ele>1880.2</ele>
        <time>2025-01-25T09:39:34Z</time>
      </trkpt>
      <trkpt lat="44.92768" lon="6.72299">
        <ele>1879.6</ele>
        <time>2025-01-25T09:39:40Z</time>
      </trkpt>
      <trkpt lat="44.92768" lon="6.72299">
        <ele>1880.2</ele>
        <time>2025-01-25T09:39:45Z</time>
      </trkpt>
      <trkpt lat="44.92768" lon="6.72298">
        <ele>1879.6</ele>
        <time>2025-01-25T09:39:52Z</time>
      </trkpt>
      <trkpt lat="44.92768" lon="6.72298">
        <ele>1879.6</ele>
        <time>2025-01-25T09:40:01Z</time>
      </trkpt>
      <trkpt lat="44.92767" lon="6.72298">
        <ele>1879.6</ele>
        <time>2025-01-25T09:40:06Z</time>
      </trkpt>
      <trkpt lat="44.92765" lon="6.72299">
        <ele>1879.6</ele>
        <time>2025-01-25T09:40:08Z</time>
      </trkpt>
      <trkpt lat="44.92763" lon="6.72298">
        <ele>1880</ele>
        <time>2025-01-25T09:40:10Z</time>
      </trkpt>
      <trkpt lat="44.92759" lon="6.72299">
        <ele>1881.5</ele>
        <time>2025-01-25T09:40:15Z</time>
      </trkpt>
      <trkpt lat="44.92757" lon="6.72299">
        <ele>1881.5</ele>
        <time>2025-01-25T09:40:18Z</time>
      </trkpt>
      <trkpt lat="44.92756" lon="6.723">
        <ele>1881.5</ele>
        <time>2025-01-25T09:40:19Z</time>
      </trkpt>
      <trkpt lat="44.92755" lon="6.72299">
        <ele>1881.3</ele>
        <time>2025-01-25T09:40:24Z</time>
      </trkpt>
      <trkpt lat="44.92753" lon="6.72297">
        <ele>1881.3</ele>
        <time>2025-01-25T09:40:29Z</time>
      </trkpt>
      <trkpt lat="44.92752" lon="6.72298">
        <ele>1881.7</ele>
        <time>2025-01-25T09:40:30Z</time>
      </trkpt>
      <trkpt lat="44.92751" lon="6.72297">
        <ele>1881.7</ele>
        <time>2025-01-25T09:40:33Z</time>
      </trkpt>
      <trkpt lat="44.9275" lon="6.72297">
        <ele>1881.7</ele>
        <time>2025-01-25T09:40:34Z</time>
      </trkpt>
      <trkpt lat="44.92749" lon="6.72295">
        <ele>1882.2</ele>
        <time>2025-01-25T09:40:38Z</time>
      </trkpt>
      <trkpt lat="44.92748" lon="6.72295">
        <ele>1882.2</ele>
        <time>2025-01-25T09:40:40Z</time>
      </trkpt>
      <trkpt lat="44.92746" lon="6.72295">
        <ele>1882.6</ele>
        <time>2025-01-25T09:40:43Z</time>
      </trkpt>
      <trkpt lat="44.92746" lon="6.72294">
        <ele>1881.8</ele>
        <time>2025-01-25T09:40:44Z</time>
      </trkpt>
      <trkpt lat="44.92746" lon="6.72295">
        <ele>1882.6</ele>
        <time>2025-01-25T09:40:48Z</time>
      </trkpt>
      <trkpt lat="44.92744" lon="6.72295">
        <ele>1882.6</ele>
        <time>2025-01-25T09:40:53Z</time>
      </trkpt>
      <trkpt lat="44.92744" lon="6.72295">
        <ele>1883</ele>
        <time>2025-01-25T09:40:55Z</time>
      </trkpt>
      <trkpt lat="44.92743" lon="6.72296">
        <ele>1883</ele>
        <time>2025-01-25T09:40:59Z</time>
      </trkpt>
      <trkpt lat="44.92741" lon="6.72295">
        <ele>1883</ele>
        <time>2025-01-25T09:41:03Z</time>
      </trkpt>
      <trkpt lat="44.92739" lon="6.72295">
        <ele>1883.3</ele>
        <time>2025-01-25T09:41:09Z</time>
      </trkpt>
      <trkpt lat="44.92737" lon="6.72293">
        <ele>1882.7</ele>
        <time>2025-01-25T09:41:13Z</time>
      </trkpt>
      <trkpt lat="44.92736" lon="6.72292">
        <ele>1882.7</ele>
        <time>2025-01-25T09:41:14Z</time>
      </trkpt>
      <trkpt lat="44.92736" lon="6.72293">
        <ele>1882.7</ele>
        <time>2025-01-25T09:41:15Z</time>
      </trkpt>
      <trkpt lat="44.92734" lon="6.72293">
        <ele>1883</ele>
        <time>2025-01-25T09:41:18Z</time>
      </trkpt>
      <trkpt lat="44.92732" lon="6.72292">
        <ele>1883</ele>
        <time>2025-01-25T09:41:19Z</time>
      </trkpt>
      <trkpt lat="44.92731" lon="6.72291">
        <ele>1883.3</ele>
        <time>2025-01-25T09:41:22Z</time>
      </trkpt>
      <trkpt lat="44.92729" lon="6.72292">
        <ele>1883.3</ele>
        <time>2025-01-25T09:41:24Z</time>
      </trkpt>
      <trkpt lat="44.92728" lon="6.72291">
        <ele>1883.6</ele>
        <time>2025-01-25T09:41:26Z</time>
      </trkpt>
      <trkpt lat="44.92727" lon="6.72291">
        <ele>1883.6</ele>
        <time>2025-01-25T09:41:27Z</time>
      </trkpt>
      <trkpt lat="44.92726" lon="6.72293">
        <ele>1883.6</ele>
        <time>2025-01-25T09:41:30Z</time>
      </trkpt>
      <trkpt lat="44.92728" lon="6.72295">
        <ele>1883.6</ele>
        <time>2025-01-25T09:41:35Z</time>
      </trkpt>
      <trkpt lat="44.92727" lon="6.72297">
        <ele>1884.4</ele>
        <time>2025-01-25T09:41:37Z</time>
      </trkpt>
      <trkpt lat="44.92728" lon="6.72297">
        <ele>1884.4</ele>
        <time>2025-01-25T09:41:39Z</time>
      </trkpt>
      <trkpt lat="44.92727" lon="6.72297">
        <ele>1884.4</ele>
        <time>2025-01-25T09:41:40Z</time>
      </trkpt>
      <trkpt lat="44.92727" lon="6.72298">
        <ele>1884.4</ele>
        <time>2025-01-25T09:41:42Z</time>
      </trkpt>
      <trkpt lat="44.92725" lon="6.72298">
        <ele>1884.8</ele>
        <time>2025-01-25T09:41:43Z</time>
      </trkpt>
      <trkpt lat="44.92722" lon="6.72299">
        <ele>1885.2</ele>
        <time>2025-01-25T09:41:46Z</time>
      </trkpt>
      <trkpt lat="44.92722" lon="6.72299">
        <ele>1885.2</ele>
        <time>2025-01-25T09:41:47Z</time>
      </trkpt>
      <trkpt lat="44.92722" lon="6.72298">
        <ele>1885.2</ele>
        <time>2025-01-25T09:41:50Z</time>
      </trkpt>
      <trkpt lat="44.92722" lon="6.72298">
        <ele>1885.2</ele>
        <time>2025-01-25T09:42:01Z</time>
      </trkpt>
      <trkpt lat="44.92722" lon="6.72298">
        <ele>1885.2</ele>
        <time>2025-01-25T09:42:07Z</time>
      </trkpt>
      <trkpt lat="44.92722" lon="6.72298">
        <ele>1885.2</ele>
        <time>2025-01-25T09:42:23Z</time>
      </trkpt>
      <trkpt lat="44.92722" lon="6.72298">
        <ele>1885.2</ele>
        <time>2025-01-25T09:42:36Z</time>
      </trkpt>
      <trkpt lat="44.92721" lon="6.72298">
        <ele>1885.2</ele>
        <time>2025-01-25T09:42:43Z</time>
      </trkpt>
      <trkpt lat="44.9272" lon="6.72298">
        <ele>1885.2</ele>
        <time>2025-01-25T09:42:45Z</time>
      </trkpt>
      <trkpt lat="44.92717" lon="6.72298">
        <ele>1885.5</ele>
        <time>2025-01-25T09:42:47Z</time>
      </trkpt>
      <trkpt lat="44.92716" lon="6.72299">
        <ele>1885.8</ele>
        <time>2025-01-25T09:42:51Z</time>
      </trkpt>
      <trkpt lat="44.92712" lon="6.72299">
        <ele>1887</ele>
        <time>2025-01-25T09:42:56Z</time>
      </trkpt>
      <trkpt lat="44.92706" lon="6.72302">
        <ele>1887.7</ele>
        <time>2025-01-25T09:43:01Z</time>
      </trkpt>
      <trkpt lat="44.92704" lon="6.72304">
        <ele>1888.9</ele>
        <time>2025-01-25T09:43:06Z</time>
      </trkpt>
      <trkpt lat="44.92702" lon="6.72305">
        <ele>1888.9</ele>
        <time>2025-01-25T09:43:09Z</time>
      </trkpt>
      <trkpt lat="44.92702" lon="6.72305">
        <ele>1888.9</ele>
        <time>2025-01-25T09:43:10Z</time>
      </trkpt>
      <trkpt lat="44.92701" lon="6.72304">
        <ele>1889.3</ele>
        <time>2025-01-25T09:43:14Z</time>
      </trkpt>
      <trkpt lat="44.92699" lon="6.72304">
        <ele>1889.3</ele>
        <time>2025-01-25T09:43:16Z</time>
      </trkpt>
      <trkpt lat="44.92698" lon="6.72303">
        <ele>1889.7</ele>
        <time>2025-01-25T09:43:19Z</time>
      </trkpt>
      <trkpt lat="44.92696" lon="6.72304">
        <ele>1889.7</ele>
        <time>2025-01-25T09:43:24Z</time>
      </trkpt>
      <trkpt lat="44.92695" lon="6.72305">
        <ele>1889.7</ele>
        <time>2025-01-25T09:43:29Z</time>
      </trkpt>
      <trkpt lat="44.92692" lon="6.72305">
        <ele>1890.1</ele>
        <time>2025-01-25T09:43:34Z</time>
      </trkpt>
      <trkpt lat="44.92692" lon="6.72306">
        <ele>1890.6</ele>
        <time>2025-01-25T09:43:35Z</time>
      </trkpt>
      <trkpt lat="44.9269" lon="6.72305">
        <ele>1890.6</ele>
        <time>2025-01-25T09:43:40Z</time>
      </trkpt>
      <trkpt lat="44.92689" lon="6.72305">
        <ele>1891.1</ele>
        <time>2025-01-25T09:43:41Z</time>
      </trkpt>
      <trkpt lat="44.92686" lon="6.72305">
        <ele>1891.7</ele>
        <time>2025-01-25T09:43:44Z</time>
      </trkpt>
      <trkpt lat="44.92685" lon="6.72306">
        <ele>1891.7</ele>
        <time>2025-01-25T09:43:48Z</time>
      </trkpt>
      <trkpt lat="44.92685" lon="6.72306">
        <ele>1891.7</ele>
        <time>2025-01-25T09:43:59Z</time>
      </trkpt>
      <trkpt lat="44.92685" lon="6.72306">
        <ele>1891.7</ele>
        <time>2025-01-25T09:44:11Z</time>
      </trkpt>
      <trkpt lat="44.92685" lon="6.72306">
        <ele>1891.7</ele>
        <time>2025-01-25T09:44:20Z</time>
      </trkpt>
      <trkpt lat="44.92685" lon="6.72306">
        <ele>1891.7</ele>
        <time>2025-01-25T09:44:29Z</time>
      </trkpt>
      <trkpt lat="44.92685" lon="6.72306">
        <ele>1891.7</ele>
        <time>2025-01-25T09:44:44Z</time>
      </trkpt>
      <trkpt lat="44.92685" lon="6.72306">
        <ele>1891.7</ele>
        <time>2025-01-25T09:44:52Z</time>
      </trkpt>
      <trkpt lat="44.92685" lon="6.72306">
        <ele>1891.7</ele>
        <time>2025-01-25T09:45:01Z</time>
      </trkpt>
      <trkpt lat="44.92684" lon="6.72305">
        <ele>1891.7</ele>
        <time>2025-01-25T09:45:09Z</time>
      </trkpt>
      <trkpt lat="44.92684" lon="6.72305">
        <ele>1891.7</ele>
        <time>2025-01-25T09:45:18Z</time>
      </trkpt>
      <trkpt lat="44.92684" lon="6.72305">
        <ele>1891.7</ele>
        <time>2025-01-25T09:45:30Z</time>
      </trkpt>
      <trkpt lat="44.92684" lon="6.72305">
        <ele>1891.7</ele>
        <time>2025-01-25T09:45:45Z</time>
      </trkpt>
      <trkpt lat="44.92684" lon="6.72305">
        <ele>1891.7</ele>
        <time>2025-01-25T09:46:05Z</time>
      </trkpt>
      <trkpt lat="44.92684" lon="6.72305">
        <ele>1891.7</ele>
        <time>2025-01-25T09:46:18Z</time>
      </trkpt>
      <trkpt lat="44.92684" lon="6.72306">
        <ele>1891.7</ele>
        <time>2025-01-25T09:46:31Z</time>
      </trkpt>
      <trkpt lat="44.92683" lon="6.72305">
        <ele>1891.7</ele>
        <time>2025-01-25T09:46:33Z</time>
      </trkpt>
      <trkpt lat="44.92682" lon="6.72306">
        <ele>1892.2</ele>
        <time>2025-01-25T09:46:35Z</time>
      </trkpt>
      <trkpt lat="44.92679" lon="6.72307">
        <ele>1892.7</ele>
        <time>2025-01-25T09:46:41Z</time>
      </trkpt>
      <trkpt lat="44.92678" lon="6.72307">
        <ele>1892.7</ele>
        <time>2025-01-25T09:46:42Z</time>
      </trkpt>
      <trkpt lat="44.92675" lon="6.72306">
        <ele>1893.2</ele>
        <time>2025-01-25T09:46:47Z</time>
      </trkpt>
      <trkpt lat="44.92673" lon="6.72305">
        <ele>1893.7</ele>
        <time>2025-01-25T09:46:52Z</time>
      </trkpt>
      <trkpt lat="44.92671" lon="6.72304">
        <ele>1894.3</ele>
        <time>2025-01-25T09:46:57Z</time>
      </trkpt>
      <trkpt lat="44.92669" lon="6.72302">
        <ele>1893.5</ele>
        <time>2025-01-25T09:47:01Z</time>
      </trkpt>
      <trkpt lat="44.92666" lon="6.72302">
        <ele>1894.1</ele>
        <time>2025-01-25T09:47:06Z</time>
      </trkpt>
      <trkpt lat="44.92666" lon="6.723">
        <ele>1894.1</ele>
        <time>2025-01-25T09:47:07Z</time>
      </trkpt>
      <trkpt lat="44.92665" lon="6.723">
        <ele>1894.9</ele>
        <time>2025-01-25T09:47:09Z</time>
      </trkpt>
      <trkpt lat="44.92664" lon="6.723">
        <ele>1894.9</ele>
        <time>2025-01-25T09:47:10Z</time>
      </trkpt>
      <trkpt lat="44.92663" lon="6.723">
        <ele>1894.9</ele>
        <time>2025-01-25T09:47:15Z</time>
      </trkpt>
      <trkpt lat="44.92661" lon="6.72299">
        <ele>1894.7</ele>
        <time>2025-01-25T09:47:20Z</time>
      </trkpt>
      <trkpt lat="44.92659" lon="6.72299">
        <ele>1895.6</ele>
        <time>2025-01-25T09:47:25Z</time>
      </trkpt>
      <trkpt lat="44.92657" lon="6.72299">
        <ele>1896.3</ele>
        <time>2025-01-25T09:47:30Z</time>
      </trkpt>
      <trkpt lat="44.92656" lon="6.72298">
        <ele>1896</ele>
        <time>2025-01-25T09:47:33Z</time>
      </trkpt>
      <trkpt lat="44.92655" lon="6.72299">
        <ele>1896</ele>
        <time>2025-01-25T09:47:35Z</time>
      </trkpt>
      <trkpt lat="44.92653" lon="6.72298">
        <ele>1896</ele>
        <time>2025-01-25T09:47:39Z</time>
      </trkpt>
      <trkpt lat="44.92652" lon="6.72295">
        <ele>1896.7</ele>
        <time>2025-01-25T09:47:44Z</time>
      </trkpt>
      <trkpt lat="44.9265" lon="6.72294">
        <ele>1895.8</ele>
        <time>2025-01-25T09:47:51Z</time>
      </trkpt>
      <trkpt lat="44.92649" lon="6.72294">
        <ele>1896.5</ele>
        <time>2025-01-25T09:47:57Z</time>
      </trkpt>
      <trkpt lat="44.9265" lon="6.72294">
        <ele>1895.8</ele>
        <time>2025-01-25T09:48:04Z</time>
      </trkpt>
      <trkpt lat="44.9265" lon="6.72293">
        <ele>1895.8</ele>
        <time>2025-01-25T09:48:11Z</time>
      </trkpt>
      <trkpt lat="44.9265" lon="6.72292">
        <ele>1896.5</ele>
        <time>2025-01-25T09:48:15Z</time>
      </trkpt>
      <trkpt lat="44.9265" lon="6.72292">
        <ele>1896.5</ele>
        <time>2025-01-25T09:48:22Z</time>
      </trkpt>
      <trkpt lat="44.9265" lon="6.72291">
        <ele>1895.8</ele>
        <time>2025-01-25T09:48:29Z</time>
      </trkpt>
      <trkpt lat="44.92651" lon="6.72289">
        <ele>1894.9</ele>
        <time>2025-01-25T09:48:37Z</time>
      </trkpt>
      <trkpt lat="44.92651" lon="6.72288">
        <ele>1894.9</ele>
        <time>2025-01-25T09:48:43Z</time>
      </trkpt>
      <trkpt lat="44.92651" lon="6.72288">
        <ele>1894.9</ele>
        <time>2025-01-25T09:48:51Z</time>
      </trkpt>
      <trkpt lat="44.92651" lon="6.72287">
        <ele>1894.9</ele>
        <time>2025-01-25T09:49:00Z</time>
      </trkpt>
      <trkpt lat="44.92649" lon="6.7228">
        <ele>1893.6</ele>
        <time>2025-01-25T09:49:06Z</time>
      </trkpt>
      <trkpt lat="44.92645" lon="6.72276">
        <ele>1893.4</ele>
        <time>2025-01-25T09:49:12Z</time>
      </trkpt>
      <trkpt lat="44.92642" lon="6.72274">
        <ele>1894.2</ele>
        <time>2025-01-25T09:49:16Z</time>
      </trkpt>
      <trkpt lat="44.9264" lon="6.7227">
        <ele>1894.1</ele>
        <time>2025-01-25T09:49:21Z</time>
      </trkpt>
      <trkpt lat="44.92638" lon="6.72269">
        <ele>1893.3</ele>
        <time>2025-01-25T09:49:26Z</time>
      </trkpt>
      <trkpt lat="44.92635" lon="6.72269">
        <ele>1895</ele>
        <time>2025-01-25T09:49:30Z</time>
      </trkpt>
      <trkpt lat="44.92632" lon="6.72268">
        <ele>1894.9</ele>
        <time>2025-01-25T09:49:33Z</time>
      </trkpt>
      <trkpt lat="44.92632" lon="6.72267">
        <ele>1894.9</ele>
        <time>2025-01-25T09:49:34Z</time>
      </trkpt>
      <trkpt lat="44.92625" lon="6.72267">
        <ele>1896.3</ele>
        <time>2025-01-25T09:49:40Z</time>
      </trkpt>
      <trkpt lat="44.92622" lon="6.72264">
        <ele>1897</ele>
        <time>2025-01-25T09:49:45Z</time>
      </trkpt>
      <trkpt lat="44.92619" lon="6.7226">
        <ele>1896.2</ele>
        <time>2025-01-25T09:49:50Z</time>
      </trkpt>
      <trkpt lat="44.92614" lon="6.72257">
        <ele>1897.8</ele>
        <time>2025-01-25T09:49:56Z</time>
      </trkpt>
      <trkpt lat="44.92611" lon="6.72257">
        <ele>1898.6</ele>
        <time>2025-01-25T09:50:00Z</time>
      </trkpt>
      <trkpt lat="44.92608" lon="6.72255">
        <ele>1898.6</ele>
        <time>2025-01-25T09:50:04Z</time>
      </trkpt>
      <trkpt lat="44.92606" lon="6.72255">
        <ele>1899.5</ele>
        <time>2025-01-25T09:50:07Z</time>
      </trkpt>
      <trkpt lat="44.92602" lon="6.72252">
        <ele>1900.3</ele>
        <time>2025-01-25T09:50:13Z</time>
      </trkpt>
      <trkpt lat="44.926" lon="6.72251">
        <ele>1900.2</ele>
        <time>2025-01-25T09:50:15Z</time>
      </trkpt>
      <trkpt lat="44.92598" lon="6.7225">
        <ele>1901</ele>
        <time>2025-01-25T09:50:18Z</time>
      </trkpt>
      <trkpt lat="44.92596" lon="6.72251">
        <ele>1901</ele>
        <time>2025-01-25T09:50:21Z</time>
      </trkpt>
      <trkpt lat="44.9259" lon="6.72252">
        <ele>1903.8</ele>
        <time>2025-01-25T09:50:26Z</time>
      </trkpt>
      <trkpt lat="44.92588" lon="6.72251">
        <ele>1903.7</ele>
        <time>2025-01-25T09:50:29Z</time>
      </trkpt>
      <trkpt lat="44.92587" lon="6.72251">
        <ele>1903.7</ele>
        <time>2025-01-25T09:50:30Z</time>
      </trkpt>
      <trkpt lat="44.92585" lon="6.7225">
        <ele>1904.6</ele>
        <time>2025-01-25T09:50:34Z</time>
      </trkpt>
      <trkpt lat="44.92585" lon="6.72248">
        <ele>1904.6</ele>
        <time>2025-01-25T09:50:35Z</time>
      </trkpt>
      <trkpt lat="44.92584" lon="6.72247">
        <ele>1903.7</ele>
        <time>2025-01-25T09:50:38Z</time>
      </trkpt>
      <trkpt lat="44.92583" lon="6.72246">
        <ele>1903.7</ele>
        <time>2025-01-25T09:50:39Z</time>
      </trkpt>
      <trkpt lat="44.92581" lon="6.72245">
        <ele>1904.6</ele>
        <time>2025-01-25T09:50:42Z</time>
      </trkpt>
      <trkpt lat="44.92578" lon="6.72243">
        <ele>1905.4</ele>
        <time>2025-01-25T09:50:47Z</time>
      </trkpt>
      <trkpt lat="44.92571" lon="6.72244">
        <ele>1907.1</ele>
        <time>2025-01-25T09:50:54Z</time>
      </trkpt>
      <trkpt lat="44.92567" lon="6.72244">
        <ele>1908.6</ele>
        <time>2025-01-25T09:50:59Z</time>
      </trkpt>
      <trkpt lat="44.92566" lon="6.72241">
        <ele>1907.7</ele>
        <time>2025-01-25T09:51:02Z</time>
      </trkpt>
      <trkpt lat="44.92566" lon="6.72241">
        <ele>1907.7</ele>
        <time>2025-01-25T09:51:03Z</time>
      </trkpt>
      <trkpt lat="44.92565" lon="6.7224">
        <ele>1907.7</ele>
        <time>2025-01-25T09:51:04Z</time>
      </trkpt>
      <trkpt lat="44.92563" lon="6.72239">
        <ele>1908.6</ele>
        <time>2025-01-25T09:51:06Z</time>
      </trkpt>
      <trkpt lat="44.92563" lon="6.72238">
        <ele>1907.7</ele>
        <time>2025-01-25T09:51:07Z</time>
      </trkpt>
      <trkpt lat="44.92562" lon="6.72238">
        <ele>1907.7</ele>
        <time>2025-01-25T09:51:09Z</time>
      </trkpt>
      <trkpt lat="44.92562" lon="6.72236">
        <ele>1907.7</ele>
        <time>2025-01-25T09:51:10Z</time>
      </trkpt>
      <trkpt lat="44.92559" lon="6.72236">
        <ele>1908.6</ele>
        <time>2025-01-25T09:51:13Z</time>
      </trkpt>
      <trkpt lat="44.92556" lon="6.72236">
        <ele>1909.6</ele>
        <time>2025-01-25T09:51:18Z</time>
      </trkpt>
      <trkpt lat="44.92553" lon="6.72235">
        <ele>1910.6</ele>
        <time>2025-01-25T09:51:21Z</time>
      </trkpt>
      <trkpt lat="44.92552" lon="6.72233">
        <ele>1910.7</ele>
        <time>2025-01-25T09:51:23Z</time>
      </trkpt>
      <trkpt lat="44.92551" lon="6.72233">
        <ele>1910.7</ele>
        <time>2025-01-25T09:51:24Z</time>
      </trkpt>
      <trkpt lat="44.9255" lon="6.72232">
        <ele>1910.7</ele>
        <time>2025-01-25T09:51:26Z</time>
      </trkpt>
      <trkpt lat="44.92549" lon="6.7223">
        <ele>1911.6</ele>
        <time>2025-01-25T09:51:28Z</time>
      </trkpt>
      <trkpt lat="44.92547" lon="6.72228">
        <ele>1910.7</ele>
        <time>2025-01-25T09:51:30Z</time>
      </trkpt>
      <trkpt lat="44.92545" lon="6.72225">
        <ele>1910.6</ele>
        <time>2025-01-25T09:51:34Z</time>
      </trkpt>
      <trkpt lat="44.92544" lon="6.72224">
        <ele>1910.6</ele>
        <time>2025-01-25T09:51:36Z</time>
      </trkpt>
      <trkpt lat="44.92543" lon="6.72223">
        <ele>1911.3</ele>
        <time>2025-01-25T09:51:38Z</time>
      </trkpt>
      <trkpt lat="44.92541" lon="6.72224">
        <ele>1911.3</ele>
        <time>2025-01-25T09:51:41Z</time>
      </trkpt>
      <trkpt lat="44.92539" lon="6.72226">
        <ele>1912.1</ele>
        <time>2025-01-25T09:51:44Z</time>
      </trkpt>
      <trkpt lat="44.92539" lon="6.72226">
        <ele>1912.1</ele>
        <time>2025-01-25T09:51:46Z</time>
      </trkpt>
      <trkpt lat="44.92538" lon="6.72226">
        <ele>1912.1</ele>
        <time>2025-01-25T09:51:52Z</time>
      </trkpt>
      <trkpt lat="44.92537" lon="6.72225">
        <ele>1913</ele>
        <time>2025-01-25T09:51:57Z</time>
      </trkpt>
      <trkpt lat="44.92537" lon="6.72224">
        <ele>1913</ele>
        <time>2025-01-25T09:52:03Z</time>
      </trkpt>
      <trkpt lat="44.92532" lon="6.72221">
        <ele>1912.9</ele>
        <time>2025-01-25T09:52:06Z</time>
      </trkpt>
      <trkpt lat="44.92531" lon="6.72221">
        <ele>1913.8</ele>
        <time>2025-01-25T09:52:07Z</time>
      </trkpt>
      <trkpt lat="44.92529" lon="6.72221">
        <ele>1913.8</ele>
        <time>2025-01-25T09:52:08Z</time>
      </trkpt>
      <trkpt lat="44.92525" lon="6.72218">
        <ele>1914.6</ele>
        <time>2025-01-25T09:52:12Z</time>
      </trkpt>
      <trkpt lat="44.92521" lon="6.72215">
        <ele>1915.3</ele>
        <time>2025-01-25T09:52:17Z</time>
      </trkpt>
      <trkpt lat="44.9252" lon="6.72215">
        <ele>1915.3</ele>
        <time>2025-01-25T09:52:18Z</time>
      </trkpt>
      <trkpt lat="44.92518" lon="6.72213">
        <ele>1915.2</ele>
        <time>2025-01-25T09:52:22Z</time>
      </trkpt>
      <trkpt lat="44.92516" lon="6.72211">
        <ele>1915.2</ele>
        <time>2025-01-25T09:52:27Z</time>
      </trkpt>
      <trkpt lat="44.92515" lon="6.7221">
        <ele>1915.8</ele>
        <time>2025-01-25T09:52:34Z</time>
      </trkpt>
      <trkpt lat="44.92513" lon="6.7221">
        <ele>1915.8</ele>
        <time>2025-01-25T09:52:35Z</time>
      </trkpt>
      <trkpt lat="44.92512" lon="6.72208">
        <ele>1915.7</ele>
        <time>2025-01-25T09:52:37Z</time>
      </trkpt>
      <trkpt lat="44.9251" lon="6.72208">
        <ele>1915.7</ele>
        <time>2025-01-25T09:52:39Z</time>
      </trkpt>
      <trkpt lat="44.9251" lon="6.72208">
        <ele>1916.4</ele>
        <time>2025-01-25T09:52:40Z</time>
      </trkpt>
      <trkpt lat="44.92506" lon="6.72207">
        <ele>1917</ele>
        <time>2025-01-25T09:52:43Z</time>
      </trkpt>
      <trkpt lat="44.92502" lon="6.72204">
        <ele>1916.9</ele>
        <time>2025-01-25T09:52:48Z</time>
      </trkpt>
      <trkpt lat="44.92502" lon="6.72204">
        <ele>1916.9</ele>
        <time>2025-01-25T09:52:59Z</time>
      </trkpt>
      <trkpt lat="44.92502" lon="6.72204">
        <ele>1916.9</ele>
        <time>2025-01-25T09:53:20Z</time>
      </trkpt>
      <trkpt lat="44.92502" lon="6.72204">
        <ele>1916.9</ele>
        <time>2025-01-25T09:53:39Z</time>
      </trkpt>
      <trkpt lat="44.92502" lon="6.72204">
        <ele>1916.9</ele>
        <time>2025-01-25T09:54:02Z</time>
      </trkpt>
      <trkpt lat="44.92502" lon="6.72203">
        <ele>1916.9</ele>
        <time>2025-01-25T09:54:21Z</time>
      </trkpt>
      <trkpt lat="44.92502" lon="6.72203">
        <ele>1916.9</ele>
        <time>2025-01-25T09:54:31Z</time>
      </trkpt>
      <trkpt lat="44.92502" lon="6.72203">
        <ele>1916.9</ele>
        <time>2025-01-25T09:54:45Z</time>
      </trkpt>
      <trkpt lat="44.92502" lon="6.72203">
        <ele>1916.9</ele>
        <time>2025-01-25T09:54:48Z</time>
      </trkpt>
      <trkpt lat="44.92502" lon="6.72203">
        <ele>1916.9</ele>
        <time>2025-01-25T09:54:58Z</time>
      </trkpt>
      <trkpt lat="44.92502" lon="6.72203">
        <ele>1916.9</ele>
        <time>2025-01-25T09:55:18Z</time>
      </trkpt>
      <trkpt lat="44.92503" lon="6.72203">
        <ele>1916.9</ele>
        <time>2025-01-25T09:55:32Z</time>
      </trkpt>
      <trkpt lat="44.92503" lon="6.72203">
        <ele>1916.9</ele>
        <time>2025-01-25T09:55:44Z</time>
      </trkpt>
      <trkpt lat="44.92501" lon="6.72205">
        <ele>1917.2</ele>
        <time>2025-01-25T09:55:50Z</time>
      </trkpt>
      <trkpt lat="44.925" lon="6.72205">
        <ele>1917.4</ele>
        <time>2025-01-25T09:55:52Z</time>
      </trkpt>
      <trkpt lat="44.92499" lon="6.72207">
        <ele>1917.7</ele>
        <time>2025-01-25T09:55:54Z</time>
      </trkpt>
      <trkpt lat="44.92496" lon="6.7221">
        <ele>1918.3</ele>
        <time>2025-01-25T09:55:57Z</time>
      </trkpt>
      <trkpt lat="44.92493" lon="6.72211">
        <ele>1918.9</ele>
        <time>2025-01-25T09:56:01Z</time>
      </trkpt>
      <trkpt lat="44.92491" lon="6.72213">
        <ele>1919.5</ele>
        <time>2025-01-25T09:56:05Z</time>
      </trkpt>
      <trkpt lat="44.92489" lon="6.72216">
        <ele>1920.1</ele>
        <time>2025-01-25T09:56:10Z</time>
      </trkpt>
      <trkpt lat="44.92486" lon="6.72218">
        <ele>1920.8</ele>
        <time>2025-01-25T09:56:14Z</time>
      </trkpt>
      <trkpt lat="44.92484" lon="6.72219">
        <ele>1921.3</ele>
        <time>2025-01-25T09:56:17Z</time>
      </trkpt>
      <trkpt lat="44.92484" lon="6.72219">
        <ele>1921.4</ele>
        <time>2025-01-25T09:56:18Z</time>
      </trkpt>
      <trkpt lat="44.92483" lon="6.72219">
        <ele>1921.7</ele>
        <time>2025-01-25T09:56:20Z</time>
      </trkpt>
      <trkpt lat="44.92482" lon="6.72222">
        <ele>1922.2</ele>
        <time>2025-01-25T09:56:22Z</time>
      </trkpt>
      <trkpt lat="44.9248" lon="6.72224">
        <ele>1922.9</ele>
        <time>2025-01-25T09:56:25Z</time>
      </trkpt>
      <trkpt lat="44.92479" lon="6.72224">
        <ele>1923.2</ele>
        <time>2025-01-25T09:56:26Z</time>
      </trkpt>
      <trkpt lat="44.92477" lon="6.72226">
        <ele>1923.8</ele>
        <time>2025-01-25T09:56:29Z</time>
      </trkpt>
      <trkpt lat="44.92476" lon="6.72225">
        <ele>1924</ele>
        <time>2025-01-25T09:56:30Z</time>
      </trkpt>
      <trkpt lat="44.92473" lon="6.72228">
        <ele>1925</ele>
        <time>2025-01-25T09:56:34Z</time>
      </trkpt>
      <trkpt lat="44.92473" lon="6.7223">
        <ele>1925.5</ele>
        <time>2025-01-25T09:56:39Z</time>
      </trkpt>
      <trkpt lat="44.92473" lon="6.7223">
        <ele>1925.6</ele>
        <time>2025-01-25T09:56:44Z</time>
      </trkpt>
      <trkpt lat="44.92472" lon="6.7223">
        <ele>1925.7</ele>
        <time>2025-01-25T09:56:48Z</time>
      </trkpt>
      <trkpt lat="44.92472" lon="6.7223">
        <ele>1925.7</ele>
        <time>2025-01-25T09:56:54Z</time>
      </trkpt>
      <trkpt lat="44.92472" lon="6.7223">
        <ele>1925.7</ele>
        <time>2025-01-25T09:57:00Z</time>
      </trkpt>
      <trkpt lat="44.92472" lon="6.7223">
        <ele>1925.7</ele>
        <time>2025-01-25T09:57:08Z</time>
      </trkpt>
      <trkpt lat="44.92473" lon="6.7223">
        <ele>1925.8</ele>
        <time>2025-01-25T09:57:16Z</time>
      </trkpt>
      <trkpt lat="44.92472" lon="6.72229">
        <ele>1926</ele>
        <time>2025-01-25T09:57:24Z</time>
      </trkpt>
      <trkpt lat="44.92469" lon="6.72231">
        <ele>1926.8</ele>
        <time>2025-01-25T09:57:28Z</time>
      </trkpt>
      <trkpt lat="44.92468" lon="6.72232">
        <ele>1927.1</ele>
        <time>2025-01-25T09:57:32Z</time>
      </trkpt>
      <trkpt lat="44.92467" lon="6.72233">
        <ele>1927.6</ele>
        <time>2025-01-25T09:57:36Z</time>
      </trkpt>
      <trkpt lat="44.92465" lon="6.72234">
        <ele>1928.2</ele>
        <time>2025-01-25T09:57:37Z</time>
      </trkpt>
      <trkpt lat="44.92463" lon="6.72236">
        <ele>1928.9</ele>
        <time>2025-01-25T09:57:39Z</time>
      </trkpt>
      <trkpt lat="44.92461" lon="6.72238">
        <ele>1929.7</ele>
        <time>2025-01-25T09:57:42Z</time>
      </trkpt>
      <trkpt lat="44.9246" lon="6.72238">
        <ele>1930</ele>
        <time>2025-01-25T09:57:43Z</time>
      </trkpt>
      <trkpt lat="44.92458" lon="6.7224">
        <ele>1930.6</ele>
        <time>2025-01-25T09:57:46Z</time>
      </trkpt>
      <trkpt lat="44.92458" lon="6.7224">
        <ele>1930.7</ele>
        <time>2025-01-25T09:57:47Z</time>
      </trkpt>
      <trkpt lat="44.92458" lon="6.72242">
        <ele>1931.2</ele>
        <time>2025-01-25T09:57:52Z</time>
      </trkpt>
      <trkpt lat="44.92456" lon="6.72245">
        <ele>1932.1</ele>
        <time>2025-01-25T09:57:58Z</time>
      </trkpt>
      <trkpt lat="44.92454" lon="6.72247">
        <ele>1932.8</ele>
        <time>2025-01-25T09:58:02Z</time>
      </trkpt>
      <trkpt lat="44.92452" lon="6.72248">
        <ele>1933.4</ele>
        <time>2025-01-25T09:58:03Z</time>
      </trkpt>
      <trkpt lat="44.9245" lon="6.72248">
        <ele>1934.2</ele>
        <time>2025-01-25T09:58:06Z</time>
      </trkpt>
      <trkpt lat="44.9245" lon="6.72249">
        <ele>1934.5</ele>
        <time>2025-01-25T09:58:09Z</time>
      </trkpt>
      <trkpt lat="44.92448" lon="6.72249">
        <ele>1934.9</ele>
        <time>2025-01-25T09:58:13Z</time>
      </trkpt>
      <trkpt lat="44.92448" lon="6.72251">
        <ele>1935.4</ele>
        <time>2025-01-25T09:58:14Z</time>
      </trkpt>
      <trkpt lat="44.92446" lon="6.72251">
        <ele>1935.8</ele>
        <time>2025-01-25T09:58:16Z</time>
      </trkpt>
      <trkpt lat="44.92446" lon="6.72251">
        <ele>1936</ele>
        <time>2025-01-25T09:58:21Z</time>
      </trkpt>
      <trkpt lat="44.92445" lon="6.72252">
        <ele>1936.4</ele>
        <time>2025-01-25T09:58:32Z</time>
      </trkpt>
      <trkpt lat="44.92443" lon="6.72254">
        <ele>1937.1</ele>
        <time>2025-01-25T09:58:35Z</time>
      </trkpt>
      <trkpt lat="44.92442" lon="6.72256">
        <ele>1937.6</ele>
        <time>2025-01-25T09:58:36Z</time>
      </trkpt>
      <trkpt lat="44.92441" lon="6.72256">
        <ele>1937.8</ele>
        <time>2025-01-25T09:58:38Z</time>
      </trkpt>
      <trkpt lat="44.92437" lon="6.72259">
        <ele>1939.2</ele>
        <time>2025-01-25T09:58:43Z</time>
      </trkpt>
      <trkpt lat="44.92435" lon="6.72258">
        <ele>1939.7</ele>
        <time>2025-01-25T09:58:44Z</time>
      </trkpt>
      <trkpt lat="44.92434" lon="6.7226">
        <ele>1940.2</ele>
        <time>2025-01-25T09:58:46Z</time>
      </trkpt>
      <trkpt lat="44.92434" lon="6.72262">
        <ele>1940.5</ele>
        <time>2025-01-25T09:58:49Z</time>
      </trkpt>
      <trkpt lat="44.92433" lon="6.72261">
        <ele>1940.8</ele>
        <time>2025-01-25T09:58:50Z</time>
      </trkpt>
      <trkpt lat="44.9243" lon="6.72263">
        <ele>1941.6</ele>
        <time>2025-01-25T09:58:54Z</time>
      </trkpt>
      <trkpt lat="44.92429" lon="6.72262">
        <ele>1941.9</ele>
        <time>2025-01-25T09:58:57Z</time>
      </trkpt>
      <trkpt lat="44.92429" lon="6.72263">
        <ele>1942.1</ele>
        <time>2025-01-25T09:58:58Z</time>
      </trkpt>
      <trkpt lat="44.92429" lon="6.72266">
        <ele>1942.6</ele>
        <time>2025-01-25T09:59:04Z</time>
      </trkpt>
      <trkpt lat="44.92429" lon="6.72266">
        <ele>1942.6</ele>
        <time>2025-01-25T09:59:14Z</time>
      </trkpt>
      <trkpt lat="44.92428" lon="6.72267">
        <ele>1942.8</ele>
        <time>2025-01-25T09:59:19Z</time>
      </trkpt>
      <trkpt lat="44.92425" lon="6.72271">
        <ele>1943.8</ele>
        <time>2025-01-25T09:59:23Z</time>
      </trkpt>
      <trkpt lat="44.92422" lon="6.72272">
        <ele>1944.6</ele>
        <time>2025-01-25T09:59:25Z</time>
      </trkpt>
      <trkpt lat="44.92422" lon="6.72272">
        <ele>1944.7</ele>
        <time>2025-01-25T09:59:26Z</time>
      </trkpt>
      <trkpt lat="44.9242" lon="6.72274">
        <ele>1945.3</ele>
        <time>2025-01-25T09:59:30Z</time>
      </trkpt>
      <trkpt lat="44.92419" lon="6.72277">
        <ele>1946</ele>
        <time>2025-01-25T09:59:34Z</time>
      </trkpt>
      <trkpt lat="44.92415" lon="6.7228">
        <ele>1946.9</ele>
        <time>2025-01-25T09:59:38Z</time>
      </trkpt>
      <trkpt lat="44.92413" lon="6.7228">
        <ele>1947.3</ele>
        <time>2025-01-25T09:59:41Z</time>
      </trkpt>
      <trkpt lat="44.92411" lon="6.72283">
        <ele>1948</ele>
        <time>2025-01-25T09:59:46Z</time>
      </trkpt>
      <trkpt lat="44.9241" lon="6.72284">
        <ele>1948.3</ele>
        <time>2025-01-25T09:59:50Z</time>
      </trkpt>
      <trkpt lat="44.92407" lon="6.72285">
        <ele>1948.9</ele>
        <time>2025-01-25T09:59:54Z</time>
      </trkpt>
      <trkpt lat="44.92405" lon="6.72286">
        <ele>1949.3</ele>
        <time>2025-01-25T09:59:58Z</time>
      </trkpt>
      <trkpt lat="44.92404" lon="6.72289">
        <ele>1949.9</ele>
        <time>2025-01-25T10:00:02Z</time>
      </trkpt>
      <trkpt lat="44.92402" lon="6.7229">
        <ele>1950.3</ele>
        <time>2025-01-25T10:00:06Z</time>
      </trkpt>
      <trkpt lat="44.92402" lon="6.7229">
        <ele>1950.3</ele>
        <time>2025-01-25T10:00:18Z</time>
      </trkpt>
      <trkpt lat="44.924" lon="6.72292">
        <ele>1950.8</ele>
        <time>2025-01-25T10:00:23Z</time>
      </trkpt>
      <trkpt lat="44.92398" lon="6.72298">
        <ele>1951.9</ele>
        <time>2025-01-25T10:00:28Z</time>
      </trkpt>
      <trkpt lat="44.92398" lon="6.72298">
        <ele>1951.9</ele>
        <time>2025-01-25T10:00:32Z</time>
      </trkpt>
      <trkpt lat="44.92398" lon="6.72298">
        <ele>1951.9</ele>
        <time>2025-01-25T10:00:43Z</time>
      </trkpt>
      <trkpt lat="44.92398" lon="6.72298">
        <ele>1951.9</ele>
        <time>2025-01-25T10:00:52Z</time>
      </trkpt>
      <trkpt lat="44.92398" lon="6.72298">
        <ele>1951.9</ele>
        <time>2025-01-25T10:01:00Z</time>
      </trkpt>
      <trkpt lat="44.92398" lon="6.72298">
        <ele>1951.9</ele>
        <time>2025-01-25T10:01:13Z</time>
      </trkpt>
      <trkpt lat="44.92398" lon="6.72298">
        <ele>1951.9</ele>
        <time>2025-01-25T10:01:20Z</time>
      </trkpt>
      <trkpt lat="44.92398" lon="6.72298">
        <ele>1951.9</ele>
        <time>2025-01-25T10:01:34Z</time>
      </trkpt>
      <trkpt lat="44.92398" lon="6.72298">
        <ele>1951.9</ele>
        <time>2025-01-25T10:01:49Z</time>
      </trkpt>
      <trkpt lat="44.92398" lon="6.72298">
        <ele>1951.9</ele>
        <time>2025-01-25T10:01:58Z</time>
      </trkpt>
      <trkpt lat="44.92398" lon="6.72298">
        <ele>1951.9</ele>
        <time>2025-01-25T10:02:10Z</time>
      </trkpt>
      <trkpt lat="44.92398" lon="6.72298">
        <ele>1951.9</ele>
        <time>2025-01-25T10:02:22Z</time>
      </trkpt>
      <trkpt lat="44.92398" lon="6.72298">
        <ele>1951.9</ele>
        <time>2025-01-25T10:02:40Z</time>
      </trkpt>
      <trkpt lat="44.92398" lon="6.72298">
        <ele>1951.9</ele>
        <time>2025-01-25T10:02:55Z</time>
      </trkpt>
      <trkpt lat="44.92398" lon="6.72298">
        <ele>1951.9</ele>
        <time>2025-01-25T10:03:05Z</time>
      </trkpt>
      <trkpt lat="44.92398" lon="6.72298">
        <ele>1951.9</ele>
        <time>2025-01-25T10:03:14Z</time>
      </trkpt>
      <trkpt lat="44.92398" lon="6.72298">
        <ele>1951.9</ele>
        <time>2025-01-25T10:03:27Z</time>
      </trkpt>
      <trkpt lat="44.92398" lon="6.72298">
        <ele>1951.9</ele>
        <time>2025-01-25T10:03:38Z</time>
      </trkpt>
      <trkpt lat="44.92398" lon="6.72298">
        <ele>1951.9</ele>
        <time>2025-01-25T10:03:49Z</time>
      </trkpt>
      <trkpt lat="44.92398" lon="6.72298">
        <ele>1951.9</ele>
        <time>2025-01-25T10:03:59Z</time>
      </trkpt>
      <trkpt lat="44.92398" lon="6.72298">
        <ele>1951.9</ele>
        <time>2025-01-25T10:04:09Z</time>
      </trkpt>
      <trkpt lat="44.92398" lon="6.72298">
        <ele>1951.9</ele>
        <time>2025-01-25T10:04:17Z</time>
      </trkpt>
      <trkpt lat="44.92398" lon="6.72298">
        <ele>1951.9</ele>
        <time>2025-01-25T10:04:23Z</time>
      </trkpt>
      <trkpt lat="44.92398" lon="6.72298">
        <ele>1951.9</ele>
        <time>2025-01-25T10:04:30Z</time>
      </trkpt>
      <trkpt lat="44.92398" lon="6.72298">
        <ele>1951.9</ele>
        <time>2025-01-25T10:04:42Z</time>
      </trkpt>
      <trkpt lat="44.92398" lon="6.72298">
        <ele>1951.9</ele>
        <time>2025-01-25T10:04:48Z</time>
      </trkpt>
      <trkpt lat="44.92398" lon="6.72298">
        <ele>1951.9</ele>
        <time>2025-01-25T10:04:59Z</time>
      </trkpt>
      <trkpt lat="44.92398" lon="6.72298">
        <ele>1951.9</ele>
        <time>2025-01-25T10:05:05Z</time>
      </trkpt>
      <trkpt lat="44.92398" lon="6.72298">
        <ele>1951.9</ele>
        <time>2025-01-25T10:05:09Z</time>
      </trkpt>
      <trkpt lat="44.92393" lon="6.72293">
        <ele>1953.3</ele>
        <time>2025-01-25T10:05:14Z</time>
      </trkpt>
      <trkpt lat="44.92393" lon="6.72293">
        <ele>1953.3</ele>
        <time>2025-01-25T10:05:19Z</time>
      </trkpt>
      <trkpt lat="44.92393" lon="6.72293">
        <ele>1953.3</ele>
        <time>2025-01-25T10:05:24Z</time>
      </trkpt>
      <trkpt lat="44.92377" lon="6.72315">
        <ele>1958.9</ele>
        <time>2025-01-25T10:05:28Z</time>
      </trkpt>
      <trkpt lat="44.92376" lon="6.72317">
        <ele>1959.3</ele>
        <time>2025-01-25T10:05:33Z</time>
      </trkpt>
      <trkpt lat="44.92376" lon="6.72317">
        <ele>1959.3</ele>
        <time>2025-01-25T10:05:42Z</time>
      </trkpt>
      <trkpt lat="44.92371" lon="6.72323">
        <ele>1960.8</ele>
        <time>2025-01-25T10:05:49Z</time>
      </trkpt>
      <trkpt lat="44.92366" lon="6.72329">
        <ele>1962.1</ele>
        <time>2025-01-25T10:05:54Z</time>
      </trkpt>
      <trkpt lat="44.92362" lon="6.72333">
        <ele>1963.1</ele>
        <time>2025-01-25T10:06:00Z</time>
      </trkpt>
      <trkpt lat="44.92357" lon="6.72338">
        <ele>1964.5</ele>
        <time>2025-01-25T10:06:06Z</time>
      </trkpt>
      <trkpt lat="44.92353" lon="6.72343">
        <ele>1965.7</ele>
        <time>2025-01-25T10:06:12Z</time>
      </trkpt>
      <trkpt lat="44.92347" lon="6.72341">
        <ele>1967</ele>
        <time>2025-01-25T10:06:19Z</time>
      </trkpt>
      <trkpt lat="44.92342" lon="6.72345">
        <ele>1968.2</ele>
        <time>2025-01-25T10:06:25Z</time>
      </trkpt>
      <trkpt lat="44.92341" lon="6.7235">
        <ele>1969</ele>
        <time>2025-01-25T10:06:30Z</time>
      </trkpt>
      <trkpt lat="44.92337" lon="6.72353">
        <ele>1969.8</ele>
        <time>2025-01-25T10:06:35Z</time>
      </trkpt>
      <trkpt lat="44.92334" lon="6.72356">
        <ele>1970.7</ele>
        <time>2025-01-25T10:06:42Z</time>
      </trkpt>
      <trkpt lat="44.9233" lon="6.72359">
        <ele>1971.6</ele>
        <time>2025-01-25T10:06:46Z</time>
      </trkpt>
      <trkpt lat="44.92327" lon="6.72361">
        <ele>1972.3</ele>
        <time>2025-01-25T10:06:54Z</time>
      </trkpt>
      <trkpt lat="44.92327" lon="6.72361">
        <ele>1972.3</ele>
        <time>2025-01-25T10:07:01Z</time>
      </trkpt>
      <trkpt lat="44.92322" lon="6.72365">
        <ele>1973.4</ele>
        <time>2025-01-25T10:07:09Z</time>
      </trkpt>
      <trkpt lat="44.92313" lon="6.72373">
        <ele>1975.2</ele>
        <time>2025-01-25T10:07:15Z</time>
      </trkpt>
      <trkpt lat="44.9231" lon="6.72378">
        <ele>1976.1</ele>
        <time>2025-01-25T10:07:21Z</time>
      </trkpt>
      <trkpt lat="44.92305" lon="6.72383">
        <ele>1977</ele>
        <time>2025-01-25T10:07:27Z</time>
      </trkpt>
      <trkpt lat="44.92303" lon="6.72385">
        <ele>1977.6</ele>
        <time>2025-01-25T10:07:33Z</time>
      </trkpt>
      <trkpt lat="44.92303" lon="6.72385">
        <ele>1977.6</ele>
        <time>2025-01-25T10:07:38Z</time>
      </trkpt>
      <trkpt lat="44.92298" lon="6.72391">
        <ele>1978.7</ele>
        <time>2025-01-25T10:07:45Z</time>
      </trkpt>
      <trkpt lat="44.92294" lon="6.72394">
        <ele>1979.6</ele>
        <time>2025-01-25T10:07:49Z</time>
      </trkpt>
      <trkpt lat="44.92288" lon="6.72401">
        <ele>1981.3</ele>
        <time>2025-01-25T10:07:56Z</time>
      </trkpt>
      <trkpt lat="44.92284" lon="6.72402">
        <ele>1982.1</ele>
        <time>2025-01-25T10:08:01Z</time>
      </trkpt>
      <trkpt lat="44.92281" lon="6.72406">
        <ele>1983.1</ele>
        <time>2025-01-25T10:08:07Z</time>
      </trkpt>
      <trkpt lat="44.92276" lon="6.72412">
        <ele>1984.4</ele>
        <time>2025-01-25T10:08:14Z</time>
      </trkpt>
      <trkpt lat="44.92273" lon="6.72414">
        <ele>1985.1</ele>
        <time>2025-01-25T10:08:19Z</time>
      </trkpt>
      <trkpt lat="44.92271" lon="6.72416">
        <ele>1985.8</ele>
        <time>2025-01-25T10:08:30Z</time>
      </trkpt>
      <trkpt lat="44.92267" lon="6.7242">
        <ele>1986.9</ele>
        <time>2025-01-25T10:08:35Z</time>
      </trkpt>
      <trkpt lat="44.92263" lon="6.72425">
        <ele>1987.9</ele>
        <time>2025-01-25T10:08:41Z</time>
      </trkpt>
      <trkpt lat="44.92261" lon="6.72425">
        <ele>1988.4</ele>
        <time>2025-01-25T10:08:45Z</time>
      </trkpt>
      <trkpt lat="44.92257" lon="6.72427">
        <ele>1989.3</ele>
        <time>2025-01-25T10:08:49Z</time>
      </trkpt>
      <trkpt lat="44.92251" lon="6.72432">
        <ele>1990.8</ele>
        <time>2025-01-25T10:08:56Z</time>
      </trkpt>
      <trkpt lat="44.92247" lon="6.72435">
        <ele>1991.6</ele>
        <time>2025-01-25T10:09:03Z</time>
      </trkpt>
      <trkpt lat="44.92242" lon="6.72438">
        <ele>1992.7</ele>
        <time>2025-01-25T10:09:09Z</time>
      </trkpt>
      <trkpt lat="44.92239" lon="6.7244">
        <ele>1993.5</ele>
        <time>2025-01-25T10:09:13Z</time>
      </trkpt>
      <trkpt lat="44.92236" lon="6.72443">
        <ele>1994.3</ele>
        <time>2025-01-25T10:09:18Z</time>
      </trkpt>
      <trkpt lat="44.92232" lon="6.72446">
        <ele>1995</ele>
        <time>2025-01-25T10:09:23Z</time>
      </trkpt>
      <trkpt lat="44.9223" lon="6.72448">
        <ele>1995.4</ele>
        <time>2025-01-25T10:09:30Z</time>
      </trkpt>
      <trkpt lat="44.92227" lon="6.72453">
        <ele>1996.4</ele>
        <time>2025-01-25T10:09:37Z</time>
      </trkpt>
      <trkpt lat="44.92222" lon="6.72456">
        <ele>1997.4</ele>
        <time>2025-01-25T10:09:42Z</time>
      </trkpt>
      <trkpt lat="44.92221" lon="6.72457">
        <ele>1997.7</ele>
        <time>2025-01-25T10:09:48Z</time>
      </trkpt>
      <trkpt lat="44.92218" lon="6.7246">
        <ele>1998.5</ele>
        <time>2025-01-25T10:09:53Z</time>
      </trkpt>
      <trkpt lat="44.92213" lon="6.72463">
        <ele>1999.5</ele>
        <time>2025-01-25T10:09:58Z</time>
      </trkpt>
      <trkpt lat="44.92209" lon="6.72466">
        <ele>2000.6</ele>
        <time>2025-01-25T10:10:04Z</time>
      </trkpt>
      <trkpt lat="44.92207" lon="6.72468">
        <ele>2001</ele>
        <time>2025-01-25T10:10:11Z</time>
      </trkpt>
      <trkpt lat="44.92206" lon="6.72473">
        <ele>2001.8</ele>
        <time>2025-01-25T10:10:13Z</time>
      </trkpt>
      <trkpt lat="44.92204" lon="6.72477">
        <ele>2002.5</ele>
        <time>2025-01-25T10:10:16Z</time>
      </trkpt>
      <trkpt lat="44.922" lon="6.72478">
        <ele>2003.4</ele>
        <time>2025-01-25T10:10:21Z</time>
      </trkpt>
      <trkpt lat="44.92197" lon="6.72479">
        <ele>2004</ele>
        <time>2025-01-25T10:10:26Z</time>
      </trkpt>
      <trkpt lat="44.92193" lon="6.72486">
        <ele>2005.3</ele>
        <time>2025-01-25T10:10:33Z</time>
      </trkpt>
      <trkpt lat="44.92187" lon="6.72487">
        <ele>2006.4</ele>
        <time>2025-01-25T10:10:39Z</time>
      </trkpt>
      <trkpt lat="44.92183" lon="6.72487">
        <ele>2007</ele>
        <time>2025-01-25T10:10:44Z</time>
      </trkpt>
      <trkpt lat="44.92181" lon="6.7249">
        <ele>2007.4</ele>
        <time>2025-01-25T10:10:48Z</time>
      </trkpt>
      <trkpt lat="44.92178" lon="6.72495">
        <ele>2008.2</ele>
        <time>2025-01-25T10:10:53Z</time>
      </trkpt>
      <trkpt lat="44.92172" lon="6.72502">
        <ele>2009.5</ele>
        <time>2025-01-25T10:10:59Z</time>
      </trkpt>
      <trkpt lat="44.92169" lon="6.72506">
        <ele>2010.2</ele>
        <time>2025-01-25T10:11:04Z</time>
      </trkpt>
      <trkpt lat="44.92164" lon="6.72509">
        <ele>2010.9</ele>
        <time>2025-01-25T10:11:10Z</time>
      </trkpt>
      <trkpt lat="44.92159" lon="6.72513">
        <ele>2011.8</ele>
        <time>2025-01-25T10:11:15Z</time>
      </trkpt>
      <trkpt lat="44.92153" lon="6.72516">
        <ele>2012.7</ele>
        <time>2025-01-25T10:11:21Z</time>
      </trkpt>
      <trkpt lat="44.9215" lon="6.7252">
        <ele>2013.2</ele>
        <time>2025-01-25T10:11:26Z</time>
      </trkpt>
      <trkpt lat="44.92148" lon="6.72521">
        <ele>2013.5</ele>
        <time>2025-01-25T10:11:30Z</time>
      </trkpt>
      <trkpt lat="44.92145" lon="6.72523">
        <ele>2013.9</ele>
        <time>2025-01-25T10:11:35Z</time>
      </trkpt>
      <trkpt lat="44.9214" lon="6.72528">
        <ele>2014.7</ele>
        <time>2025-01-25T10:11:40Z</time>
      </trkpt>
      <trkpt lat="44.92137" lon="6.72532">
        <ele>2015.3</ele>
        <time>2025-01-25T10:11:45Z</time>
      </trkpt>
      <trkpt lat="44.92132" lon="6.72534">
        <ele>2015.9</ele>
        <time>2025-01-25T10:11:51Z</time>
      </trkpt>
      <trkpt lat="44.92129" lon="6.72537">
        <ele>2016.4</ele>
        <time>2025-01-25T10:11:56Z</time>
      </trkpt>
      <trkpt lat="44.92124" lon="6.72543">
        <ele>2017.1</ele>
        <time>2025-01-25T10:12:02Z</time>
      </trkpt>
      <trkpt lat="44.9212" lon="6.72547">
        <ele>2017.6</ele>
        <time>2025-01-25T10:12:07Z</time>
      </trkpt>
      <trkpt lat="44.92117" lon="6.7255">
        <ele>2017.9</ele>
        <time>2025-01-25T10:12:12Z</time>
      </trkpt>
      <trkpt lat="44.92114" lon="6.72552">
        <ele>2018.2</ele>
        <time>2025-01-25T10:12:17Z</time>
      </trkpt>
      <trkpt lat="44.92111" lon="6.72558">
        <ele>2018.5</ele>
        <time>2025-01-25T10:12:24Z</time>
      </trkpt>
      <trkpt lat="44.9211" lon="6.72561">
        <ele>2018.5</ele>
        <time>2025-01-25T10:12:30Z</time>
      </trkpt>
      <trkpt lat="44.9211" lon="6.72561">
        <ele>2018.4</ele>
        <time>2025-01-25T10:12:50Z</time>
      </trkpt>
      <trkpt lat="44.9211" lon="6.72561">
        <ele>2018.4</ele>
        <time>2025-01-25T10:13:09Z</time>
      </trkpt>
      <trkpt lat="44.92109" lon="6.7256">
        <ele>2018.4</ele>
        <time>2025-01-25T10:13:20Z</time>
      </trkpt>
      <trkpt lat="44.92109" lon="6.7256">
        <ele>2018.3</ele>
        <time>2025-01-25T10:13:30Z</time>
      </trkpt>
      <trkpt lat="44.92109" lon="6.7256">
        <ele>2018.3</ele>
        <time>2025-01-25T10:13:38Z</time>
      </trkpt>
      <trkpt lat="44.92103" lon="6.72569">
        <ele>2018.8</ele>
        <time>2025-01-25T10:13:45Z</time>
      </trkpt>
      <trkpt lat="44.92094" lon="6.72579">
        <ele>2019.5</ele>
        <time>2025-01-25T10:13:51Z</time>
      </trkpt>
      <trkpt lat="44.92094" lon="6.72581">
        <ele>2019.6</ele>
        <time>2025-01-25T10:13:56Z</time>
      </trkpt>
      <trkpt lat="44.92094" lon="6.72582">
        <ele>2019.6</ele>
        <time>2025-01-25T10:14:02Z</time>
      </trkpt>
      <trkpt lat="44.92075" lon="6.72588">
        <ele>2021.2</ele>
        <time>2025-01-25T10:14:06Z</time>
      </trkpt>
      <trkpt lat="44.92075" lon="6.72589">
        <ele>2021.2</ele>
        <time>2025-01-25T10:14:11Z</time>
      </trkpt>
      <trkpt lat="44.92075" lon="6.7259">
        <ele>2021.2</ele>
        <time>2025-01-25T10:14:15Z</time>
      </trkpt>
      <trkpt lat="44.92075" lon="6.72591">
        <ele>2021.2</ele>
        <time>2025-01-25T10:14:21Z</time>
      </trkpt>
      <trkpt lat="44.92075" lon="6.72591">
        <ele>2021.2</ele>
        <time>2025-01-25T10:14:26Z</time>
      </trkpt>
      <trkpt lat="44.92075" lon="6.72592">
        <ele>2021.2</ele>
        <time>2025-01-25T10:14:30Z</time>
      </trkpt>
      <trkpt lat="44.92075" lon="6.72593">
        <ele>2021.3</ele>
        <time>2025-01-25T10:14:36Z</time>
      </trkpt>
      <trkpt lat="44.92075" lon="6.726">
        <ele>2021.4</ele>
        <time>2025-01-25T10:14:41Z</time>
      </trkpt>
      <trkpt lat="44.92075" lon="6.72602">
        <ele>2021.5</ele>
        <time>2025-01-25T10:14:46Z</time>
      </trkpt>
      <trkpt lat="44.9205" lon="6.72609">
        <ele>2023.4</ele>
        <time>2025-01-25T10:14:52Z</time>
      </trkpt>
      <trkpt lat="44.92043" lon="6.72605">
        <ele>2024.2</ele>
        <time>2025-01-25T10:14:57Z</time>
      </trkpt>
      <trkpt lat="44.92043" lon="6.72605">
        <ele>2024.2</ele>
        <time>2025-01-25T10:15:02Z</time>
      </trkpt>
      <trkpt lat="44.92043" lon="6.72605">
        <ele>2024.2</ele>
        <time>2025-01-25T10:15:08Z</time>
      </trkpt>
      <trkpt lat="44.92043" lon="6.72605">
        <ele>2024.2</ele>
        <time>2025-01-25T10:15:13Z</time>
      </trkpt>
      <trkpt lat="44.92043" lon="6.72605">
        <ele>2024.2</ele>
        <time>2025-01-25T10:15:19Z</time>
      </trkpt>
      <trkpt lat="44.92028" lon="6.72619">
        <ele>2026.5</ele>
        <time>2025-01-25T10:15:24Z</time>
      </trkpt>
      <trkpt lat="44.92026" lon="6.72621">
        <ele>2026.8</ele>
        <time>2025-01-25T10:15:29Z</time>
      </trkpt>
      <trkpt lat="44.92026" lon="6.72621">
        <ele>2026.8</ele>
        <time>2025-01-25T10:15:34Z</time>
      </trkpt>
      <trkpt lat="44.92026" lon="6.72621">
        <ele>2026.8</ele>
        <time>2025-01-25T10:15:38Z</time>
      </trkpt>
      <trkpt lat="44.92026" lon="6.72621">
        <ele>2026.8</ele>
        <time>2025-01-25T10:15:43Z</time>
      </trkpt>
      <trkpt lat="44.92013" lon="6.72632">
        <ele>2028.9</ele>
        <time>2025-01-25T10:15:48Z</time>
      </trkpt>
      <trkpt lat="44.92013" lon="6.72632">
        <ele>2029</ele>
        <time>2025-01-25T10:15:53Z</time>
      </trkpt>
      <trkpt lat="44.92013" lon="6.72632">
        <ele>2029</ele>
        <time>2025-01-25T10:15:59Z</time>
      </trkpt>
      <trkpt lat="44.92013" lon="6.72632">
        <ele>2029</ele>
        <time>2025-01-25T10:16:04Z</time>
      </trkpt>
      <trkpt lat="44.92001" lon="6.72643">
        <ele>2031.2</ele>
        <time>2025-01-25T10:16:08Z</time>
      </trkpt>
      <trkpt lat="44.92001" lon="6.72643">
        <ele>2031.2</ele>
        <time>2025-01-25T10:16:14Z</time>
      </trkpt>
      <trkpt lat="44.92001" lon="6.72643">
        <ele>2031.2</ele>
        <time>2025-01-25T10:16:19Z</time>
      </trkpt>
      <trkpt lat="44.92001" lon="6.72643">
        <ele>2031.2</ele>
        <time>2025-01-25T10:16:27Z</time>
      </trkpt>
      <trkpt lat="44.91995" lon="6.72651">
        <ele>2032.4</ele>
        <time>2025-01-25T10:16:31Z</time>
      </trkpt>
      <trkpt lat="44.91993" lon="6.7265">
        <ele>2032.9</ele>
        <time>2025-01-25T10:16:36Z</time>
      </trkpt>
      <trkpt lat="44.91989" lon="6.72653">
        <ele>2033.5</ele>
        <time>2025-01-25T10:16:42Z</time>
      </trkpt>
      <trkpt lat="44.91989" lon="6.72653">
        <ele>2033.5</ele>
        <time>2025-01-25T10:16:48Z</time>
      </trkpt>
      <trkpt lat="44.91989" lon="6.72653">
        <ele>2033.5</ele>
        <time>2025-01-25T10:16:54Z</time>
      </trkpt>
      <trkpt lat="44.91989" lon="6.72653">
        <ele>2033.5</ele>
        <time>2025-01-25T10:17:00Z</time>
      </trkpt>
      <trkpt lat="44.91973" lon="6.72668">
        <ele>2036.3</ele>
        <time>2025-01-25T10:17:05Z</time>
      </trkpt>
      <trkpt lat="44.91973" lon="6.72673">
        <ele>2036.8</ele>
        <time>2025-01-25T10:17:10Z</time>
      </trkpt>
      <trkpt lat="44.91971" lon="6.72677">
        <ele>2037.3</ele>
        <time>2025-01-25T10:17:17Z</time>
      </trkpt>
      <trkpt lat="44.91964" lon="6.72681">
        <ele>2038.2</ele>
        <time>2025-01-25T10:17:24Z</time>
      </trkpt>
      <trkpt lat="44.9196" lon="6.72679">
        <ele>2038.7</ele>
        <time>2025-01-25T10:17:31Z</time>
      </trkpt>
      <trkpt lat="44.91957" lon="6.72682">
        <ele>2039.1</ele>
        <time>2025-01-25T10:17:36Z</time>
      </trkpt>
      <trkpt lat="44.91957" lon="6.72682">
        <ele>2039.2</ele>
        <time>2025-01-25T10:17:41Z</time>
      </trkpt>
      <trkpt lat="44.91957" lon="6.72682">
        <ele>2039.2</ele>
        <time>2025-01-25T10:17:47Z</time>
      </trkpt>
      <trkpt lat="44.91957" lon="6.72682">
        <ele>2039.2</ele>
        <time>2025-01-25T10:17:53Z</time>
      </trkpt>
      <trkpt lat="44.91949" lon="6.72689">
        <ele>2040.4</ele>
        <time>2025-01-25T10:17:59Z</time>
      </trkpt>
      <trkpt lat="44.91945" lon="6.72693">
        <ele>2040.9</ele>
        <time>2025-01-25T10:18:04Z</time>
      </trkpt>
      <trkpt lat="44.91941" lon="6.72696">
        <ele>2041.5</ele>
        <time>2025-01-25T10:18:09Z</time>
      </trkpt>
      <trkpt lat="44.91938" lon="6.72699">
        <ele>2041.9</ele>
        <time>2025-01-25T10:18:14Z</time>
      </trkpt>
      <trkpt lat="44.91938" lon="6.72699">
        <ele>2041.9</ele>
        <time>2025-01-25T10:18:19Z</time>
      </trkpt>
      <trkpt lat="44.91932" lon="6.72706">
        <ele>2042.7</ele>
        <time>2025-01-25T10:18:27Z</time>
      </trkpt>
      <trkpt lat="44.91934" lon="6.72702">
        <ele>2043</ele>
        <time>2025-01-25T10:18:31Z</time>
      </trkpt>
      <trkpt lat="44.91934" lon="6.72702">
        <ele>2043</ele>
        <time>2025-01-25T10:18:36Z</time>
      </trkpt>
      <trkpt lat="44.91934" lon="6.72702">
        <ele>2043</ele>
        <time>2025-01-25T10:18:42Z</time>
      </trkpt>
      <trkpt lat="44.91925" lon="6.72728">
        <ele>2044.6</ele>
        <time>2025-01-25T10:18:47Z</time>
      </trkpt>
      <trkpt lat="44.91919" lon="6.72732">
        <ele>2045.2</ele>
        <time>2025-01-25T10:18:55Z</time>
      </trkpt>
      <trkpt lat="44.91917" lon="6.72734">
        <ele>2045.5</ele>
        <time>2025-01-25T10:19:02Z</time>
      </trkpt>
      <trkpt lat="44.91915" lon="6.72739">
        <ele>2045.8</ele>
        <time>2025-01-25T10:19:06Z</time>
      </trkpt>
      <trkpt lat="44.91913" lon="6.72743">
        <ele>2046.2</ele>
        <time>2025-01-25T10:19:10Z</time>
      </trkpt>
      <trkpt lat="44.9191" lon="6.72746">
        <ele>2046.6</ele>
        <time>2025-01-25T10:19:15Z</time>
      </trkpt>
      <trkpt lat="44.91913" lon="6.72755">
        <ele>2049.2</ele>
        <time>2025-01-25T10:19:20Z</time>
      </trkpt>
      <trkpt lat="44.91913" lon="6.72764">
        <ele>2052.4</ele>
        <time>2025-01-25T10:19:25Z</time>
      </trkpt>
      <trkpt lat="44.91912" lon="6.72774">
        <ele>2055.8</ele>
        <time>2025-01-25T10:19:31Z</time>
      </trkpt>
      <trkpt lat="44.91909" lon="6.72781">
        <ele>2059.7</ele>
        <time>2025-01-25T10:19:39Z</time>
      </trkpt>
      <trkpt lat="44.91905" lon="6.72778">
        <ele>2058.7</ele>
        <time>2025-01-25T10:19:43Z</time>
      </trkpt>
      <trkpt lat="44.91902" lon="6.72779">
        <ele>2059.1</ele>
        <time>2025-01-25T10:19:49Z</time>
      </trkpt>
      <trkpt lat="44.919" lon="6.72777">
        <ele>2059.2</ele>
        <time>2025-01-25T10:19:57Z</time>
      </trkpt>
      <trkpt lat="44.91895" lon="6.72775">
        <ele>2058.2</ele>
        <time>2025-01-25T10:20:02Z</time>
      </trkpt>
      <trkpt lat="44.91892" lon="6.72775">
        <ele>2058.6</ele>
        <time>2025-01-25T10:20:07Z</time>
      </trkpt>
      <trkpt lat="44.91889" lon="6.72772">
        <ele>2059.1</ele>
        <time>2025-01-25T10:20:13Z</time>
      </trkpt>
      <trkpt lat="44.91886" lon="6.72772">
        <ele>2059.5</ele>
        <time>2025-01-25T10:20:19Z</time>
      </trkpt>
      <trkpt lat="44.91881" lon="6.7277">
        <ele>2058.4</ele>
        <time>2025-01-25T10:20:27Z</time>
      </trkpt>
      <trkpt lat="44.91878" lon="6.72771">
        <ele>2060.4</ele>
        <time>2025-01-25T10:20:33Z</time>
      </trkpt>
      <trkpt lat="44.91875" lon="6.72771">
        <ele>2059.3</ele>
        <time>2025-01-25T10:20:39Z</time>
      </trkpt>
      <trkpt lat="44.9187" lon="6.72775">
        <ele>2061.5</ele>
        <time>2025-01-25T10:20:45Z</time>
      </trkpt>
      <trkpt lat="44.91866" lon="6.72776">
        <ele>2063.4</ele>
        <time>2025-01-25T10:20:51Z</time>
      </trkpt>
      <trkpt lat="44.91862" lon="6.72777">
        <ele>2064.2</ele>
        <time>2025-01-25T10:20:57Z</time>
      </trkpt>
      <trkpt lat="44.91859" lon="6.72779">
        <ele>2064.6</ele>
        <time>2025-01-25T10:21:02Z</time>
      </trkpt>
      <trkpt lat="44.91852" lon="6.72776">
        <ele>2065.4</ele>
        <time>2025-01-25T10:21:08Z</time>
      </trkpt>
      <trkpt lat="44.91847" lon="6.72783">
        <ele>2067.5</ele>
        <time>2025-01-25T10:21:14Z</time>
      </trkpt>
      <trkpt lat="44.91847" lon="6.72783">
        <ele>2067.6</ele>
        <time>2025-01-25T10:21:19Z</time>
      </trkpt>
      <trkpt lat="44.91843" lon="6.72793">
        <ele>2071.9</ele>
        <time>2025-01-25T10:21:26Z</time>
      </trkpt>
      <trkpt lat="44.91842" lon="6.72801">
        <ele>2073.3</ele>
        <time>2025-01-25T10:21:33Z</time>
      </trkpt>
      <trkpt lat="44.91842" lon="6.72803">
        <ele>2074.7</ele>
        <time>2025-01-25T10:21:40Z</time>
      </trkpt>
      <trkpt lat="44.91842" lon="6.72803">
        <ele>2074.8</ele>
        <time>2025-01-25T10:21:47Z</time>
      </trkpt>
      <trkpt lat="44.91842" lon="6.72803">
        <ele>2074.9</ele>
        <time>2025-01-25T10:21:54Z</time>
      </trkpt>
      <trkpt lat="44.91842" lon="6.72803">
        <ele>2075</ele>
        <time>2025-01-25T10:21:59Z</time>
      </trkpt>
      <trkpt lat="44.91842" lon="6.72803">
        <ele>2075.1</ele>
        <time>2025-01-25T10:22:06Z</time>
      </trkpt>
      <trkpt lat="44.91842" lon="6.72803">
        <ele>2075.2</ele>
        <time>2025-01-25T10:22:12Z</time>
      </trkpt>
      <trkpt lat="44.91842" lon="6.72803">
        <ele>2075.3</ele>
        <time>2025-01-25T10:22:18Z</time>
      </trkpt>
      <trkpt lat="44.91842" lon="6.72803">
        <ele>2075.4</ele>
        <time>2025-01-25T10:22:23Z</time>
      </trkpt>
      <trkpt lat="44.91842" lon="6.72803">
        <ele>2075.5</ele>
        <time>2025-01-25T10:22:30Z</time>
      </trkpt>
      <trkpt lat="44.91842" lon="6.72803">
        <ele>2075.7</ele>
        <time>2025-01-25T10:22:38Z</time>
      </trkpt>
      <trkpt lat="44.91842" lon="6.72803">
        <ele>2075.8</ele>
        <time>2025-01-25T10:22:45Z</time>
      </trkpt>
      <trkpt lat="44.91842" lon="6.72803">
        <ele>2075.9</ele>
        <time>2025-01-25T10:22:51Z</time>
      </trkpt>
      <trkpt lat="44.91842" lon="6.72803">
        <ele>2076</ele>
        <time>2025-01-25T10:22:57Z</time>
      </trkpt>
      <trkpt lat="44.91842" lon="6.72803">
        <ele>2076.1</ele>
        <time>2025-01-25T10:23:04Z</time>
      </trkpt>
      <trkpt lat="44.91842" lon="6.72803">
        <ele>2076.2</ele>
        <time>2025-01-25T10:23:23Z</time>
      </trkpt>
      <trkpt lat="44.91842" lon="6.72803">
        <ele>2076.3</ele>
        <time>2025-01-25T10:23:48Z</time>
      </trkpt>
      <trkpt lat="44.91842" lon="6.72803">
        <ele>2076.4</ele>
        <time>2025-01-25T10:24:03Z</time>
      </trkpt>
      <trkpt lat="44.91842" lon="6.72803">
        <ele>2076.5</ele>
        <time>2025-01-25T10:24:21Z</time>
      </trkpt>
      <trkpt lat="44.91842" lon="6.72803">
        <ele>2076.6</ele>
        <time>2025-01-25T10:24:31Z</time>
      </trkpt>
      <trkpt lat="44.91842" lon="6.72803">
        <ele>2076.7</ele>
        <time>2025-01-25T10:24:40Z</time>
      </trkpt>
      <trkpt lat="44.91842" lon="6.72803">
        <ele>2076.8</ele>
        <time>2025-01-25T10:24:49Z</time>
      </trkpt>
      <trkpt lat="44.91842" lon="6.72803">
        <ele>2076.9</ele>
        <time>2025-01-25T10:24:54Z</time>
      </trkpt>
      <trkpt lat="44.91842" lon="6.72803">
        <ele>2077.1</ele>
        <time>2025-01-25T10:25:00Z</time>
      </trkpt>
      <trkpt lat="44.91842" lon="6.72803">
        <ele>2077.2</ele>
        <time>2025-01-25T10:25:06Z</time>
      </trkpt>
      <trkpt lat="44.91842" lon="6.72803">
        <ele>2077.3</ele>
        <time>2025-01-25T10:25:11Z</time>
      </trkpt>
      <trkpt lat="44.9185" lon="6.72835">
        <ele>2087.5</ele>
        <time>2025-01-25T10:25:15Z</time>
      </trkpt>
      <trkpt lat="44.9185" lon="6.72835">
        <ele>2087.6</ele>
        <time>2025-01-25T10:25:21Z</time>
      </trkpt>
      <trkpt lat="44.9185" lon="6.72835">
        <ele>2087.7</ele>
        <time>2025-01-25T10:25:28Z</time>
      </trkpt>
      <trkpt lat="44.9185" lon="6.72835">
        <ele>2087.8</ele>
        <time>2025-01-25T10:25:35Z</time>
      </trkpt>
      <trkpt lat="44.9185" lon="6.72835">
        <ele>2087.9</ele>
        <time>2025-01-25T10:25:41Z</time>
      </trkpt>
      <trkpt lat="44.9185" lon="6.72835">
        <ele>2088</ele>
        <time>2025-01-25T10:25:46Z</time>
      </trkpt>
      <trkpt lat="44.9185" lon="6.72835">
        <ele>2088.1</ele>
        <time>2025-01-25T10:25:52Z</time>
      </trkpt>
      <trkpt lat="44.91852" lon="6.7286">
        <ele>2094.5</ele>
        <time>2025-01-25T10:25:56Z</time>
      </trkpt>
      <trkpt lat="44.91851" lon="6.72862">
        <ele>2096</ele>
        <time>2025-01-25T10:26:03Z</time>
      </trkpt>
      <trkpt lat="44.91847" lon="6.7287">
        <ele>2098.7</ele>
        <time>2025-01-25T10:26:10Z</time>
      </trkpt>
      <trkpt lat="44.91845" lon="6.72871">
        <ele>2098.9</ele>
        <time>2025-01-25T10:26:15Z</time>
      </trkpt>
      <trkpt lat="44.91843" lon="6.72872">
        <ele>2099.1</ele>
        <time>2025-01-25T10:26:21Z</time>
      </trkpt>
      <trkpt lat="44.91841" lon="6.72877">
        <ele>2100.4</ele>
        <time>2025-01-25T10:26:27Z</time>
      </trkpt>
      <trkpt lat="44.91839" lon="6.72878">
        <ele>2100.5</ele>
        <time>2025-01-25T10:26:37Z</time>
      </trkpt>
      <trkpt lat="44.91839" lon="6.72877">
        <ele>2100.6</ele>
        <time>2025-01-25T10:26:44Z</time>
      </trkpt>
      <trkpt lat="44.91836" lon="6.72879">
        <ele>2101.9</ele>
        <time>2025-01-25T10:26:49Z</time>
      </trkpt>
      <trkpt lat="44.91836" lon="6.7288">
        <ele>2102</ele>
        <time>2025-01-25T10:26:57Z</time>
      </trkpt>
      <trkpt lat="44.91835" lon="6.72881">
        <ele>2102.3</ele>
        <time>2025-01-25T10:27:08Z</time>
      </trkpt>
      <trkpt lat="44.91835" lon="6.72882">
        <ele>2102.4</ele>
        <time>2025-01-25T10:27:13Z</time>
      </trkpt>
      <trkpt lat="44.91835" lon="6.72883">
        <ele>2103.5</ele>
        <time>2025-01-25T10:27:21Z</time>
      </trkpt>
      <trkpt lat="44.91833" lon="6.72885">
        <ele>2103.6</ele>
        <time>2025-01-25T10:27:30Z</time>
      </trkpt>
      <trkpt lat="44.91832" lon="6.72887">
        <ele>2103.9</ele>
        <time>2025-01-25T10:27:39Z</time>
      </trkpt>
      <trkpt lat="44.91829" lon="6.72891">
        <ele>2105.2</ele>
        <time>2025-01-25T10:27:44Z</time>
      </trkpt>
      <trkpt lat="44.91827" lon="6.72895">
        <ele>2106.3</ele>
        <time>2025-01-25T10:27:50Z</time>
      </trkpt>
      <trkpt lat="44.91826" lon="6.72898">
        <ele>2107.6</ele>
        <time>2025-01-25T10:27:56Z</time>
      </trkpt>
      <trkpt lat="44.91825" lon="6.729">
        <ele>2108.7</ele>
        <time>2025-01-25T10:28:01Z</time>
      </trkpt>
      <trkpt lat="44.91823" lon="6.72904">
        <ele>2110.1</ele>
        <time>2025-01-25T10:28:07Z</time>
      </trkpt>
      <trkpt lat="44.91823" lon="6.72904">
        <ele>2110.2</ele>
        <time>2025-01-25T10:28:16Z</time>
      </trkpt>
      <trkpt lat="44.91821" lon="6.72906">
        <ele>2110.3</ele>
        <time>2025-01-25T10:28:23Z</time>
      </trkpt>
      <trkpt lat="44.91819" lon="6.72907">
        <ele>2110.7</ele>
        <time>2025-01-25T10:28:28Z</time>
      </trkpt>
      <trkpt lat="44.91816" lon="6.7291">
        <ele>2112.1</ele>
        <time>2025-01-25T10:28:33Z</time>
      </trkpt>
      <trkpt lat="44.91814" lon="6.7291">
        <ele>2112.2</ele>
        <time>2025-01-25T10:28:40Z</time>
      </trkpt>
      <trkpt lat="44.91814" lon="6.7291">
        <ele>2112.3</ele>
        <time>2025-01-25T10:28:50Z</time>
      </trkpt>
      <trkpt lat="44.91808" lon="6.72907">
        <ele>2112.5</ele>
        <time>2025-01-25T10:28:57Z</time>
      </trkpt>
      <trkpt lat="44.918" lon="6.72904">
        <ele>2114.2</ele>
        <time>2025-01-25T10:29:05Z</time>
      </trkpt>
      <trkpt lat="44.91798" lon="6.72906">
        <ele>2114.9</ele>
        <time>2025-01-25T10:29:10Z</time>
      </trkpt>
      <trkpt lat="44.91793" lon="6.72906">
        <ele>2115.5</ele>
        <time>2025-01-25T10:29:16Z</time>
      </trkpt>
      <trkpt lat="44.91788" lon="6.72906">
        <ele>2116.6</ele>
        <time>2025-01-25T10:29:22Z</time>
      </trkpt>
      <trkpt lat="44.91785" lon="6.72906">
        <ele>2117.3</ele>
        <time>2025-01-25T10:29:26Z</time>
      </trkpt>
      <trkpt lat="44.91783" lon="6.72908">
        <ele>2118</ele>
        <time>2025-01-25T10:29:27Z</time>
      </trkpt>
      <trkpt lat="44.91781" lon="6.72908">
        <ele>2118.1</ele>
        <time>2025-01-25T10:29:30Z</time>
      </trkpt>
      <trkpt lat="44.91776" lon="6.72911">
        <ele>2120.4</ele>
        <time>2025-01-25T10:29:36Z</time>
      </trkpt>
      <trkpt lat="44.91774" lon="6.72914">
        <ele>2122</ele>
        <time>2025-01-25T10:29:41Z</time>
      </trkpt>
      <trkpt lat="44.91773" lon="6.72918">
        <ele>2122.9</ele>
        <time>2025-01-25T10:29:46Z</time>
      </trkpt>
      <trkpt lat="44.91771" lon="6.72923">
        <ele>2123.6</ele>
        <time>2025-01-25T10:29:52Z</time>
      </trkpt>
      <trkpt lat="44.91773" lon="6.72929">
        <ele>2124.4</ele>
        <time>2025-01-25T10:29:59Z</time>
      </trkpt>
      <trkpt lat="44.91774" lon="6.72933">
        <ele>2125</ele>
        <time>2025-01-25T10:30:05Z</time>
      </trkpt>
      <trkpt lat="44.91775" lon="6.72936">
        <ele>2124.9</ele>
        <time>2025-01-25T10:30:11Z</time>
      </trkpt>
      <trkpt lat="44.91776" lon="6.72939">
        <ele>2125.5</ele>
        <time>2025-01-25T10:30:17Z</time>
      </trkpt>
      <trkpt lat="44.91777" lon="6.72946">
        <ele>2126.1</ele>
        <time>2025-01-25T10:30:23Z</time>
      </trkpt>
      <trkpt lat="44.91775" lon="6.72952">
        <ele>2126.9</ele>
        <time>2025-01-25T10:30:28Z</time>
      </trkpt>
      <trkpt lat="44.91773" lon="6.72958">
        <ele>2128</ele>
        <time>2025-01-25T10:30:33Z</time>
      </trkpt>
      <trkpt lat="44.91774" lon="6.72965">
        <ele>2128.9</ele>
        <time>2025-01-25T10:30:40Z</time>
      </trkpt>
      <trkpt lat="44.91775" lon="6.72973">
        <ele>2129.9</ele>
        <time>2025-01-25T10:30:44Z</time>
      </trkpt>
      <trkpt lat="44.91774" lon="6.72974">
        <ele>2130.2</ele>
        <time>2025-01-25T10:30:49Z</time>
      </trkpt>
      <trkpt lat="44.91772" lon="6.72978">
        <ele>2130.8</ele>
        <time>2025-01-25T10:30:54Z</time>
      </trkpt>
      <trkpt lat="44.91771" lon="6.72981">
        <ele>2131.2</ele>
        <time>2025-01-25T10:31:00Z</time>
      </trkpt>
      <trkpt lat="44.91771" lon="6.72981">
        <ele>2131.2</ele>
        <time>2025-01-25T10:31:06Z</time>
      </trkpt>
      <trkpt lat="44.91773" lon="6.73">
        <ele>2133.5</ele>
        <time>2025-01-25T10:31:12Z</time>
      </trkpt>
      <trkpt lat="44.91771" lon="6.73004">
        <ele>2134</ele>
        <time>2025-01-25T10:31:17Z</time>
      </trkpt>
      <trkpt lat="44.91772" lon="6.73008">
        <ele>2134.5</ele>
        <time>2025-01-25T10:31:23Z</time>
      </trkpt>
      <trkpt lat="44.91773" lon="6.73018">
        <ele>2135.4</ele>
        <time>2025-01-25T10:31:29Z</time>
      </trkpt>
      <trkpt lat="44.91773" lon="6.73018">
        <ele>2135.4</ele>
        <time>2025-01-25T10:31:34Z</time>
      </trkpt>
      <trkpt lat="44.91771" lon="6.73024">
        <ele>2135.9</ele>
        <time>2025-01-25T10:31:38Z</time>
      </trkpt>
      <trkpt lat="44.9177" lon="6.73025">
        <ele>2136</ele>
        <time>2025-01-25T10:31:44Z</time>
      </trkpt>
      <trkpt lat="44.91765" lon="6.73031">
        <ele>2136.7</ele>
        <time>2025-01-25T10:31:49Z</time>
      </trkpt>
      <trkpt lat="44.9176" lon="6.73037">
        <ele>2137.2</ele>
        <time>2025-01-25T10:31:55Z</time>
      </trkpt>
      <trkpt lat="44.91757" lon="6.7304">
        <ele>2137.3</ele>
        <time>2025-01-25T10:32:00Z</time>
      </trkpt>
      <trkpt lat="44.91752" lon="6.73044">
        <ele>2137.4</ele>
        <time>2025-01-25T10:32:05Z</time>
      </trkpt>
      <trkpt lat="44.91751" lon="6.73046">
        <ele>2137.4</ele>
        <time>2025-01-25T10:32:11Z</time>
      </trkpt>
      <trkpt lat="44.91746" lon="6.73052">
        <ele>2137.5</ele>
        <time>2025-01-25T10:32:16Z</time>
      </trkpt>
      <trkpt lat="44.91742" lon="6.73054">
        <ele>2137.6</ele>
        <time>2025-01-25T10:32:19Z</time>
      </trkpt>
      <trkpt lat="44.91743" lon="6.73054">
        <ele>2137.6</ele>
        <time>2025-01-25T10:32:23Z</time>
      </trkpt>
      <trkpt lat="44.91734" lon="6.73054">
        <ele>2137.6</ele>
        <time>2025-01-25T10:32:28Z</time>
      </trkpt>
      <trkpt lat="44.91731" lon="6.73054">
        <ele>2137.6</ele>
        <time>2025-01-25T10:32:33Z</time>
      </trkpt>
      <trkpt lat="44.91723" lon="6.73055">
        <ele>2137.7</ele>
        <time>2025-01-25T10:32:39Z</time>
      </trkpt>
      <trkpt lat="44.91718" lon="6.73055">
        <ele>2137.7</ele>
        <time>2025-01-25T10:32:45Z</time>
      </trkpt>
      <trkpt lat="44.91713" lon="6.73055">
        <ele>2137.8</ele>
        <time>2025-01-25T10:32:51Z</time>
      </trkpt>
      <trkpt lat="44.91707" lon="6.73055">
        <ele>2137.8</ele>
        <time>2025-01-25T10:32:56Z</time>
      </trkpt>
      <trkpt lat="44.91702" lon="6.73055">
        <ele>2137.8</ele>
        <time>2025-01-25T10:33:00Z</time>
      </trkpt>
      <trkpt lat="44.91698" lon="6.73055">
        <ele>2137.8</ele>
        <time>2025-01-25T10:33:05Z</time>
      </trkpt>
      <trkpt lat="44.91693" lon="6.73055">
        <ele>2137.8</ele>
        <time>2025-01-25T10:33:09Z</time>
      </trkpt>
      <trkpt lat="44.91688" lon="6.73055">
        <ele>2137.8</ele>
        <time>2025-01-25T10:33:14Z</time>
      </trkpt>
      <trkpt lat="44.91682" lon="6.73055">
        <ele>2138</ele>
        <time>2025-01-25T10:33:19Z</time>
      </trkpt>
      <trkpt lat="44.91675" lon="6.73055">
        <ele>2138.4</ele>
        <time>2025-01-25T10:33:27Z</time>
      </trkpt>
      <trkpt lat="44.91669" lon="6.73055">
        <ele>2138.7</ele>
        <time>2025-01-25T10:33:32Z</time>
      </trkpt>
      <trkpt lat="44.91664" lon="6.73055">
        <ele>2139</ele>
        <time>2025-01-25T10:33:37Z</time>
      </trkpt>
      <trkpt lat="44.91659" lon="6.73055">
        <ele>2139.3</ele>
        <time>2025-01-25T10:33:42Z</time>
      </trkpt>
      <trkpt lat="44.91653" lon="6.73055">
        <ele>2139.7</ele>
        <time>2025-01-25T10:33:48Z</time>
      </trkpt>
      <trkpt lat="44.91648" lon="6.73055">
        <ele>2140</ele>
        <time>2025-01-25T10:33:54Z</time>
      </trkpt>
      <trkpt lat="44.91642" lon="6.73056">
        <ele>2140.4</ele>
        <time>2025-01-25T10:34:00Z</time>
      </trkpt>
      <trkpt lat="44.91635" lon="6.73056">
        <ele>2140.9</ele>
        <time>2025-01-25T10:34:06Z</time>
      </trkpt>
      <trkpt lat="44.91631" lon="6.73056">
        <ele>2141.3</ele>
        <time>2025-01-25T10:34:11Z</time>
      </trkpt>
      <trkpt lat="44.91626" lon="6.73056">
        <ele>2141.8</ele>
        <time>2025-01-25T10:34:16Z</time>
      </trkpt>
      <trkpt lat="44.9162" lon="6.73056">
        <ele>2142.4</ele>
        <time>2025-01-25T10:34:22Z</time>
      </trkpt>
      <trkpt lat="44.91619" lon="6.73056">
        <ele>2142.5</ele>
        <time>2025-01-25T10:34:23Z</time>
      </trkpt>
      <trkpt lat="44.91616" lon="6.73056">
        <ele>2142.9</ele>
        <time>2025-01-25T10:34:26Z</time>
      </trkpt>
      <trkpt lat="44.91611" lon="6.73056">
        <ele>2143.6</ele>
        <time>2025-01-25T10:34:31Z</time>
      </trkpt>
      <trkpt lat="44.91606" lon="6.73056">
        <ele>2144.3</ele>
        <time>2025-01-25T10:34:36Z</time>
      </trkpt>
      <trkpt lat="44.916" lon="6.73056">
        <ele>2145.2</ele>
        <time>2025-01-25T10:34:43Z</time>
      </trkpt>
      <trkpt lat="44.91594" lon="6.73056">
        <ele>2146.1</ele>
        <time>2025-01-25T10:34:47Z</time>
      </trkpt>
      <trkpt lat="44.91589" lon="6.73056">
        <ele>2146.9</ele>
        <time>2025-01-25T10:34:52Z</time>
      </trkpt>
      <trkpt lat="44.91583" lon="6.73056">
        <ele>2148.4</ele>
        <time>2025-01-25T10:34:59Z</time>
      </trkpt>
      <trkpt lat="44.91577" lon="6.73056">
        <ele>2150</ele>
        <time>2025-01-25T10:35:06Z</time>
      </trkpt>
      <trkpt lat="44.91577" lon="6.73056">
        <ele>2150</ele>
        <time>2025-01-25T10:35:13Z</time>
      </trkpt>
      <trkpt lat="44.91577" lon="6.73056">
        <ele>2150</ele>
        <time>2025-01-25T10:35:19Z</time>
      </trkpt>
      <trkpt lat="44.91577" lon="6.73056">
        <ele>2150</ele>
        <time>2025-01-25T10:35:27Z</time>
      </trkpt>
      <trkpt lat="44.9157" lon="6.73056">
        <ele>2152.3</ele>
        <time>2025-01-25T10:35:44Z</time>
      </trkpt>
      <trkpt lat="44.91569" lon="6.73056">
        <ele>2152.4</ele>
        <time>2025-01-25T10:35:49Z</time>
      </trkpt>
      <trkpt lat="44.91562" lon="6.73049">
        <ele>2155.1</ele>
        <time>2025-01-25T10:35:54Z</time>
      </trkpt>
      <trkpt lat="44.9156" lon="6.73042">
        <ele>2156.6</ele>
        <time>2025-01-25T10:36:00Z</time>
      </trkpt>
      <trkpt lat="44.91554" lon="6.73035">
        <ele>2158.7</ele>
        <time>2025-01-25T10:36:08Z</time>
      </trkpt>
      <trkpt lat="44.91548" lon="6.73031">
        <ele>2160.3</ele>
        <time>2025-01-25T10:36:16Z</time>
      </trkpt>
      <trkpt lat="44.91544" lon="6.73029">
        <ele>2161.3</ele>
        <time>2025-01-25T10:36:21Z</time>
      </trkpt>
      <trkpt lat="44.91541" lon="6.73029">
        <ele>2161.7</ele>
        <time>2025-01-25T10:36:29Z</time>
      </trkpt>
      <trkpt lat="44.91541" lon="6.73029">
        <ele>2161.7</ele>
        <time>2025-01-25T10:36:41Z</time>
      </trkpt>
      <trkpt lat="44.91541" lon="6.73029">
        <ele>2161.7</ele>
        <time>2025-01-25T10:36:54Z</time>
      </trkpt>
      <trkpt lat="44.91539" lon="6.73031">
        <ele>2162.2</ele>
        <time>2025-01-25T10:37:02Z</time>
      </trkpt>
      <trkpt lat="44.91533" lon="6.73039">
        <ele>2163.1</ele>
        <time>2025-01-25T10:37:09Z</time>
      </trkpt>
      <trkpt lat="44.91519" lon="6.73046">
        <ele>2163.2</ele>
        <time>2025-01-25T10:37:18Z</time>
      </trkpt>
      <trkpt lat="44.91514" lon="6.7305">
        <ele>2163.9</ele>
        <time>2025-01-25T10:37:22Z</time>
      </trkpt>
      <trkpt lat="44.91512" lon="6.73052">
        <ele>2164.5</ele>
        <time>2025-01-25T10:37:29Z</time>
      </trkpt>
      <trkpt lat="44.91509" lon="6.73054">
        <ele>2165</ele>
        <time>2025-01-25T10:37:36Z</time>
      </trkpt>
      <trkpt lat="44.91497" lon="6.73053">
        <ele>2166.4</ele>
        <time>2025-01-25T10:37:41Z</time>
      </trkpt>
      <trkpt lat="44.91494" lon="6.73052">
        <ele>2166.3</ele>
        <time>2025-01-25T10:37:43Z</time>
      </trkpt>
      <trkpt lat="44.91492" lon="6.73052">
        <ele>2166.3</ele>
        <time>2025-01-25T10:37:49Z</time>
      </trkpt>
      <trkpt lat="44.91492" lon="6.73052">
        <ele>2166.3</ele>
        <time>2025-01-25T10:37:55Z</time>
      </trkpt>
      <trkpt lat="44.91475" lon="6.73041">
        <ele>2169.3</ele>
        <time>2025-01-25T10:38:00Z</time>
      </trkpt>
      <trkpt lat="44.91475" lon="6.73041">
        <ele>2169.3</ele>
        <time>2025-01-25T10:38:07Z</time>
      </trkpt>
      <trkpt lat="44.91475" lon="6.73041">
        <ele>2169.3</ele>
        <time>2025-01-25T10:38:14Z</time>
      </trkpt>
      <trkpt lat="44.91475" lon="6.73041">
        <ele>2169.3</ele>
        <time>2025-01-25T10:38:19Z</time>
      </trkpt>
      <trkpt lat="44.91475" lon="6.73041">
        <ele>2169.3</ele>
        <time>2025-01-25T10:38:25Z</time>
      </trkpt>
      <trkpt lat="44.91475" lon="6.73041">
        <ele>2169.3</ele>
        <time>2025-01-25T10:38:33Z</time>
      </trkpt>
      <trkpt lat="44.91475" lon="6.73041">
        <ele>2169.3</ele>
        <time>2025-01-25T10:38:39Z</time>
      </trkpt>
      <trkpt lat="44.91475" lon="6.73041">
        <ele>2169.3</ele>
        <time>2025-01-25T10:38:45Z</time>
      </trkpt>
      <trkpt lat="44.91475" lon="6.73041">
        <ele>2169.3</ele>
        <time>2025-01-25T10:38:52Z</time>
      </trkpt>
      <trkpt lat="44.91475" lon="6.73041">
        <ele>2169.3</ele>
        <time>2025-01-25T10:39:04Z</time>
      </trkpt>
      <trkpt lat="44.91475" lon="6.73041">
        <ele>2169.3</ele>
        <time>2025-01-25T10:39:11Z</time>
      </trkpt>
      <trkpt lat="44.91475" lon="6.73041">
        <ele>2169.3</ele>
        <time>2025-01-25T10:39:18Z</time>
      </trkpt>
      <trkpt lat="44.91453" lon="6.73088">
        <ele>2174.7</ele>
        <time>2025-01-25T10:39:23Z</time>
      </trkpt>
      <trkpt lat="44.91447" lon="6.73091">
        <ele>2175.3</ele>
        <time>2025-01-25T10:39:30Z</time>
      </trkpt>
      <trkpt lat="44.91441" lon="6.73097">
        <ele>2175.9</ele>
        <time>2025-01-25T10:39:38Z</time>
      </trkpt>
      <trkpt lat="44.91435" lon="6.73108">
        <ele>2176.7</ele>
        <time>2025-01-25T10:39:46Z</time>
      </trkpt>
      <trkpt lat="44.91434" lon="6.73116">
        <ele>2177.2</ele>
        <time>2025-01-25T10:39:54Z</time>
      </trkpt>
      <trkpt lat="44.91431" lon="6.73127">
        <ele>2178</ele>
        <time>2025-01-25T10:40:01Z</time>
      </trkpt>
      <trkpt lat="44.91427" lon="6.73136">
        <ele>2178.7</ele>
        <time>2025-01-25T10:40:08Z</time>
      </trkpt>
      <trkpt lat="44.91425" lon="6.73145">
        <ele>2179.4</ele>
        <time>2025-01-25T10:40:15Z</time>
      </trkpt>
      <trkpt lat="44.91429" lon="6.73151">
        <ele>2180</ele>
        <time>2025-01-25T10:40:22Z</time>
      </trkpt>
      <trkpt lat="44.91429" lon="6.73156">
        <ele>2180.3</ele>
        <time>2025-01-25T10:40:29Z</time>
      </trkpt>
      <trkpt lat="44.91429" lon="6.73156">
        <ele>2180.3</ele>
        <time>2025-01-25T10:40:38Z</time>
      </trkpt>
      <trkpt lat="44.91429" lon="6.73156">
        <ele>2180.3</ele>
        <time>2025-01-25T10:40:53Z</time>
      </trkpt>
      <trkpt lat="44.91428" lon="6.73155">
        <ele>2180.5</ele>
        <time>2025-01-25T10:41:11Z</time>
      </trkpt>
      <trkpt lat="44.91428" lon="6.73155">
        <ele>2180.5</ele>
        <time>2025-01-25T10:41:21Z</time>
      </trkpt>
      <trkpt lat="44.91427" lon="6.7316">
        <ele>2180.8</ele>
        <time>2025-01-25T10:41:28Z</time>
      </trkpt>
      <trkpt lat="44.91424" lon="6.73164">
        <ele>2181.2</ele>
        <time>2025-01-25T10:41:32Z</time>
      </trkpt>
      <trkpt lat="44.91421" lon="6.73178">
        <ele>2182.2</ele>
        <time>2025-01-25T10:41:38Z</time>
      </trkpt>
      <trkpt lat="44.91422" lon="6.7319">
        <ele>2183.1</ele>
        <time>2025-01-25T10:41:43Z</time>
      </trkpt>
      <trkpt lat="44.91416" lon="6.73195">
        <ele>2183.7</ele>
        <time>2025-01-25T10:41:49Z</time>
      </trkpt>
      <trkpt lat="44.91411" lon="6.73196">
        <ele>2184.1</ele>
        <time>2025-01-25T10:41:54Z</time>
      </trkpt>
      <trkpt lat="44.91402" lon="6.73196">
        <ele>2184.9</ele>
        <time>2025-01-25T10:41:59Z</time>
      </trkpt>
      <trkpt lat="44.914" lon="6.73197">
        <ele>2185.1</ele>
        <time>2025-01-25T10:42:04Z</time>
      </trkpt>
      <trkpt lat="44.91396" lon="6.73198">
        <ele>2185.6</ele>
        <time>2025-01-25T10:42:09Z</time>
      </trkpt>
      <trkpt lat="44.91395" lon="6.73201">
        <ele>2185.9</ele>
        <time>2025-01-25T10:42:14Z</time>
      </trkpt>
      <trkpt lat="44.91392" lon="6.73204">
        <ele>2186.4</ele>
        <time>2025-01-25T10:42:18Z</time>
      </trkpt>
      <trkpt lat="44.91388" lon="6.73207">
        <ele>2187</ele>
        <time>2025-01-25T10:42:23Z</time>
      </trkpt>
      <trkpt lat="44.91382" lon="6.73211">
        <ele>2187.9</ele>
        <time>2025-01-25T10:42:27Z</time>
      </trkpt>
      <trkpt lat="44.91378" lon="6.73213">
        <ele>2188.5</ele>
        <time>2025-01-25T10:42:31Z</time>
      </trkpt>
      <trkpt lat="44.91375" lon="6.73215">
        <ele>2189.1</ele>
        <time>2025-01-25T10:42:36Z</time>
      </trkpt>
      <trkpt lat="44.91372" lon="6.73221">
        <ele>2189.8</ele>
        <time>2025-01-25T10:42:42Z</time>
      </trkpt>
      <trkpt lat="44.91368" lon="6.73225">
        <ele>2190.6</ele>
        <time>2025-01-25T10:42:46Z</time>
      </trkpt>
      <trkpt lat="44.91365" lon="6.73229">
        <ele>2191.2</ele>
        <time>2025-01-25T10:42:50Z</time>
      </trkpt>
      <trkpt lat="44.91362" lon="6.73232">
        <ele>2191.8</ele>
        <time>2025-01-25T10:42:55Z</time>
      </trkpt>
      <trkpt lat="44.91359" lon="6.73235">
        <ele>2192.4</ele>
        <time>2025-01-25T10:43:00Z</time>
      </trkpt>
      <trkpt lat="44.91355" lon="6.73238">
        <ele>2193</ele>
        <time>2025-01-25T10:43:05Z</time>
      </trkpt>
      <trkpt lat="44.91351" lon="6.73243">
        <ele>2193.8</ele>
        <time>2025-01-25T10:43:11Z</time>
      </trkpt>
      <trkpt lat="44.91346" lon="6.73247">
        <ele>2194.8</ele>
        <time>2025-01-25T10:43:16Z</time>
      </trkpt>
      <trkpt lat="44.91342" lon="6.73249">
        <ele>2196.3</ele>
        <time>2025-01-25T10:43:20Z</time>
      </trkpt>
      <trkpt lat="44.91342" lon="6.7325">
        <ele>2196.7</ele>
        <time>2025-01-25T10:43:21Z</time>
      </trkpt>
      <trkpt lat="44.91339" lon="6.73247">
        <ele>2196.6</ele>
        <time>2025-01-25T10:43:25Z</time>
      </trkpt>
      <trkpt lat="44.91337" lon="6.73248">
        <ele>2197.7</ele>
        <time>2025-01-25T10:43:29Z</time>
      </trkpt>
      <trkpt lat="44.91334" lon="6.73251">
        <ele>2198.3</ele>
        <time>2025-01-25T10:43:35Z</time>
      </trkpt>
      <trkpt lat="44.91334" lon="6.73251">
        <ele>2198.3</ele>
        <time>2025-01-25T10:43:41Z</time>
      </trkpt>
      <trkpt lat="44.91331" lon="6.73255">
        <ele>2198.9</ele>
        <time>2025-01-25T10:43:46Z</time>
      </trkpt>
      <trkpt lat="44.91326" lon="6.73261">
        <ele>2199.8</ele>
        <time>2025-01-25T10:43:51Z</time>
      </trkpt>
      <trkpt lat="44.91321" lon="6.73268">
        <ele>2200.8</ele>
        <time>2025-01-25T10:43:57Z</time>
      </trkpt>
      <trkpt lat="44.91318" lon="6.73272">
        <ele>2201.3</ele>
        <time>2025-01-25T10:44:02Z</time>
      </trkpt>
      <trkpt lat="44.91316" lon="6.73275">
        <ele>2201.7</ele>
        <time>2025-01-25T10:44:09Z</time>
      </trkpt>
      <trkpt lat="44.91308" lon="6.73283">
        <ele>2203</ele>
        <time>2025-01-25T10:44:15Z</time>
      </trkpt>
      <trkpt lat="44.91303" lon="6.73289">
        <ele>2203.7</ele>
        <time>2025-01-25T10:44:21Z</time>
      </trkpt>
      <trkpt lat="44.91298" lon="6.73293">
        <ele>2204.4</ele>
        <time>2025-01-25T10:44:26Z</time>
      </trkpt>
      <trkpt lat="44.91294" lon="6.73299">
        <ele>2205</ele>
        <time>2025-01-25T10:44:33Z</time>
      </trkpt>
      <trkpt lat="44.91287" lon="6.73302">
        <ele>2205.9</ele>
        <time>2025-01-25T10:44:39Z</time>
      </trkpt>
      <trkpt lat="44.91282" lon="6.73307">
        <ele>2206.6</ele>
        <time>2025-01-25T10:44:45Z</time>
      </trkpt>
      <trkpt lat="44.91277" lon="6.73312">
        <ele>2207.5</ele>
        <time>2025-01-25T10:44:52Z</time>
      </trkpt>
      <trkpt lat="44.91275" lon="6.73315">
        <ele>2207.9</ele>
        <time>2025-01-25T10:44:58Z</time>
      </trkpt>
      <trkpt lat="44.91272" lon="6.7332">
        <ele>2208.6</ele>
        <time>2025-01-25T10:45:04Z</time>
      </trkpt>
      <trkpt lat="44.91265" lon="6.73327">
        <ele>2209.9</ele>
        <time>2025-01-25T10:45:12Z</time>
      </trkpt>
      <trkpt lat="44.9126" lon="6.73332">
        <ele>2210.9</ele>
        <time>2025-01-25T10:45:18Z</time>
      </trkpt>
      <trkpt lat="44.91258" lon="6.73336">
        <ele>2211.5</ele>
        <time>2025-01-25T10:45:23Z</time>
      </trkpt>
      <trkpt lat="44.91255" lon="6.73341">
        <ele>2212.4</ele>
        <time>2025-01-25T10:45:29Z</time>
      </trkpt>
      <trkpt lat="44.91249" lon="6.73345">
        <ele>2213.6</ele>
        <time>2025-01-25T10:45:35Z</time>
      </trkpt>
      <trkpt lat="44.91244" lon="6.73349">
        <ele>2214.7</ele>
        <time>2025-01-25T10:45:40Z</time>
      </trkpt>
      <trkpt lat="44.91239" lon="6.73354">
        <ele>2216.1</ele>
        <time>2025-01-25T10:45:47Z</time>
      </trkpt>
      <trkpt lat="44.91238" lon="6.73358">
        <ele>2216.9</ele>
        <time>2025-01-25T10:45:52Z</time>
      </trkpt>
      <trkpt lat="44.91236" lon="6.73363">
        <ele>2217.8</ele>
        <time>2025-01-25T10:45:57Z</time>
      </trkpt>
      <trkpt lat="44.91233" lon="6.73367">
        <ele>2218.8</ele>
        <time>2025-01-25T10:46:03Z</time>
      </trkpt>
      <trkpt lat="44.91228" lon="6.73371">
        <ele>2220.3</ele>
        <time>2025-01-25T10:46:09Z</time>
      </trkpt>
      <trkpt lat="44.91221" lon="6.73376">
        <ele>2222.3</ele>
        <time>2025-01-25T10:46:15Z</time>
      </trkpt>
      <trkpt lat="44.9122" lon="6.73377">
        <ele>2222.6</ele>
        <time>2025-01-25T10:46:25Z</time>
      </trkpt>
      <trkpt lat="44.9122" lon="6.73377">
        <ele>2222.6</ele>
        <time>2025-01-25T10:46:42Z</time>
      </trkpt>
      <trkpt lat="44.91221" lon="6.73377">
        <ele>2222.9</ele>
        <time>2025-01-25T10:46:59Z</time>
      </trkpt>
      <trkpt lat="44.91221" lon="6.73377">
        <ele>2222.9</ele>
        <time>2025-01-25T10:47:11Z</time>
      </trkpt>
      <trkpt lat="44.91221" lon="6.73377">
        <ele>2222.9</ele>
        <time>2025-01-25T10:47:28Z</time>
      </trkpt>
      <trkpt lat="44.91219" lon="6.73377">
        <ele>2223.4</ele>
        <time>2025-01-25T10:47:41Z</time>
      </trkpt>
      <trkpt lat="44.91219" lon="6.73377">
        <ele>2223.4</ele>
        <time>2025-01-25T10:47:54Z</time>
      </trkpt>
      <trkpt lat="44.91219" lon="6.73377">
        <ele>2223.4</ele>
        <time>2025-01-25T10:48:12Z</time>
      </trkpt>
      <trkpt lat="44.91217" lon="6.73374">
        <ele>2224.2</ele>
        <time>2025-01-25T10:48:33Z</time>
      </trkpt>
      <trkpt lat="44.91217" lon="6.73374">
        <ele>2224.2</ele>
        <time>2025-01-25T10:48:51Z</time>
      </trkpt>
      <trkpt lat="44.91216" lon="6.73373">
        <ele>2224.5</ele>
        <time>2025-01-25T10:49:07Z</time>
      </trkpt>
      <trkpt lat="44.91216" lon="6.73373">
        <ele>2224.5</ele>
        <time>2025-01-25T10:49:27Z</time>
      </trkpt>
      <trkpt lat="44.91213" lon="6.7337">
        <ele>2225.5</ele>
        <time>2025-01-25T10:49:40Z</time>
      </trkpt>
      <trkpt lat="44.91213" lon="6.7337">
        <ele>2225.5</ele>
        <time>2025-01-25T10:49:59Z</time>
      </trkpt>
      <trkpt lat="44.9121" lon="6.73379">
        <ele>2227.4</ele>
        <time>2025-01-25T10:50:06Z</time>
      </trkpt>
      <trkpt lat="44.9121" lon="6.73379">
        <ele>2227.6</ele>
        <time>2025-01-25T10:50:12Z</time>
      </trkpt>
      <trkpt lat="44.9121" lon="6.7338">
        <ele>2227.7</ele>
        <time>2025-01-25T10:50:21Z</time>
      </trkpt>
      <trkpt lat="44.9121" lon="6.7338">
        <ele>2227.7</ele>
        <time>2025-01-25T10:50:32Z</time>
      </trkpt>
      <trkpt lat="44.91209" lon="6.73382">
        <ele>2228.3</ele>
        <time>2025-01-25T10:50:40Z</time>
      </trkpt>
      <trkpt lat="44.91209" lon="6.73385">
        <ele>2229</ele>
        <time>2025-01-25T10:50:46Z</time>
      </trkpt>
      <trkpt lat="44.91208" lon="6.7339">
        <ele>2230.2</ele>
        <time>2025-01-25T10:50:53Z</time>
      </trkpt>
      <trkpt lat="44.9121" lon="6.73389">
        <ele>2230.6</ele>
        <time>2025-01-25T10:50:59Z</time>
      </trkpt>
      <trkpt lat="44.9121" lon="6.73392">
        <ele>2231.3</ele>
        <time>2025-01-25T10:51:05Z</time>
      </trkpt>
      <trkpt lat="44.91206" lon="6.73397">
        <ele>2232.7</ele>
        <time>2025-01-25T10:51:10Z</time>
      </trkpt>
      <trkpt lat="44.91204" lon="6.734">
        <ele>2233.7</ele>
        <time>2025-01-25T10:51:16Z</time>
      </trkpt>
      <trkpt lat="44.91203" lon="6.734">
        <ele>2234.2</ele>
        <time>2025-01-25T10:51:21Z</time>
      </trkpt>
      <trkpt lat="44.91203" lon="6.734">
        <ele>2234.2</ele>
        <time>2025-01-25T10:51:32Z</time>
      </trkpt>
      <trkpt lat="44.91202" lon="6.734">
        <ele>2234.3</ele>
        <time>2025-01-25T10:51:38Z</time>
      </trkpt>
      <trkpt lat="44.91199" lon="6.73403">
        <ele>2235.6</ele>
        <time>2025-01-25T10:51:44Z</time>
      </trkpt>
      <trkpt lat="44.91193" lon="6.73405">
        <ele>2237.6</ele>
        <time>2025-01-25T10:51:49Z</time>
      </trkpt>
      <trkpt lat="44.91192" lon="6.73407">
        <ele>2238.3</ele>
        <time>2025-01-25T10:51:53Z</time>
      </trkpt>
      <trkpt lat="44.91191" lon="6.7341">
        <ele>2238.9</ele>
        <time>2025-01-25T10:51:58Z</time>
      </trkpt>
      <trkpt lat="44.91188" lon="6.7341">
        <ele>2240</ele>
        <time>2025-01-25T10:52:05Z</time>
      </trkpt>
      <trkpt lat="44.91186" lon="6.7341">
        <ele>2240.5</ele>
        <time>2025-01-25T10:52:11Z</time>
      </trkpt>
      <trkpt lat="44.91184" lon="6.73411">
        <ele>2241.2</ele>
        <time>2025-01-25T10:52:19Z</time>
      </trkpt>
      <trkpt lat="44.91183" lon="6.73411">
        <ele>2241.6</ele>
        <time>2025-01-25T10:52:25Z</time>
      </trkpt>
      <trkpt lat="44.91183" lon="6.73413">
        <ele>2242</ele>
        <time>2025-01-25T10:52:31Z</time>
      </trkpt>
      <trkpt lat="44.91181" lon="6.73415">
        <ele>2243</ele>
        <time>2025-01-25T10:52:35Z</time>
      </trkpt>
      <trkpt lat="44.91179" lon="6.73417">
        <ele>2243.9</ele>
        <time>2025-01-25T10:52:40Z</time>
      </trkpt>
      <trkpt lat="44.91179" lon="6.7342">
        <ele>2244.6</ele>
        <time>2025-01-25T10:52:46Z</time>
      </trkpt>
      <trkpt lat="44.91175" lon="6.73421">
        <ele>2246</ele>
        <time>2025-01-25T10:52:53Z</time>
      </trkpt>
      <trkpt lat="44.91175" lon="6.73423">
        <ele>2246.5</ele>
        <time>2025-01-25T10:53:00Z</time>
      </trkpt>
      <trkpt lat="44.91172" lon="6.73426">
        <ele>2247.8</ele>
        <time>2025-01-25T10:53:06Z</time>
      </trkpt>
      <trkpt lat="44.91172" lon="6.73427">
        <ele>2248</ele>
        <time>2025-01-25T10:53:13Z</time>
      </trkpt>
      <trkpt lat="44.9117" lon="6.73431">
        <ele>2249</ele>
        <time>2025-01-25T10:53:22Z</time>
      </trkpt>
      <trkpt lat="44.91169" lon="6.73432">
        <ele>2249.3</ele>
        <time>2025-01-25T10:53:34Z</time>
      </trkpt>
      <trkpt lat="44.91169" lon="6.73434">
        <ele>2249.9</ele>
        <time>2025-01-25T10:53:40Z</time>
      </trkpt>
      <trkpt lat="44.91166" lon="6.73438">
        <ele>2251.3</ele>
        <time>2025-01-25T10:53:45Z</time>
      </trkpt>
      <trkpt lat="44.91164" lon="6.73439">
        <ele>2252.2</ele>
        <time>2025-01-25T10:53:51Z</time>
      </trkpt>
      <trkpt lat="44.91165" lon="6.7344">
        <ele>2252.6</ele>
        <time>2025-01-25T10:53:58Z</time>
      </trkpt>
      <trkpt lat="44.91164" lon="6.73444">
        <ele>2253.5</ele>
        <time>2025-01-25T10:54:03Z</time>
      </trkpt>
      <trkpt lat="44.91164" lon="6.73444">
        <ele>2253.5</ele>
        <time>2025-01-25T10:54:13Z</time>
      </trkpt>
      <trkpt lat="44.91165" lon="6.73446">
        <ele>2254.2</ele>
        <time>2025-01-25T10:54:19Z</time>
      </trkpt>
      <trkpt lat="44.91165" lon="6.73446">
        <ele>2254.2</ele>
        <time>2025-01-25T10:54:32Z</time>
      </trkpt>
      <trkpt lat="44.91166" lon="6.73447">
        <ele>2254.6</ele>
        <time>2025-01-25T10:54:37Z</time>
      </trkpt>
      <trkpt lat="44.91163" lon="6.7345">
        <ele>2255.8</ele>
        <time>2025-01-25T10:54:43Z</time>
      </trkpt>
      <trkpt lat="44.91163" lon="6.7345">
        <ele>2255.8</ele>
        <time>2025-01-25T10:54:54Z</time>
      </trkpt>
      <trkpt lat="44.91159" lon="6.73452">
        <ele>2257.1</ele>
        <time>2025-01-25T10:55:00Z</time>
      </trkpt>
      <trkpt lat="44.9116" lon="6.73452">
        <ele>2257</ele>
        <time>2025-01-25T10:55:09Z</time>
      </trkpt>
      <trkpt lat="44.9116" lon="6.73453">
        <ele>2256.9</ele>
        <time>2025-01-25T10:55:19Z</time>
      </trkpt>
      <trkpt lat="44.9116" lon="6.73453">
        <ele>2256.9</ele>
        <time>2025-01-25T10:55:29Z</time>
      </trkpt>
      <trkpt lat="44.9116" lon="6.73453">
        <ele>2256.8</ele>
        <time>2025-01-25T10:55:39Z</time>
      </trkpt>
      <trkpt lat="44.91159" lon="6.73454">
        <ele>2257.5</ele>
        <time>2025-01-25T10:55:46Z</time>
      </trkpt>
      <trkpt lat="44.91161" lon="6.73459">
        <ele>2257.3</ele>
        <time>2025-01-25T10:55:52Z</time>
      </trkpt>
      <trkpt lat="44.91161" lon="6.73463">
        <ele>2258.3</ele>
        <time>2025-01-25T10:55:57Z</time>
      </trkpt>
      <trkpt lat="44.91159" lon="6.73471">
        <ele>2260.4</ele>
        <time>2025-01-25T10:56:04Z</time>
      </trkpt>
      <trkpt lat="44.9116" lon="6.73475">
        <ele>2260.4</ele>
        <time>2025-01-25T10:56:09Z</time>
      </trkpt>
      <trkpt lat="44.91161" lon="6.73479">
        <ele>2260.9</ele>
        <time>2025-01-25T10:56:15Z</time>
      </trkpt>
      <trkpt lat="44.91162" lon="6.73484">
        <ele>2261.5</ele>
        <time>2025-01-25T10:56:21Z</time>
      </trkpt>
      <trkpt lat="44.91163" lon="6.73487">
        <ele>2261.5</ele>
        <time>2025-01-25T10:56:27Z</time>
      </trkpt>
      <trkpt lat="44.91163" lon="6.73494">
        <ele>2262.8</ele>
        <time>2025-01-25T10:56:33Z</time>
      </trkpt>
      <trkpt lat="44.91165" lon="6.735">
        <ele>2262.8</ele>
        <time>2025-01-25T10:56:40Z</time>
      </trkpt>
      <trkpt lat="44.91164" lon="6.73504">
        <ele>2263.4</ele>
        <time>2025-01-25T10:56:47Z</time>
      </trkpt>
      <trkpt lat="44.91166" lon="6.73505">
        <ele>2263.4</ele>
        <time>2025-01-25T10:56:52Z</time>
      </trkpt>
      <trkpt lat="44.91165" lon="6.73506">
        <ele>2263.9</ele>
        <time>2025-01-25T10:56:58Z</time>
      </trkpt>
      <trkpt lat="44.91165" lon="6.73507">
        <ele>2263.9</ele>
        <time>2025-01-25T10:57:05Z</time>
      </trkpt>
      <trkpt lat="44.91165" lon="6.73507">
        <ele>2263.8</ele>
        <time>2025-01-25T10:57:12Z</time>
      </trkpt>
      <trkpt lat="44.91166" lon="6.73507">
        <ele>2263.8</ele>
        <time>2025-01-25T10:57:17Z</time>
      </trkpt>
      <trkpt lat="44.91165" lon="6.73508">
        <ele>2263.7</ele>
        <time>2025-01-25T10:57:24Z</time>
      </trkpt>
      <trkpt lat="44.91165" lon="6.73509">
        <ele>2263.7</ele>
        <time>2025-01-25T10:57:31Z</time>
      </trkpt>
      <trkpt lat="44.91165" lon="6.73508">
        <ele>2263.6</ele>
        <time>2025-01-25T10:57:36Z</time>
      </trkpt>
      <trkpt lat="44.91165" lon="6.73508">
        <ele>2263.5</ele>
        <time>2025-01-25T10:57:44Z</time>
      </trkpt>
      <trkpt lat="44.91165" lon="6.73508">
        <ele>2263.5</ele>
        <time>2025-01-25T10:57:50Z</time>
      </trkpt>
      <trkpt lat="44.91165" lon="6.73508">
        <ele>2263.4</ele>
        <time>2025-01-25T10:57:59Z</time>
      </trkpt>
      <trkpt lat="44.91165" lon="6.73509">
        <ele>2263.4</ele>
        <time>2025-01-25T10:58:06Z</time>
      </trkpt>
      <trkpt lat="44.91164" lon="6.73508">
        <ele>2263.3</ele>
        <time>2025-01-25T10:58:15Z</time>
      </trkpt>
      <trkpt lat="44.91164" lon="6.73508">
        <ele>2263.3</ele>
        <time>2025-01-25T10:58:23Z</time>
      </trkpt>
      <trkpt lat="44.91164" lon="6.73508">
        <ele>2263.2</ele>
        <time>2025-01-25T10:58:33Z</time>
      </trkpt>
      <trkpt lat="44.91165" lon="6.73509">
        <ele>2263.8</ele>
        <time>2025-01-25T10:58:37Z</time>
      </trkpt>
      <trkpt lat="44.91163" lon="6.73509">
        <ele>2263.7</ele>
        <time>2025-01-25T10:58:42Z</time>
      </trkpt>
      <trkpt lat="44.91163" lon="6.7351">
        <ele>2264.3</ele>
        <time>2025-01-25T10:58:49Z</time>
      </trkpt>
      <trkpt lat="44.91163" lon="6.7351">
        <ele>2264.2</ele>
        <time>2025-01-25T10:58:55Z</time>
      </trkpt>
      <trkpt lat="44.91164" lon="6.7351">
        <ele>2263.5</ele>
        <time>2025-01-25T10:59:01Z</time>
      </trkpt>
      <trkpt lat="44.91165" lon="6.7351">
        <ele>2263.5</ele>
        <time>2025-01-25T10:59:07Z</time>
      </trkpt>
      <trkpt lat="44.91169" lon="6.7351">
        <ele>2262.8</ele>
        <time>2025-01-25T10:59:12Z</time>
      </trkpt>
      <trkpt lat="44.91169" lon="6.7351">
        <ele>2262.7</ele>
        <time>2025-01-25T10:59:20Z</time>
      </trkpt>
      <trkpt lat="44.91169" lon="6.73509">
        <ele>2262.7</ele>
        <time>2025-01-25T10:59:30Z</time>
      </trkpt>
      <trkpt lat="44.91169" lon="6.73509">
        <ele>2262</ele>
        <time>2025-01-25T10:59:36Z</time>
      </trkpt>
      <trkpt lat="44.91169" lon="6.73509">
        <ele>2261.9</ele>
        <time>2025-01-25T10:59:46Z</time>
      </trkpt>
      <trkpt lat="44.91169" lon="6.7351">
        <ele>2262.5</ele>
        <time>2025-01-25T10:59:56Z</time>
      </trkpt>
      <trkpt lat="44.9117" lon="6.73511">
        <ele>2261.8</ele>
        <time>2025-01-25T11:00:03Z</time>
      </trkpt>
      <trkpt lat="44.9117" lon="6.73511">
        <ele>2261.8</ele>
        <time>2025-01-25T11:00:09Z</time>
      </trkpt>
      <trkpt lat="44.91168" lon="6.73514">
        <ele>2262.9</ele>
        <time>2025-01-25T11:00:16Z</time>
      </trkpt>
      <trkpt lat="44.91163" lon="6.73516">
        <ele>2264.1</ele>
        <time>2025-01-25T11:00:21Z</time>
      </trkpt>
      <trkpt lat="44.91163" lon="6.73518">
        <ele>2264.1</ele>
        <time>2025-01-25T11:00:27Z</time>
      </trkpt>
      <trkpt lat="44.91164" lon="6.73518">
        <ele>2263.4</ele>
        <time>2025-01-25T11:00:33Z</time>
      </trkpt>
      <trkpt lat="44.91163" lon="6.73518">
        <ele>2264.5</ele>
        <time>2025-01-25T11:00:38Z</time>
      </trkpt>
      <trkpt lat="44.91161" lon="6.73519">
        <ele>2264.5</ele>
        <time>2025-01-25T11:00:44Z</time>
      </trkpt>
      <trkpt lat="44.91158" lon="6.73526">
        <ele>2266.2</ele>
        <time>2025-01-25T11:00:50Z</time>
      </trkpt>
      <trkpt lat="44.91156" lon="6.73528">
        <ele>2266.8</ele>
        <time>2025-01-25T11:00:54Z</time>
      </trkpt>
      <trkpt lat="44.91154" lon="6.73533">
        <ele>2267.9</ele>
        <time>2025-01-25T11:00:59Z</time>
      </trkpt>
      <trkpt lat="44.91151" lon="6.73538">
        <ele>2269.1</ele>
        <time>2025-01-25T11:01:05Z</time>
      </trkpt>
      <trkpt lat="44.91148" lon="6.73544">
        <ele>2270.6</ele>
        <time>2025-01-25T11:01:11Z</time>
      </trkpt>
      <trkpt lat="44.91145" lon="6.73549">
        <ele>2271</ele>
        <time>2025-01-25T11:01:17Z</time>
      </trkpt>
      <trkpt lat="44.91142" lon="6.73552">
        <ele>2271.6</ele>
        <time>2025-01-25T11:01:22Z</time>
      </trkpt>
      <trkpt lat="44.9114" lon="6.73556">
        <ele>2272.5</ele>
        <time>2025-01-25T11:01:27Z</time>
      </trkpt>
      <trkpt lat="44.9114" lon="6.73556">
        <ele>2272.8</ele>
        <time>2025-01-25T11:01:33Z</time>
      </trkpt>
      <trkpt lat="44.9114" lon="6.73556">
        <ele>2272.7</ele>
        <time>2025-01-25T11:01:47Z</time>
      </trkpt>
      <trkpt lat="44.9114" lon="6.73556">
        <ele>2272.7</ele>
        <time>2025-01-25T11:02:00Z</time>
      </trkpt>
      <trkpt lat="44.9114" lon="6.73556">
        <ele>2272.3</ele>
        <time>2025-01-25T11:02:13Z</time>
      </trkpt>
      <trkpt lat="44.91137" lon="6.73558">
        <ele>2273.2</ele>
        <time>2025-01-25T11:02:22Z</time>
      </trkpt>
      <trkpt lat="44.91132" lon="6.73559">
        <ele>2274.5</ele>
        <time>2025-01-25T11:02:28Z</time>
      </trkpt>
      <trkpt lat="44.91129" lon="6.73561">
        <ele>2275.3</ele>
        <time>2025-01-25T11:02:33Z</time>
      </trkpt>
      <trkpt lat="44.91126" lon="6.73563">
        <ele>2275.9</ele>
        <time>2025-01-25T11:02:37Z</time>
      </trkpt>
      <trkpt lat="44.91123" lon="6.73564">
        <ele>2276.4</ele>
        <time>2025-01-25T11:02:41Z</time>
      </trkpt>
      <trkpt lat="44.91119" lon="6.73567">
        <ele>2277.3</ele>
        <time>2025-01-25T11:02:46Z</time>
      </trkpt>
      <trkpt lat="44.91111" lon="6.7357">
        <ele>2279.4</ele>
        <time>2025-01-25T11:02:53Z</time>
      </trkpt>
      <trkpt lat="44.91109" lon="6.73572">
        <ele>2280</ele>
        <time>2025-01-25T11:02:57Z</time>
      </trkpt>
      <trkpt lat="44.91105" lon="6.73573">
        <ele>2280.6</ele>
        <time>2025-01-25T11:03:04Z</time>
      </trkpt>
      <trkpt lat="44.91101" lon="6.73576">
        <ele>2281.4</ele>
        <time>2025-01-25T11:03:09Z</time>
      </trkpt>
      <trkpt lat="44.911" lon="6.73578">
        <ele>2282</ele>
        <time>2025-01-25T11:03:13Z</time>
      </trkpt>
      <trkpt lat="44.91097" lon="6.73579">
        <ele>2281.9</ele>
        <time>2025-01-25T11:03:19Z</time>
      </trkpt>
      <trkpt lat="44.91093" lon="6.73582">
        <ele>2282.9</ele>
        <time>2025-01-25T11:03:24Z</time>
      </trkpt>
      <trkpt lat="44.9109" lon="6.73582">
        <ele>2283.5</ele>
        <time>2025-01-25T11:03:27Z</time>
      </trkpt>
      <trkpt lat="44.9109" lon="6.73583">
        <ele>2283.5</ele>
        <time>2025-01-25T11:03:29Z</time>
      </trkpt>
      <trkpt lat="44.91089" lon="6.73584">
        <ele>2283.4</ele>
        <time>2025-01-25T11:03:35Z</time>
      </trkpt>
      <trkpt lat="44.91086" lon="6.73585">
        <ele>2284</ele>
        <time>2025-01-25T11:03:45Z</time>
      </trkpt>
      <trkpt lat="44.91083" lon="6.73586">
        <ele>2284.6</ele>
        <time>2025-01-25T11:03:47Z</time>
      </trkpt>
      <trkpt lat="44.91083" lon="6.73586">
        <ele>2284.5</ele>
        <time>2025-01-25T11:03:50Z</time>
      </trkpt>
      <trkpt lat="44.91082" lon="6.73591">
        <ele>2284.6</ele>
        <time>2025-01-25T11:03:55Z</time>
      </trkpt>
      <trkpt lat="44.91079" lon="6.73595">
        <ele>2285.1</ele>
        <time>2025-01-25T11:03:59Z</time>
      </trkpt>
      <trkpt lat="44.91078" lon="6.73596">
        <ele>2285.7</ele>
        <time>2025-01-25T11:04:04Z</time>
      </trkpt>
      <trkpt lat="44.91075" lon="6.73598">
        <ele>2286.2</ele>
        <time>2025-01-25T11:04:08Z</time>
      </trkpt>
      <trkpt lat="44.91074" lon="6.73601">
        <ele>2286.2</ele>
        <time>2025-01-25T11:04:13Z</time>
      </trkpt>
      <trkpt lat="44.91071" lon="6.73602">
        <ele>2286.6</ele>
        <time>2025-01-25T11:04:17Z</time>
      </trkpt>
      <trkpt lat="44.91067" lon="6.73605">
        <ele>2287</ele>
        <time>2025-01-25T11:04:23Z</time>
      </trkpt>
      <trkpt lat="44.91066" lon="6.73605">
        <ele>2287.5</ele>
        <time>2025-01-25T11:04:30Z</time>
      </trkpt>
      <trkpt lat="44.91063" lon="6.73608">
        <ele>2287.4</ele>
        <time>2025-01-25T11:04:36Z</time>
      </trkpt>
      <trkpt lat="44.91059" lon="6.73612">
        <ele>2288.4</ele>
        <time>2025-01-25T11:04:41Z</time>
      </trkpt>
      <trkpt lat="44.91059" lon="6.73615">
        <ele>2288.3</ele>
        <time>2025-01-25T11:04:46Z</time>
      </trkpt>
      <trkpt lat="44.91059" lon="6.73615">
        <ele>2288.2</ele>
        <time>2025-01-25T11:04:52Z</time>
      </trkpt>
      <trkpt lat="44.91059" lon="6.73615">
        <ele>2288.2</ele>
        <time>2025-01-25T11:05:05Z</time>
      </trkpt>
      <trkpt lat="44.91059" lon="6.73615">
        <ele>2288.1</ele>
        <time>2025-01-25T11:05:21Z</time>
      </trkpt>
      <trkpt lat="44.9106" lon="6.73616">
        <ele>2288.1</ele>
        <time>2025-01-25T11:05:41Z</time>
      </trkpt>
      <trkpt lat="44.9106" lon="6.73616">
        <ele>2288</ele>
        <time>2025-01-25T11:05:58Z</time>
      </trkpt>
      <trkpt lat="44.9106" lon="6.73615">
        <ele>2288</ele>
        <time>2025-01-25T11:06:10Z</time>
      </trkpt>
      <trkpt lat="44.9106" lon="6.73615">
        <ele>2287.9</ele>
        <time>2025-01-25T11:06:20Z</time>
      </trkpt>
      <trkpt lat="44.9106" lon="6.73615">
        <ele>2287.8</ele>
        <time>2025-01-25T11:06:31Z</time>
      </trkpt>
      <trkpt lat="44.91059" lon="6.73614">
        <ele>2287.8</ele>
        <time>2025-01-25T11:06:40Z</time>
      </trkpt>
      <trkpt lat="44.91057" lon="6.73615">
        <ele>2288.2</ele>
        <time>2025-01-25T11:06:46Z</time>
      </trkpt>
      <trkpt lat="44.91056" lon="6.73615">
        <ele>2288.2</ele>
        <time>2025-01-25T11:06:51Z</time>
      </trkpt>
      <trkpt lat="44.91054" lon="6.73614">
        <ele>2288.1</ele>
        <time>2025-01-25T11:06:56Z</time>
      </trkpt>
      <trkpt lat="44.91052" lon="6.73617">
        <ele>2288.4</ele>
        <time>2025-01-25T11:07:03Z</time>
      </trkpt>
      <trkpt lat="44.91052" lon="6.73617">
        <ele>2288.4</ele>
        <time>2025-01-25T11:07:09Z</time>
      </trkpt>
      <trkpt lat="44.91051" lon="6.73618">
        <ele>2288.3</ele>
        <time>2025-01-25T11:07:21Z</time>
      </trkpt>
      <trkpt lat="44.91048" lon="6.73618">
        <ele>2288.7</ele>
        <time>2025-01-25T11:07:29Z</time>
      </trkpt>
      <trkpt lat="44.91042" lon="6.73621">
        <ele>2289.8</ele>
        <time>2025-01-25T11:07:38Z</time>
      </trkpt>
      <trkpt lat="44.91042" lon="6.73621">
        <ele>2289.8</ele>
        <time>2025-01-25T11:07:50Z</time>
      </trkpt>
      <trkpt lat="44.91041" lon="6.73622">
        <ele>2289.5</ele>
        <time>2025-01-25T11:07:55Z</time>
      </trkpt>
      <trkpt lat="44.91041" lon="6.73623">
        <ele>2289.5</ele>
        <time>2025-01-25T11:08:08Z</time>
      </trkpt>
      <trkpt lat="44.91041" lon="6.73625">
        <ele>2289.4</ele>
        <time>2025-01-25T11:08:17Z</time>
      </trkpt>
      <trkpt lat="44.91032" lon="6.73628">
        <ele>2290.5</ele>
        <time>2025-01-25T11:08:25Z</time>
      </trkpt>
      <trkpt lat="44.91029" lon="6.73629">
        <ele>2290.7</ele>
        <time>2025-01-25T11:08:32Z</time>
      </trkpt>
      <trkpt lat="44.91023" lon="6.73628">
        <ele>2291.9</ele>
        <time>2025-01-25T11:08:40Z</time>
      </trkpt>
      <trkpt lat="44.91018" lon="6.73628">
        <ele>2292.3</ele>
        <time>2025-01-25T11:08:50Z</time>
      </trkpt>
      <trkpt lat="44.91009" lon="6.73626">
        <ele>2293.7</ele>
        <time>2025-01-25T11:08:59Z</time>
      </trkpt>
      <trkpt lat="44.91002" lon="6.73622">
        <ele>2294.3</ele>
        <time>2025-01-25T11:09:08Z</time>
      </trkpt>
      <trkpt lat="44.90996" lon="6.73621">
        <ele>2294.9</ele>
        <time>2025-01-25T11:09:15Z</time>
      </trkpt>
      <trkpt lat="44.90993" lon="6.73618">
        <ele>2295.3</ele>
        <time>2025-01-25T11:09:23Z</time>
      </trkpt>
      <trkpt lat="44.90993" lon="6.73618">
        <ele>2295.3</ele>
        <time>2025-01-25T11:09:36Z</time>
      </trkpt>
      <trkpt lat="44.90993" lon="6.73618">
        <ele>2295.3</ele>
        <time>2025-01-25T11:09:47Z</time>
      </trkpt>
      <trkpt lat="44.90994" lon="6.73618">
        <ele>2295.4</ele>
        <time>2025-01-25T11:09:49Z</time>
      </trkpt>
      <trkpt lat="44.90995" lon="6.73617">
        <ele>2295.7</ele>
        <time>2025-01-25T11:09:52Z</time>
      </trkpt>
      <trkpt lat="44.90995" lon="6.73617">
        <ele>2295.7</ele>
        <time>2025-01-25T11:10:01Z</time>
      </trkpt>
      <trkpt lat="44.90988" lon="6.73605">
        <ele>2297.8</ele>
        <time>2025-01-25T11:10:09Z</time>
      </trkpt>
      <trkpt lat="44.90985" lon="6.736">
        <ele>2298.8</ele>
        <time>2025-01-25T11:10:16Z</time>
      </trkpt>
      <trkpt lat="44.90981" lon="6.73593">
        <ele>2300.3</ele>
        <time>2025-01-25T11:10:23Z</time>
      </trkpt>
      <trkpt lat="44.90977" lon="6.73592">
        <ele>2301.4</ele>
        <time>2025-01-25T11:10:26Z</time>
      </trkpt>
      <trkpt lat="44.90975" lon="6.73594">
        <ele>2301.8</ele>
        <time>2025-01-25T11:10:28Z</time>
      </trkpt>
      <trkpt lat="44.90969" lon="6.73595">
        <ele>2303.1</ele>
        <time>2025-01-25T11:10:34Z</time>
      </trkpt>
      <trkpt lat="44.90964" lon="6.73597">
        <ele>2304.2</ele>
        <time>2025-01-25T11:10:40Z</time>
      </trkpt>
      <trkpt lat="44.9096" lon="6.73599">
        <ele>2305.2</ele>
        <time>2025-01-25T11:10:46Z</time>
      </trkpt>
      <trkpt lat="44.90956" lon="6.73601">
        <ele>2306.2</ele>
        <time>2025-01-25T11:10:52Z</time>
      </trkpt>
      <trkpt lat="44.9095" lon="6.73604">
        <ele>2307.5</ele>
        <time>2025-01-25T11:10:59Z</time>
      </trkpt>
      <trkpt lat="44.90944" lon="6.73602">
        <ele>2309</ele>
        <time>2025-01-25T11:11:05Z</time>
      </trkpt>
      <trkpt lat="44.9094" lon="6.73604">
        <ele>2309.7</ele>
        <time>2025-01-25T11:11:11Z</time>
      </trkpt>
      <trkpt lat="44.90936" lon="6.73604">
        <ele>2310.6</ele>
        <time>2025-01-25T11:11:18Z</time>
      </trkpt>
      <trkpt lat="44.90934" lon="6.73604">
        <ele>2311.1</ele>
        <time>2025-01-25T11:11:25Z</time>
      </trkpt>
      <trkpt lat="44.90931" lon="6.73604">
        <ele>2311.6</ele>
        <time>2025-01-25T11:11:32Z</time>
      </trkpt>
      <trkpt lat="44.90928" lon="6.73606">
        <ele>2312.2</ele>
        <time>2025-01-25T11:11:40Z</time>
      </trkpt>
      <trkpt lat="44.90926" lon="6.73605">
        <ele>2312.8</ele>
        <time>2025-01-25T11:11:49Z</time>
      </trkpt>
      <trkpt lat="44.90921" lon="6.73606">
        <ele>2313.8</ele>
        <time>2025-01-25T11:11:55Z</time>
      </trkpt>
      <trkpt lat="44.90915" lon="6.73607">
        <ele>2315</ele>
        <time>2025-01-25T11:12:02Z</time>
      </trkpt>
      <trkpt lat="44.90911" lon="6.73611">
        <ele>2316.2</ele>
        <time>2025-01-25T11:12:08Z</time>
      </trkpt>
      <trkpt lat="44.90906" lon="6.73613">
        <ele>2317.3</ele>
        <time>2025-01-25T11:12:15Z</time>
      </trkpt>
      <trkpt lat="44.909" lon="6.73614">
        <ele>2319</ele>
        <time>2025-01-25T11:12:22Z</time>
      </trkpt>
      <trkpt lat="44.90897" lon="6.73615">
        <ele>2319.8</ele>
        <time>2025-01-25T11:12:27Z</time>
      </trkpt>
      <trkpt lat="44.90893" lon="6.73616">
        <ele>2320.9</ele>
        <time>2025-01-25T11:12:32Z</time>
      </trkpt>
      <trkpt lat="44.90893" lon="6.73618">
        <ele>2321.3</ele>
        <time>2025-01-25T11:12:38Z</time>
      </trkpt>
      <trkpt lat="44.90893" lon="6.73618">
        <ele>2321.3</ele>
        <time>2025-01-25T11:12:50Z</time>
      </trkpt>
      <trkpt lat="44.90893" lon="6.73618">
        <ele>2321.3</ele>
        <time>2025-01-25T11:13:10Z</time>
      </trkpt>
      <trkpt lat="44.90893" lon="6.73618">
        <ele>2321.3</ele>
        <time>2025-01-25T11:13:23Z</time>
      </trkpt>
      <trkpt lat="44.90892" lon="6.73621">
        <ele>2321.8</ele>
        <time>2025-01-25T11:13:30Z</time>
      </trkpt>
      <trkpt lat="44.90892" lon="6.73621">
        <ele>2322</ele>
        <time>2025-01-25T11:13:37Z</time>
      </trkpt>
      <trkpt lat="44.9089" lon="6.73622">
        <ele>2322.6</ele>
        <time>2025-01-25T11:13:45Z</time>
      </trkpt>
      <trkpt lat="44.90884" lon="6.73622">
        <ele>2324.4</ele>
        <time>2025-01-25T11:13:54Z</time>
      </trkpt>
      <trkpt lat="44.90878" lon="6.73622">
        <ele>2326.3</ele>
        <time>2025-01-25T11:14:02Z</time>
      </trkpt>
      <trkpt lat="44.90877" lon="6.73625">
        <ele>2326.9</ele>
        <time>2025-01-25T11:14:10Z</time>
      </trkpt>
      <trkpt lat="44.90878" lon="6.73627">
        <ele>2327.4</ele>
        <time>2025-01-25T11:14:19Z</time>
      </trkpt>
      <trkpt lat="44.90878" lon="6.73627">
        <ele>2327.4</ele>
        <time>2025-01-25T11:14:33Z</time>
      </trkpt>
      <trkpt lat="44.90876" lon="6.7363">
        <ele>2328.4</ele>
        <time>2025-01-25T11:14:45Z</time>
      </trkpt>
      <trkpt lat="44.90874" lon="6.73631">
        <ele>2328.9</ele>
        <time>2025-01-25T11:14:53Z</time>
      </trkpt>
      <trkpt lat="44.90873" lon="6.73635">
        <ele>2330.1</ele>
        <time>2025-01-25T11:15:00Z</time>
      </trkpt>
      <trkpt lat="44.90873" lon="6.73635">
        <ele>2330.2</ele>
        <time>2025-01-25T11:15:08Z</time>
      </trkpt>
      <trkpt lat="44.90873" lon="6.73635">
        <ele>2330.2</ele>
        <time>2025-01-25T11:15:25Z</time>
      </trkpt>
      <trkpt lat="44.90871" lon="6.73637">
        <ele>2331.2</ele>
        <time>2025-01-25T11:15:35Z</time>
      </trkpt>
      <trkpt lat="44.90867" lon="6.7364">
        <ele>2332.7</ele>
        <time>2025-01-25T11:15:48Z</time>
      </trkpt>
      <trkpt lat="44.90867" lon="6.7364">
        <ele>2332.7</ele>
        <time>2025-01-25T11:16:00Z</time>
      </trkpt>
      <trkpt lat="44.90866" lon="6.73639">
        <ele>2333.1</ele>
        <time>2025-01-25T11:16:11Z</time>
      </trkpt>
      <trkpt lat="44.90866" lon="6.73639">
        <ele>2333.1</ele>
        <time>2025-01-25T11:16:22Z</time>
      </trkpt>
      <trkpt lat="44.90862" lon="6.73642">
        <ele>2334.4</ele>
        <time>2025-01-25T11:16:35Z</time>
      </trkpt>
      <trkpt lat="44.90859" lon="6.73642">
        <ele>2335.2</ele>
        <time>2025-01-25T11:16:44Z</time>
      </trkpt>
      <trkpt lat="44.90856" lon="6.73644">
        <ele>2336.2</ele>
        <time>2025-01-25T11:16:55Z</time>
      </trkpt>
      <trkpt lat="44.90853" lon="6.73647">
        <ele>2337.5</ele>
        <time>2025-01-25T11:17:03Z</time>
      </trkpt>
      <trkpt lat="44.9085" lon="6.73651">
        <ele>2338.6</ele>
        <time>2025-01-25T11:17:11Z</time>
      </trkpt>
      <trkpt lat="44.90847" lon="6.73654">
        <ele>2339.8</ele>
        <time>2025-01-25T11:17:18Z</time>
      </trkpt>
      <trkpt lat="44.90844" lon="6.73653">
        <ele>2340.4</ele>
        <time>2025-01-25T11:17:26Z</time>
      </trkpt>
      <trkpt lat="44.90839" lon="6.73653">
        <ele>2342</ele>
        <time>2025-01-25T11:17:35Z</time>
      </trkpt>
      <trkpt lat="44.90836" lon="6.73656">
        <ele>2342.9</ele>
        <time>2025-01-25T11:17:42Z</time>
      </trkpt>
      <trkpt lat="44.90831" lon="6.73662">
        <ele>2344.4</ele>
        <time>2025-01-25T11:17:51Z</time>
      </trkpt>
      <trkpt lat="44.90829" lon="6.73664">
        <ele>2344.9</ele>
        <time>2025-01-25T11:18:01Z</time>
      </trkpt>
      <trkpt lat="44.90829" lon="6.73664">
        <ele>2344.9</ele>
        <time>2025-01-25T11:18:14Z</time>
      </trkpt>
      <trkpt lat="44.90829" lon="6.73664">
        <ele>2344.9</ele>
        <time>2025-01-25T11:18:26Z</time>
      </trkpt>
      <trkpt lat="44.90827" lon="6.73669">
        <ele>2345.8</ele>
        <time>2025-01-25T11:18:33Z</time>
      </trkpt>
      <trkpt lat="44.90825" lon="6.73674">
        <ele>2346.5</ele>
        <time>2025-01-25T11:18:42Z</time>
      </trkpt>
      <trkpt lat="44.90823" lon="6.73679">
        <ele>2347.2</ele>
        <time>2025-01-25T11:18:49Z</time>
      </trkpt>
      <trkpt lat="44.90821" lon="6.73682">
        <ele>2347.7</ele>
        <time>2025-01-25T11:18:56Z</time>
      </trkpt>
      <trkpt lat="44.9082" lon="6.73683">
        <ele>2347.9</ele>
        <time>2025-01-25T11:19:11Z</time>
      </trkpt>
      <trkpt lat="44.90816" lon="6.73688">
        <ele>2348.8</ele>
        <time>2025-01-25T11:19:18Z</time>
      </trkpt>
      <trkpt lat="44.90817" lon="6.73693">
        <ele>2349.4</ele>
        <time>2025-01-25T11:19:24Z</time>
      </trkpt>
      <trkpt lat="44.90814" lon="6.73697">
        <ele>2350.3</ele>
        <time>2025-01-25T11:19:33Z</time>
      </trkpt>
      <trkpt lat="44.90811" lon="6.737">
        <ele>2351.1</ele>
        <time>2025-01-25T11:19:44Z</time>
      </trkpt>
      <trkpt lat="44.90809" lon="6.73707">
        <ele>2352.2</ele>
        <time>2025-01-25T11:19:51Z</time>
      </trkpt>
      <trkpt lat="44.90806" lon="6.7371">
        <ele>2353.2</ele>
        <time>2025-01-25T11:19:59Z</time>
      </trkpt>
      <trkpt lat="44.90806" lon="6.73712">
        <ele>2353.6</ele>
        <time>2025-01-25T11:20:08Z</time>
      </trkpt>
      <trkpt lat="44.90803" lon="6.73717">
        <ele>2354.7</ele>
        <time>2025-01-25T11:20:15Z</time>
      </trkpt>
      <trkpt lat="44.90803" lon="6.73717">
        <ele>2354.7</ele>
        <time>2025-01-25T11:20:24Z</time>
      </trkpt>
      <trkpt lat="44.90803" lon="6.73717">
        <ele>2354.7</ele>
        <time>2025-01-25T11:20:36Z</time>
      </trkpt>
      <trkpt lat="44.90803" lon="6.73721">
        <ele>2355.6</ele>
        <time>2025-01-25T11:20:49Z</time>
      </trkpt>
      <trkpt lat="44.90806" lon="6.73728">
        <ele>2355</ele>
        <time>2025-01-25T11:20:56Z</time>
      </trkpt>
      <trkpt lat="44.90811" lon="6.73735">
        <ele>2354.5</ele>
        <time>2025-01-25T11:21:02Z</time>
      </trkpt>
      <trkpt lat="44.90811" lon="6.73739">
        <ele>2354.7</ele>
        <time>2025-01-25T11:21:08Z</time>
      </trkpt>
      <trkpt lat="44.90813" lon="6.73746">
        <ele>2354.6</ele>
        <time>2025-01-25T11:21:16Z</time>
      </trkpt>
      <trkpt lat="44.90814" lon="6.73753">
        <ele>2355</ele>
        <time>2025-01-25T11:21:22Z</time>
      </trkpt>
      <trkpt lat="44.90813" lon="6.73762">
        <ele>2355.8</ele>
        <time>2025-01-25T11:21:29Z</time>
      </trkpt>
      <trkpt lat="44.90813" lon="6.73767">
        <ele>2356.6</ele>
        <time>2025-01-25T11:21:35Z</time>
      </trkpt>
      <trkpt lat="44.90812" lon="6.73776">
        <ele>2357.4</ele>
        <time>2025-01-25T11:21:46Z</time>
      </trkpt>
      <trkpt lat="44.90812" lon="6.73786">
        <ele>2358.1</ele>
        <time>2025-01-25T11:21:55Z</time>
      </trkpt>
      <trkpt lat="44.90813" lon="6.73792">
        <ele>2358.5</ele>
        <time>2025-01-25T11:22:02Z</time>
      </trkpt>
      <trkpt lat="44.90813" lon="6.73792">
        <ele>2358.6</ele>
        <time>2025-01-25T11:22:10Z</time>
      </trkpt>
      <trkpt lat="44.90813" lon="6.73792">
        <ele>2358.6</ele>
        <time>2025-01-25T11:22:18Z</time>
      </trkpt>
      <trkpt lat="44.90813" lon="6.73792">
        <ele>2358.6</ele>
        <time>2025-01-25T11:22:27Z</time>
      </trkpt>
      <trkpt lat="44.90813" lon="6.73792">
        <ele>2358.7</ele>
        <time>2025-01-25T11:22:39Z</time>
      </trkpt>
      <trkpt lat="44.90813" lon="6.73792">
        <ele>2358.7</ele>
        <time>2025-01-25T11:22:40Z</time>
      </trkpt>
      <trkpt lat="44.90813" lon="6.73792">
        <ele>2358.8</ele>
        <time>2025-01-25T11:29:30Z</time>
      </trkpt>
      <trkpt lat="44.90737" lon="6.73857">
        <ele>2379.6</ele>
        <time>2025-01-25T11:29:40Z</time>
      </trkpt>
      <trkpt lat="44.90731" lon="6.73852">
        <ele>2378.5</ele>
        <time>2025-01-25T11:29:47Z</time>
      </trkpt>
      <trkpt lat="44.9073" lon="6.73855">
        <ele>2379.3</ele>
        <time>2025-01-25T11:29:55Z</time>
      </trkpt>
      <trkpt lat="44.90728" lon="6.73857">
        <ele>2380.4</ele>
        <time>2025-01-25T11:30:00Z</time>
      </trkpt>
      <trkpt lat="44.90725" lon="6.73861">
        <ele>2380.7</ele>
        <time>2025-01-25T11:30:05Z</time>
      </trkpt>
      <trkpt lat="44.90721" lon="6.73864">
        <ele>2381.8</ele>
        <time>2025-01-25T11:30:11Z</time>
      </trkpt>
      <trkpt lat="44.90716" lon="6.73865">
        <ele>2382.4</ele>
        <time>2025-01-25T11:30:17Z</time>
      </trkpt>
      <trkpt lat="44.90711" lon="6.73867">
        <ele>2383.4</ele>
        <time>2025-01-25T11:30:22Z</time>
      </trkpt>
      <trkpt lat="44.90708" lon="6.7387">
        <ele>2384.3</ele>
        <time>2025-01-25T11:30:27Z</time>
      </trkpt>
      <trkpt lat="44.90704" lon="6.73872">
        <ele>2384.8</ele>
        <time>2025-01-25T11:30:32Z</time>
      </trkpt>
      <trkpt lat="44.90699" lon="6.73876">
        <ele>2385.9</ele>
        <time>2025-01-25T11:30:38Z</time>
      </trkpt>
      <trkpt lat="44.90695" lon="6.73877">
        <ele>2386.7</ele>
        <time>2025-01-25T11:30:44Z</time>
      </trkpt>
      <trkpt lat="44.9069" lon="6.73879">
        <ele>2387.9</ele>
        <time>2025-01-25T11:30:51Z</time>
      </trkpt>
      <trkpt lat="44.90684" lon="6.73882">
        <ele>2388.6</ele>
        <time>2025-01-25T11:30:59Z</time>
      </trkpt>
      <trkpt lat="44.90678" lon="6.73886">
        <ele>2390.1</ele>
        <time>2025-01-25T11:31:08Z</time>
      </trkpt>
      <trkpt lat="44.90675" lon="6.73888">
        <ele>2391.3</ele>
        <time>2025-01-25T11:31:15Z</time>
      </trkpt>
      <trkpt lat="44.90671" lon="6.73892">
        <ele>2392.9</ele>
        <time>2025-01-25T11:31:23Z</time>
      </trkpt>
      <trkpt lat="44.9067" lon="6.73894">
        <ele>2393</ele>
        <time>2025-01-25T11:31:31Z</time>
      </trkpt>
      <trkpt lat="44.90668" lon="6.73895">
        <ele>2393.5</ele>
        <time>2025-01-25T11:31:40Z</time>
      </trkpt>
      <trkpt lat="44.90665" lon="6.73897">
        <ele>2394.8</ele>
        <time>2025-01-25T11:31:46Z</time>
      </trkpt>
      <trkpt lat="44.90661" lon="6.73899">
        <ele>2395.4</ele>
        <time>2025-01-25T11:31:54Z</time>
      </trkpt>
      <trkpt lat="44.9066" lon="6.73899">
        <ele>2395.4</ele>
        <time>2025-01-25T11:31:59Z</time>
      </trkpt>
      <trkpt lat="44.90658" lon="6.739">
        <ele>2396.7</ele>
        <time>2025-01-25T11:32:09Z</time>
      </trkpt>
      <trkpt lat="44.90656" lon="6.73906">
        <ele>2397.9</ele>
        <time>2025-01-25T11:32:16Z</time>
      </trkpt>
      <trkpt lat="44.90654" lon="6.73905">
        <ele>2398</ele>
        <time>2025-01-25T11:32:22Z</time>
      </trkpt>
      <trkpt lat="44.90654" lon="6.73905">
        <ele>2398</ele>
        <time>2025-01-25T11:32:32Z</time>
      </trkpt>
      <trkpt lat="44.90648" lon="6.73907">
        <ele>2399.3</ele>
        <time>2025-01-25T11:32:39Z</time>
      </trkpt>
      <trkpt lat="44.90644" lon="6.73909">
        <ele>2401.3</ele>
        <time>2025-01-25T11:32:47Z</time>
      </trkpt>
      <trkpt lat="44.90644" lon="6.73911">
        <ele>2401.3</ele>
        <time>2025-01-25T11:32:56Z</time>
      </trkpt>
      <trkpt lat="44.90644" lon="6.73911">
        <ele>2401.4</ele>
        <time>2025-01-25T11:33:03Z</time>
      </trkpt>
      <trkpt lat="44.90644" lon="6.73911">
        <ele>2401.4</ele>
        <time>2025-01-25T11:33:11Z</time>
      </trkpt>
      <trkpt lat="44.90644" lon="6.73911">
        <ele>2401.5</ele>
        <time>2025-01-25T11:33:20Z</time>
      </trkpt>
      <trkpt lat="44.90644" lon="6.73911">
        <ele>2401.5</ele>
        <time>2025-01-25T11:33:27Z</time>
      </trkpt>
      <trkpt lat="44.90644" lon="6.73911">
        <ele>2401.5</ele>
        <time>2025-01-25T11:33:35Z</time>
      </trkpt>
      <trkpt lat="44.90644" lon="6.73911">
        <ele>2401.6</ele>
        <time>2025-01-25T11:33:43Z</time>
      </trkpt>
      <trkpt lat="44.90644" lon="6.73911">
        <ele>2401.6</ele>
        <time>2025-01-25T11:33:51Z</time>
      </trkpt>
      <trkpt lat="44.90644" lon="6.73911">
        <ele>2401.7</ele>
        <time>2025-01-25T11:33:58Z</time>
      </trkpt>
      <trkpt lat="44.90642" lon="6.73913">
        <ele>2402.3</ele>
        <time>2025-01-25T11:34:04Z</time>
      </trkpt>
      <trkpt lat="44.9064" lon="6.73915">
        <ele>2403.1</ele>
        <time>2025-01-25T11:34:13Z</time>
      </trkpt>
      <trkpt lat="44.90629" lon="6.73919">
        <ele>2406</ele>
        <time>2025-01-25T11:34:20Z</time>
      </trkpt>
      <trkpt lat="44.90621" lon="6.73921">
        <ele>2408.2</ele>
        <time>2025-01-25T11:34:29Z</time>
      </trkpt>
      <trkpt lat="44.90619" lon="6.73921">
        <ele>2409</ele>
        <time>2025-01-25T11:34:37Z</time>
      </trkpt>
      <trkpt lat="44.90619" lon="6.73921">
        <ele>2409.1</ele>
        <time>2025-01-25T11:34:45Z</time>
      </trkpt>
      <trkpt lat="44.90619" lon="6.73921">
        <ele>2409.1</ele>
        <time>2025-01-25T11:34:53Z</time>
      </trkpt>
      <trkpt lat="44.90619" lon="6.73921">
        <ele>2409.2</ele>
        <time>2025-01-25T11:35:02Z</time>
      </trkpt>
      <trkpt lat="44.90619" lon="6.73921">
        <ele>2409.2</ele>
        <time>2025-01-25T11:35:11Z</time>
      </trkpt>
      <trkpt lat="44.90619" lon="6.73922">
        <ele>2409.7</ele>
        <time>2025-01-25T11:35:19Z</time>
      </trkpt>
      <trkpt lat="44.90619" lon="6.73922">
        <ele>2409.7</ele>
        <time>2025-01-25T11:35:26Z</time>
      </trkpt>
      <trkpt lat="44.90619" lon="6.73922">
        <ele>2409.8</ele>
        <time>2025-01-25T11:35:35Z</time>
      </trkpt>
      <trkpt lat="44.90619" lon="6.73922">
        <ele>2409.8</ele>
        <time>2025-01-25T11:35:42Z</time>
      </trkpt>
      <trkpt lat="44.90619" lon="6.73922">
        <ele>2409.8</ele>
        <time>2025-01-25T11:35:49Z</time>
      </trkpt>
      <trkpt lat="44.90618" lon="6.73923">
        <ele>2409.9</ele>
        <time>2025-01-25T11:35:56Z</time>
      </trkpt>
      <trkpt lat="44.90618" lon="6.73923">
        <ele>2409.9</ele>
        <time>2025-01-25T11:36:05Z</time>
      </trkpt>
      <trkpt lat="44.90614" lon="6.73927">
        <ele>2411.3</ele>
        <time>2025-01-25T11:36:12Z</time>
      </trkpt>
      <trkpt lat="44.90614" lon="6.73927">
        <ele>2411.3</ele>
        <time>2025-01-25T11:36:19Z</time>
      </trkpt>
      <trkpt lat="44.90614" lon="6.73927">
        <ele>2411.4</ele>
        <time>2025-01-25T11:36:27Z</time>
      </trkpt>
      <trkpt lat="44.90614" lon="6.73927">
        <ele>2411.4</ele>
        <time>2025-01-25T11:36:34Z</time>
      </trkpt>
      <trkpt lat="44.90614" lon="6.73927">
        <ele>2411.5</ele>
        <time>2025-01-25T11:36:43Z</time>
      </trkpt>
      <trkpt lat="44.90606" lon="6.7393">
        <ele>2415</ele>
        <time>2025-01-25T11:36:51Z</time>
      </trkpt>
      <trkpt lat="44.90578" lon="6.73926">
        <ele>2425.3</ele>
        <time>2025-01-25T11:36:59Z</time>
      </trkpt>
      <trkpt lat="44.90572" lon="6.73931">
        <ele>2427.3</ele>
        <time>2025-01-25T11:37:05Z</time>
      </trkpt>
      <trkpt lat="44.90565" lon="6.73939">
        <ele>2429.3</ele>
        <time>2025-01-25T11:37:13Z</time>
      </trkpt>
      <trkpt lat="44.9056" lon="6.73947">
        <ele>2430.9</ele>
        <time>2025-01-25T11:37:20Z</time>
      </trkpt>
      <trkpt lat="44.90557" lon="6.73955">
        <ele>2432.2</ele>
        <time>2025-01-25T11:37:26Z</time>
      </trkpt>
      <trkpt lat="44.90557" lon="6.73961">
        <ele>2432.9</ele>
        <time>2025-01-25T11:37:32Z</time>
      </trkpt>
      <trkpt lat="44.90556" lon="6.7397">
        <ele>2434.1</ele>
        <time>2025-01-25T11:37:40Z</time>
      </trkpt>
      <trkpt lat="44.90554" lon="6.73977">
        <ele>2435</ele>
        <time>2025-01-25T11:37:47Z</time>
      </trkpt>
      <trkpt lat="44.90553" lon="6.73981">
        <ele>2435.5</ele>
        <time>2025-01-25T11:37:52Z</time>
      </trkpt>
      <trkpt lat="44.90549" lon="6.73987">
        <ele>2436.4</ele>
        <time>2025-01-25T11:37:59Z</time>
      </trkpt>
      <trkpt lat="44.90547" lon="6.73993">
        <ele>2437.2</ele>
        <time>2025-01-25T11:38:05Z</time>
      </trkpt>
      <trkpt lat="44.90547" lon="6.73999">
        <ele>2437.8</ele>
        <time>2025-01-25T11:38:11Z</time>
      </trkpt>
      <trkpt lat="44.90548" lon="6.74002">
        <ele>2438.2</ele>
        <time>2025-01-25T11:38:17Z</time>
      </trkpt>
      <trkpt lat="44.90548" lon="6.74006">
        <ele>2438.6</ele>
        <time>2025-01-25T11:38:23Z</time>
      </trkpt>
      <trkpt lat="44.90547" lon="6.74007">
        <ele>2438.7</ele>
        <time>2025-01-25T11:38:33Z</time>
      </trkpt>
      <trkpt lat="44.90545" lon="6.74013">
        <ele>2439.5</ele>
        <time>2025-01-25T11:38:39Z</time>
      </trkpt>
      <trkpt lat="44.90543" lon="6.74021">
        <ele>2440.4</ele>
        <time>2025-01-25T11:38:44Z</time>
      </trkpt>
      <trkpt lat="44.90541" lon="6.74026">
        <ele>2441.1</ele>
        <time>2025-01-25T11:38:50Z</time>
      </trkpt>
      <trkpt lat="44.9054" lon="6.74033">
        <ele>2442</ele>
        <time>2025-01-25T11:38:56Z</time>
      </trkpt>
      <trkpt lat="44.90538" lon="6.74041">
        <ele>2443</ele>
        <time>2025-01-25T11:39:02Z</time>
      </trkpt>
      <trkpt lat="44.90538" lon="6.74041">
        <ele>2443</ele>
        <time>2025-01-25T11:39:11Z</time>
      </trkpt>
      <trkpt lat="44.90538" lon="6.74041">
        <ele>2443</ele>
        <time>2025-01-25T11:39:27Z</time>
      </trkpt>
      <trkpt lat="44.90538" lon="6.74041">
        <ele>2443</ele>
        <time>2025-01-25T11:39:42Z</time>
      </trkpt>
      <trkpt lat="44.90538" lon="6.74041">
        <ele>2443</ele>
        <time>2025-01-25T11:39:59Z</time>
      </trkpt>
      <trkpt lat="44.90538" lon="6.74041">
        <ele>2443</ele>
        <time>2025-01-25T11:40:15Z</time>
      </trkpt>
      <trkpt lat="44.90538" lon="6.74041">
        <ele>2443</ele>
        <time>2025-01-25T11:40:25Z</time>
      </trkpt>
      <trkpt lat="44.90538" lon="6.74042">
        <ele>2443.1</ele>
        <time>2025-01-25T11:40:35Z</time>
      </trkpt>
      <trkpt lat="44.90536" lon="6.74051">
        <ele>2444.4</ele>
        <time>2025-01-25T11:40:41Z</time>
      </trkpt>
      <trkpt lat="44.90535" lon="6.7406">
        <ele>2445.6</ele>
        <time>2025-01-25T11:40:47Z</time>
      </trkpt>
      <trkpt lat="44.90533" lon="6.74066">
        <ele>2446.4</ele>
        <time>2025-01-25T11:40:53Z</time>
      </trkpt>
      <trkpt lat="44.90533" lon="6.74068">
        <ele>2446.6</ele>
        <time>2025-01-25T11:41:00Z</time>
      </trkpt>
      <trkpt lat="44.90533" lon="6.74068">
        <ele>2446.6</ele>
        <time>2025-01-25T11:41:08Z</time>
      </trkpt>
      <trkpt lat="44.90533" lon="6.74068">
        <ele>2446.6</ele>
        <time>2025-01-25T11:41:11Z</time>
      </trkpt>
      <trkpt lat="44.90533" lon="6.74068">
        <ele>2446.6</ele>
        <time>2025-01-25T11:41:13Z</time>
      </trkpt>
      <trkpt lat="44.90533" lon="6.74068">
        <ele>2446.7</ele>
        <time>2025-01-25T11:41:22Z</time>
      </trkpt>
      <trkpt lat="44.90534" lon="6.7407">
        <ele>2446.9</ele>
        <time>2025-01-25T11:41:32Z</time>
      </trkpt>
      <trkpt lat="44.90534" lon="6.7407">
        <ele>2446.9</ele>
        <time>2025-01-25T11:41:39Z</time>
      </trkpt>
      <trkpt lat="44.90534" lon="6.74074">
        <ele>2447.4</ele>
        <time>2025-01-25T11:41:46Z</time>
      </trkpt>
      <trkpt lat="44.90533" lon="6.74084">
        <ele>2448.7</ele>
        <time>2025-01-25T11:41:52Z</time>
      </trkpt>
      <trkpt lat="44.90533" lon="6.74086">
        <ele>2448.9</ele>
        <time>2025-01-25T11:41:53Z</time>
      </trkpt>
      <trkpt lat="44.90532" lon="6.74089">
        <ele>2449.3</ele>
        <time>2025-01-25T11:41:56Z</time>
      </trkpt>
      <trkpt lat="44.9053" lon="6.74093">
        <ele>2449.8</ele>
        <time>2025-01-25T11:42:00Z</time>
      </trkpt>
      <trkpt lat="44.90528" lon="6.74099">
        <ele>2450.5</ele>
        <time>2025-01-25T11:42:05Z</time>
      </trkpt>
      <trkpt lat="44.90526" lon="6.74106">
        <ele>2451.2</ele>
        <time>2025-01-25T11:42:11Z</time>
      </trkpt>
      <trkpt lat="44.90526" lon="6.74109">
        <ele>2451.5</ele>
        <time>2025-01-25T11:42:18Z</time>
      </trkpt>
      <trkpt lat="44.90526" lon="6.74109">
        <ele>2451.5</ele>
        <time>2025-01-25T11:42:31Z</time>
      </trkpt>
      <trkpt lat="44.90526" lon="6.74112">
        <ele>2451.7</ele>
        <time>2025-01-25T11:42:39Z</time>
      </trkpt>
      <trkpt lat="44.90526" lon="6.7412">
        <ele>2452.4</ele>
        <time>2025-01-25T11:42:45Z</time>
      </trkpt>
      <trkpt lat="44.90525" lon="6.74128">
        <ele>2453</ele>
        <time>2025-01-25T11:42:50Z</time>
      </trkpt>
      <trkpt lat="44.90524" lon="6.74135">
        <ele>2453.6</ele>
        <time>2025-01-25T11:42:55Z</time>
      </trkpt>
      <trkpt lat="44.90524" lon="6.7414">
        <ele>2454.1</ele>
        <time>2025-01-25T11:43:00Z</time>
      </trkpt>
      <trkpt lat="44.90525" lon="6.74144">
        <ele>2454.4</ele>
        <time>2025-01-25T11:43:05Z</time>
      </trkpt>
      <trkpt lat="44.90525" lon="6.7415">
        <ele>2455</ele>
        <time>2025-01-25T11:43:11Z</time>
      </trkpt>
      <trkpt lat="44.90524" lon="6.74156">
        <ele>2455.4</ele>
        <time>2025-01-25T11:43:17Z</time>
      </trkpt>
      <trkpt lat="44.90523" lon="6.74163">
        <ele>2456.1</ele>
        <time>2025-01-25T11:43:24Z</time>
      </trkpt>
      <trkpt lat="44.90524" lon="6.7417">
        <ele>2456.7</ele>
        <time>2025-01-25T11:43:30Z</time>
      </trkpt>
      <trkpt lat="44.90524" lon="6.74175">
        <ele>2457</ele>
        <time>2025-01-25T11:43:38Z</time>
      </trkpt>
      <trkpt lat="44.90525" lon="6.74182">
        <ele>2457.6</ele>
        <time>2025-01-25T11:43:43Z</time>
      </trkpt>
      <trkpt lat="44.90525" lon="6.74189">
        <ele>2458.1</ele>
        <time>2025-01-25T11:43:48Z</time>
      </trkpt>
      <trkpt lat="44.90524" lon="6.74195">
        <ele>2458.5</ele>
        <time>2025-01-25T11:43:54Z</time>
      </trkpt>
      <trkpt lat="44.90524" lon="6.74202">
        <ele>2458.8</ele>
        <time>2025-01-25T11:43:59Z</time>
      </trkpt>
      <trkpt lat="44.90526" lon="6.74205">
        <ele>2459</ele>
        <time>2025-01-25T11:44:01Z</time>
      </trkpt>
      <trkpt lat="44.90526" lon="6.74209">
        <ele>2459.2</ele>
        <time>2025-01-25T11:44:04Z</time>
      </trkpt>
      <trkpt lat="44.90526" lon="6.74214">
        <ele>2459.4</ele>
        <time>2025-01-25T11:44:10Z</time>
      </trkpt>
      <trkpt lat="44.90528" lon="6.74221">
        <ele>2459.6</ele>
        <time>2025-01-25T11:44:16Z</time>
      </trkpt>
      <trkpt lat="44.9053" lon="6.7423">
        <ele>2459.9</ele>
        <time>2025-01-25T11:44:22Z</time>
      </trkpt>
      <trkpt lat="44.90533" lon="6.74237">
        <ele>2460.2</ele>
        <time>2025-01-25T11:44:28Z</time>
      </trkpt>
      <trkpt lat="44.90538" lon="6.74246">
        <ele>2460.6</ele>
        <time>2025-01-25T11:44:35Z</time>
      </trkpt>
      <trkpt lat="44.90541" lon="6.74254">
        <ele>2461</ele>
        <time>2025-01-25T11:44:41Z</time>
      </trkpt>
      <trkpt lat="44.90546" lon="6.74262">
        <ele>2461.8</ele>
        <time>2025-01-25T11:44:47Z</time>
      </trkpt>
      <trkpt lat="44.90547" lon="6.74264">
        <ele>2462</ele>
        <time>2025-01-25T11:44:48Z</time>
      </trkpt>
      <trkpt lat="44.90547" lon="6.74264">
        <ele>2462</ele>
        <time>2025-01-25T11:44:51Z</time>
      </trkpt>
      <trkpt lat="44.90547" lon="6.74266">
        <ele>2462.2</ele>
        <time>2025-01-25T11:44:56Z</time>
      </trkpt>
      <trkpt lat="44.90548" lon="6.74274">
        <ele>2463</ele>
        <time>2025-01-25T11:45:01Z</time>
      </trkpt>
      <trkpt lat="44.9055" lon="6.74284">
        <ele>2463.9</ele>
        <time>2025-01-25T11:45:07Z</time>
      </trkpt>
      <trkpt lat="44.90551" lon="6.7429">
        <ele>2464.5</ele>
        <time>2025-01-25T11:45:12Z</time>
      </trkpt>
      <trkpt lat="44.90551" lon="6.7429">
        <ele>2464.6</ele>
        <time>2025-01-25T11:45:13Z</time>
      </trkpt>
      <trkpt lat="44.90551" lon="6.74294">
        <ele>2465</ele>
        <time>2025-01-25T11:45:15Z</time>
      </trkpt>
      <trkpt lat="44.90552" lon="6.74298">
        <ele>2465.4</ele>
        <time>2025-01-25T11:45:19Z</time>
      </trkpt>
      <trkpt lat="44.90554" lon="6.74308">
        <ele>2466.5</ele>
        <time>2025-01-25T11:45:26Z</time>
      </trkpt>
      <trkpt lat="44.90555" lon="6.74317">
        <ele>2467.5</ele>
        <time>2025-01-25T11:45:33Z</time>
      </trkpt>
      <trkpt lat="44.90555" lon="6.7432">
        <ele>2467.9</ele>
        <time>2025-01-25T11:45:35Z</time>
      </trkpt>
      <trkpt lat="44.90555" lon="6.74324">
        <ele>2468.3</ele>
        <time>2025-01-25T11:45:38Z</time>
      </trkpt>
      <trkpt lat="44.90557" lon="6.74331">
        <ele>2469.1</ele>
        <time>2025-01-25T11:45:45Z</time>
      </trkpt>
      <trkpt lat="44.90558" lon="6.74337">
        <ele>2469.7</ele>
        <time>2025-01-25T11:45:51Z</time>
      </trkpt>
      <trkpt lat="44.90559" lon="6.74342">
        <ele>2470.2</ele>
        <time>2025-01-25T11:45:56Z</time>
      </trkpt>
      <trkpt lat="44.90559" lon="6.74349">
        <ele>2470.9</ele>
        <time>2025-01-25T11:46:01Z</time>
      </trkpt>
      <trkpt lat="44.9056" lon="6.74355">
        <ele>2471.4</ele>
        <time>2025-01-25T11:46:07Z</time>
      </trkpt>
      <trkpt lat="44.9056" lon="6.74358">
        <ele>2471.6</ele>
        <time>2025-01-25T11:46:08Z</time>
      </trkpt>
      <trkpt lat="44.90561" lon="6.74359">
        <ele>2471.8</ele>
        <time>2025-01-25T11:46:10Z</time>
      </trkpt>
      <trkpt lat="44.90562" lon="6.74359">
        <ele>2471.9</ele>
        <time>2025-01-25T11:46:12Z</time>
      </trkpt>
      <trkpt lat="44.90564" lon="6.74369">
        <ele>2472.8</ele>
        <time>2025-01-25T11:46:18Z</time>
      </trkpt>
      <trkpt lat="44.90566" lon="6.74375">
        <ele>2473.3</ele>
        <time>2025-01-25T11:46:23Z</time>
      </trkpt>
      <trkpt lat="44.90567" lon="6.74383">
        <ele>2474.1</ele>
        <time>2025-01-25T11:46:30Z</time>
      </trkpt>
      <trkpt lat="44.90568" lon="6.74383">
        <ele>2474.1</ele>
        <time>2025-01-25T11:46:35Z</time>
      </trkpt>
      <trkpt lat="44.90569" lon="6.74387">
        <ele>2474.6</ele>
        <time>2025-01-25T11:46:38Z</time>
      </trkpt>
      <trkpt lat="44.9057" lon="6.74388">
        <ele>2474.9</ele>
        <time>2025-01-25T11:46:39Z</time>
      </trkpt>
      <trkpt lat="44.90572" lon="6.74398">
        <ele>2476.2</ele>
        <time>2025-01-25T11:46:45Z</time>
      </trkpt>
      <trkpt lat="44.90573" lon="6.74399">
        <ele>2476.3</ele>
        <time>2025-01-25T11:46:50Z</time>
      </trkpt>
      <trkpt lat="44.90575" lon="6.74407">
        <ele>2477.7</ele>
        <time>2025-01-25T11:46:57Z</time>
      </trkpt>
      <trkpt lat="44.90577" lon="6.74413">
        <ele>2478.7</ele>
        <time>2025-01-25T11:47:02Z</time>
      </trkpt>
      <trkpt lat="44.90578" lon="6.74417">
        <ele>2479.5</ele>
        <time>2025-01-25T11:47:05Z</time>
      </trkpt>
      <trkpt lat="44.90578" lon="6.74422">
        <ele>2480.3</ele>
        <time>2025-01-25T11:47:08Z</time>
      </trkpt>
      <trkpt lat="44.90579" lon="6.74429">
        <ele>2481.7</ele>
        <time>2025-01-25T11:47:14Z</time>
      </trkpt>
      <trkpt lat="44.90579" lon="6.74436">
        <ele>2483</ele>
        <time>2025-01-25T11:47:20Z</time>
      </trkpt>
      <trkpt lat="44.9058" lon="6.74442">
        <ele>2484.2</ele>
        <time>2025-01-25T11:47:26Z</time>
      </trkpt>
      <trkpt lat="44.9058" lon="6.74442">
        <ele>2484.2</ele>
        <time>2025-01-25T11:47:37Z</time>
      </trkpt>
      <trkpt lat="44.90581" lon="6.74443">
        <ele>2484.6</ele>
        <time>2025-01-25T11:47:44Z</time>
      </trkpt>
      <trkpt lat="44.90581" lon="6.74447">
        <ele>2485.6</ele>
        <time>2025-01-25T11:47:50Z</time>
      </trkpt>
      <trkpt lat="44.90584" lon="6.74452">
        <ele>2486.8</ele>
        <time>2025-01-25T11:47:56Z</time>
      </trkpt>
      <trkpt lat="44.90586" lon="6.74453">
        <ele>2487.6</ele>
        <time>2025-01-25T11:48:04Z</time>
      </trkpt>
      <trkpt lat="44.90588" lon="6.74456">
        <ele>2488.2</ele>
        <time>2025-01-25T11:48:12Z</time>
      </trkpt>
      <trkpt lat="44.90589" lon="6.74457">
        <ele>2488.7</ele>
        <time>2025-01-25T11:48:18Z</time>
      </trkpt>
      <trkpt lat="44.90587" lon="6.74457">
        <ele>2489.2</ele>
        <time>2025-01-25T11:48:25Z</time>
      </trkpt>
      <trkpt lat="44.90588" lon="6.74461">
        <ele>2490</ele>
        <time>2025-01-25T11:48:32Z</time>
      </trkpt>
      <trkpt lat="44.90591" lon="6.74464">
        <ele>2491.1</ele>
        <time>2025-01-25T11:48:38Z</time>
      </trkpt>
      <trkpt lat="44.90593" lon="6.74468">
        <ele>2492</ele>
        <time>2025-01-25T11:48:44Z</time>
      </trkpt>
      <trkpt lat="44.90592" lon="6.74472">
        <ele>2492.8</ele>
        <time>2025-01-25T11:48:50Z</time>
      </trkpt>
      <trkpt lat="44.90592" lon="6.74478">
        <ele>2494.2</ele>
        <time>2025-01-25T11:48:57Z</time>
      </trkpt>
      <trkpt lat="44.90594" lon="6.74485">
        <ele>2495.5</ele>
        <time>2025-01-25T11:49:04Z</time>
      </trkpt>
      <trkpt lat="44.90595" lon="6.7449">
        <ele>2496.5</ele>
        <time>2025-01-25T11:49:11Z</time>
      </trkpt>
      <trkpt lat="44.90596" lon="6.74495">
        <ele>2497.5</ele>
        <time>2025-01-25T11:49:16Z</time>
      </trkpt>
      <trkpt lat="44.90598" lon="6.74501">
        <ele>2498.7</ele>
        <time>2025-01-25T11:49:23Z</time>
      </trkpt>
      <trkpt lat="44.90598" lon="6.74506">
        <ele>2499.5</ele>
        <time>2025-01-25T11:49:29Z</time>
      </trkpt>
      <trkpt lat="44.906" lon="6.74514">
        <ele>2500.8</ele>
        <time>2025-01-25T11:49:35Z</time>
      </trkpt>
      <trkpt lat="44.90602" lon="6.74522">
        <ele>2502.3</ele>
        <time>2025-01-25T11:49:42Z</time>
      </trkpt>
      <trkpt lat="44.90603" lon="6.74529">
        <ele>2503.3</ele>
        <time>2025-01-25T11:49:48Z</time>
      </trkpt>
      <trkpt lat="44.90604" lon="6.7453">
        <ele>2503.5</ele>
        <time>2025-01-25T11:49:49Z</time>
      </trkpt>
      <trkpt lat="44.90603" lon="6.74531">
        <ele>2503.7</ele>
        <time>2025-01-25T11:49:53Z</time>
      </trkpt>
      <trkpt lat="44.90605" lon="6.74535">
        <ele>2504.3</ele>
        <time>2025-01-25T11:50:00Z</time>
      </trkpt>
      <trkpt lat="44.90606" lon="6.74539">
        <ele>2505</ele>
        <time>2025-01-25T11:50:06Z</time>
      </trkpt>
      <trkpt lat="44.90609" lon="6.74547">
        <ele>2506.1</ele>
        <time>2025-01-25T11:50:13Z</time>
      </trkpt>
      <trkpt lat="44.90611" lon="6.74552">
        <ele>2506.7</ele>
        <time>2025-01-25T11:50:18Z</time>
      </trkpt>
      <trkpt lat="44.90614" lon="6.74559">
        <ele>2507.6</ele>
        <time>2025-01-25T11:50:24Z</time>
      </trkpt>
      <trkpt lat="44.90615" lon="6.74563">
        <ele>2508.1</ele>
        <time>2025-01-25T11:50:29Z</time>
      </trkpt>
      <trkpt lat="44.90619" lon="6.7457">
        <ele>2508.8</ele>
        <time>2025-01-25T11:50:36Z</time>
      </trkpt>
      <trkpt lat="44.9062" lon="6.74575">
        <ele>2509.2</ele>
        <time>2025-01-25T11:50:41Z</time>
      </trkpt>
      <trkpt lat="44.90622" lon="6.74582">
        <ele>2509.6</ele>
        <time>2025-01-25T11:50:46Z</time>
      </trkpt>
      <trkpt lat="44.90625" lon="6.74588">
        <ele>2510.1</ele>
        <time>2025-01-25T11:50:51Z</time>
      </trkpt>
      <trkpt lat="44.90625" lon="6.74591">
        <ele>2510.3</ele>
        <time>2025-01-25T11:50:54Z</time>
      </trkpt>
      <trkpt lat="44.90626" lon="6.74594">
        <ele>2510.4</ele>
        <time>2025-01-25T11:50:56Z</time>
      </trkpt>
      <trkpt lat="44.90628" lon="6.746">
        <ele>2510.8</ele>
        <time>2025-01-25T11:51:01Z</time>
      </trkpt>
      <trkpt lat="44.90631" lon="6.74608">
        <ele>2511.2</ele>
        <time>2025-01-25T11:51:07Z</time>
      </trkpt>
      <trkpt lat="44.90633" lon="6.74613">
        <ele>2511.6</ele>
        <time>2025-01-25T11:51:11Z</time>
      </trkpt>
      <trkpt lat="44.90634" lon="6.74618">
        <ele>2512</ele>
        <time>2025-01-25T11:51:15Z</time>
      </trkpt>
      <trkpt lat="44.90636" lon="6.74625">
        <ele>2512.5</ele>
        <time>2025-01-25T11:51:20Z</time>
      </trkpt>
      <trkpt lat="44.90637" lon="6.74631">
        <ele>2513</ele>
        <time>2025-01-25T11:51:25Z</time>
      </trkpt>
      <trkpt lat="44.90637" lon="6.74637">
        <ele>2513.5</ele>
        <time>2025-01-25T11:51:31Z</time>
      </trkpt>
      <trkpt lat="44.90638" lon="6.74644">
        <ele>2514</ele>
        <time>2025-01-25T11:51:36Z</time>
      </trkpt>
      <trkpt lat="44.9064" lon="6.7465">
        <ele>2514.7</ele>
        <time>2025-01-25T11:51:42Z</time>
      </trkpt>
      <trkpt lat="44.9064" lon="6.74657">
        <ele>2515.3</ele>
        <time>2025-01-25T11:51:47Z</time>
      </trkpt>
      <trkpt lat="44.90642" lon="6.74662">
        <ele>2515.8</ele>
        <time>2025-01-25T11:51:52Z</time>
      </trkpt>
      <trkpt lat="44.90642" lon="6.74664">
        <ele>2516</ele>
        <time>2025-01-25T11:51:58Z</time>
      </trkpt>
      <trkpt lat="44.90644" lon="6.74673">
        <ele>2516.8</ele>
        <time>2025-01-25T11:52:04Z</time>
      </trkpt>
      <trkpt lat="44.90646" lon="6.74679">
        <ele>2517.3</ele>
        <time>2025-01-25T11:52:10Z</time>
      </trkpt>
      <trkpt lat="44.90647" lon="6.74687">
        <ele>2517.9</ele>
        <time>2025-01-25T11:52:16Z</time>
      </trkpt>
      <trkpt lat="44.9065" lon="6.74696">
        <ele>2518.6</ele>
        <time>2025-01-25T11:52:23Z</time>
      </trkpt>
      <trkpt lat="44.90651" lon="6.74702">
        <ele>2519</ele>
        <time>2025-01-25T11:52:28Z</time>
      </trkpt>
      <trkpt lat="44.90653" lon="6.74706">
        <ele>2519.3</ele>
        <time>2025-01-25T11:52:32Z</time>
      </trkpt>
      <trkpt lat="44.90653" lon="6.74709">
        <ele>2519.5</ele>
        <time>2025-01-25T11:52:34Z</time>
      </trkpt>
      <trkpt lat="44.90656" lon="6.74713">
        <ele>2519.8</ele>
        <time>2025-01-25T11:52:39Z</time>
      </trkpt>
      <trkpt lat="44.90658" lon="6.7472">
        <ele>2520.1</ele>
        <time>2025-01-25T11:52:44Z</time>
      </trkpt>
      <trkpt lat="44.90659" lon="6.74724">
        <ele>2520.4</ele>
        <time>2025-01-25T11:52:49Z</time>
      </trkpt>
      <trkpt lat="44.90663" lon="6.74734">
        <ele>2521</ele>
        <time>2025-01-25T11:52:57Z</time>
      </trkpt>
      <trkpt lat="44.90665" lon="6.74741">
        <ele>2521.3</ele>
        <time>2025-01-25T11:53:02Z</time>
      </trkpt>
      <trkpt lat="44.90667" lon="6.74746">
        <ele>2521.7</ele>
        <time>2025-01-25T11:53:08Z</time>
      </trkpt>
      <trkpt lat="44.9067" lon="6.74755">
        <ele>2522.1</ele>
        <time>2025-01-25T11:53:15Z</time>
      </trkpt>
      <trkpt lat="44.90673" lon="6.74763">
        <ele>2522.7</ele>
        <time>2025-01-25T11:53:22Z</time>
      </trkpt>
      <trkpt lat="44.90674" lon="6.74772">
        <ele>2523.2</ele>
        <time>2025-01-25T11:53:28Z</time>
      </trkpt>
      <trkpt lat="44.90676" lon="6.74778">
        <ele>2523.6</ele>
        <time>2025-01-25T11:53:33Z</time>
      </trkpt>
      <trkpt lat="44.90678" lon="6.74785">
        <ele>2524.1</ele>
        <time>2025-01-25T11:53:40Z</time>
      </trkpt>
      <trkpt lat="44.9068" lon="6.74792">
        <ele>2524.7</ele>
        <time>2025-01-25T11:53:46Z</time>
      </trkpt>
      <trkpt lat="44.90681" lon="6.74797">
        <ele>2525.2</ele>
        <time>2025-01-25T11:53:51Z</time>
      </trkpt>
      <trkpt lat="44.90682" lon="6.74803">
        <ele>2525.7</ele>
        <time>2025-01-25T11:53:57Z</time>
      </trkpt>
      <trkpt lat="44.90683" lon="6.74808">
        <ele>2526.3</ele>
        <time>2025-01-25T11:54:04Z</time>
      </trkpt>
      <trkpt lat="44.90683" lon="6.74809">
        <ele>2464</ele>
        <time>2025-01-25T11:54:10Z</time>
      </trkpt>
      <trkpt lat="44.90683" lon="6.74809">
        <ele>2464</ele>
        <time>2025-01-25T11:54:19Z</time>
      </trkpt>
      <trkpt lat="44.90683" lon="6.74809">
        <ele>2464</ele>
        <time>2025-01-25T11:54:27Z</time>
      </trkpt>
      <trkpt lat="44.90683" lon="6.74809">
        <ele>2464</ele>
        <time>2025-01-25T11:54:31Z</time>
      </trkpt>
      <trkpt lat="44.90556" lon="6.74285">
        <ele>2465.4</ele>
        <time>2025-01-25T12:15:45Z</time>
      </trkpt>
      <trkpt lat="44.90666" lon="6.74592">
        <ele>2515.9</ele>
        <time>2025-01-25T12:15:49Z</time>
      </trkpt>
      <trkpt lat="44.9066" lon="6.74688">
        <ele>2520.9</ele>
        <time>2025-01-25T12:15:57Z</time>
      </trkpt>
      <trkpt lat="44.90666" lon="6.74695">
        <ele>2521.4</ele>
        <time>2025-01-25T12:16:05Z</time>
      </trkpt>
      <trkpt lat="44.90672" lon="6.74698">
        <ele>2521.7</ele>
        <time>2025-01-25T12:16:12Z</time>
      </trkpt>
      <trkpt lat="44.90674" lon="6.74699">
        <ele>2521.8</ele>
        <time>2025-01-25T12:16:22Z</time>
      </trkpt>
      <trkpt lat="44.90676" lon="6.74698">
        <ele>2521.9</ele>
        <time>2025-01-25T12:16:32Z</time>
      </trkpt>
      <trkpt lat="44.90677" lon="6.74698">
        <ele>2522</ele>
        <time>2025-01-25T12:16:39Z</time>
      </trkpt>
      <trkpt lat="44.90677" lon="6.74698">
        <ele>2522</ele>
        <time>2025-01-25T12:16:40Z</time>
      </trkpt>
      <trkpt lat="44.90677" lon="6.74697">
        <ele>2522</ele>
        <time>2025-01-25T12:16:43Z</time>
      </trkpt>
      <trkpt lat="44.90679" lon="6.74697">
        <ele>2522.1</ele>
        <time>2025-01-25T12:16:47Z</time>
      </trkpt>
      <trkpt lat="44.90678" lon="6.74696">
        <ele>2522.2</ele>
        <time>2025-01-25T12:16:52Z</time>
      </trkpt>
      <trkpt lat="44.90678" lon="6.74695">
        <ele>2522.3</ele>
        <time>2025-01-25T12:16:57Z</time>
      </trkpt>
      <trkpt lat="44.90677" lon="6.74693">
        <ele>2522.4</ele>
        <time>2025-01-25T12:17:04Z</time>
      </trkpt>
      <trkpt lat="44.90676" lon="6.7469">
        <ele>2522.5</ele>
        <time>2025-01-25T12:17:12Z</time>
      </trkpt>
      <trkpt lat="44.90675" lon="6.74689">
        <ele>2522.5</ele>
        <time>2025-01-25T12:17:19Z</time>
      </trkpt>
      <trkpt lat="44.90675" lon="6.74688">
        <ele>2522.6</ele>
        <time>2025-01-25T12:17:23Z</time>
      </trkpt>
      <trkpt lat="44.90674" lon="6.74687">
        <ele>2522.6</ele>
        <time>2025-01-25T12:17:29Z</time>
      </trkpt>
      <trkpt lat="44.90673" lon="6.74685">
        <ele>2522.7</ele>
        <time>2025-01-25T12:17:35Z</time>
      </trkpt>
      <trkpt lat="44.90671" lon="6.74683">
        <ele>2522.8</ele>
        <time>2025-01-25T12:17:40Z</time>
      </trkpt>
      <trkpt lat="44.90669" lon="6.74678">
        <ele>2523</ele>
        <time>2025-01-25T12:17:45Z</time>
      </trkpt>
      <trkpt lat="44.90667" lon="6.74675">
        <ele>2522.7</ele>
        <time>2025-01-25T12:17:51Z</time>
      </trkpt>
      <trkpt lat="44.90667" lon="6.7467">
        <ele>2522.6</ele>
        <time>2025-01-25T12:17:56Z</time>
      </trkpt>
      <trkpt lat="44.90665" lon="6.74667">
        <ele>2522.3</ele>
        <time>2025-01-25T12:18:00Z</time>
      </trkpt>
      <trkpt lat="44.90665" lon="6.74664">
        <ele>2522.2</ele>
        <time>2025-01-25T12:18:02Z</time>
      </trkpt>
      <trkpt lat="44.90665" lon="6.74663">
        <ele>2522.1</ele>
        <time>2025-01-25T12:18:03Z</time>
      </trkpt>
      <trkpt lat="44.90664" lon="6.7466">
        <ele>2521.9</ele>
        <time>2025-01-25T12:18:06Z</time>
      </trkpt>
      <trkpt lat="44.90663" lon="6.74657">
        <ele>2521.8</ele>
        <time>2025-01-25T12:18:09Z</time>
      </trkpt>
      <trkpt lat="44.90663" lon="6.74656">
        <ele>2521.7</ele>
        <time>2025-01-25T12:18:11Z</time>
      </trkpt>
      <trkpt lat="44.90661" lon="6.74652">
        <ele>2521.5</ele>
        <time>2025-01-25T12:18:14Z</time>
      </trkpt>
      <trkpt lat="44.90661" lon="6.74651">
        <ele>2521.4</ele>
        <time>2025-01-25T12:18:15Z</time>
      </trkpt>
      <trkpt lat="44.9066" lon="6.74646">
        <ele>2521.2</ele>
        <time>2025-01-25T12:18:21Z</time>
      </trkpt>
      <trkpt lat="44.9066" lon="6.7464">
        <ele>2520.9</ele>
        <time>2025-01-25T12:18:26Z</time>
      </trkpt>
      <trkpt lat="44.90658" lon="6.74636">
        <ele>2520.6</ele>
        <time>2025-01-25T12:18:31Z</time>
      </trkpt>
      <trkpt lat="44.90658" lon="6.74634">
        <ele>2520.5</ele>
        <time>2025-01-25T12:18:33Z</time>
      </trkpt>
      <trkpt lat="44.90658" lon="6.74632">
        <ele>2520.4</ele>
        <time>2025-01-25T12:18:35Z</time>
      </trkpt>
      <trkpt lat="44.90659" lon="6.74629">
        <ele>2520.2</ele>
        <time>2025-01-25T12:18:39Z</time>
      </trkpt>
      <trkpt lat="44.90659" lon="6.74626">
        <ele>2520.1</ele>
        <time>2025-01-25T12:18:41Z</time>
      </trkpt>
      <trkpt lat="44.90657" lon="6.74618">
        <ele>2519.5</ele>
        <time>2025-01-25T12:18:45Z</time>
      </trkpt>
      <trkpt lat="44.90652" lon="6.74607">
        <ele>2518.7</ele>
        <time>2025-01-25T12:18:52Z</time>
      </trkpt>
      <trkpt lat="44.90651" lon="6.74603">
        <ele>2518.4</ele>
        <time>2025-01-25T12:18:57Z</time>
      </trkpt>
      <trkpt lat="44.9065" lon="6.74601">
        <ele>2518.3</ele>
        <time>2025-01-25T12:18:59Z</time>
      </trkpt>
      <trkpt lat="44.90648" lon="6.74597">
        <ele>2517.9</ele>
        <time>2025-01-25T12:19:03Z</time>
      </trkpt>
      <trkpt lat="44.90647" lon="6.74591">
        <ele>2517.4</ele>
        <time>2025-01-25T12:19:08Z</time>
      </trkpt>
      <trkpt lat="44.90646" lon="6.74589">
        <ele>2517.3</ele>
        <time>2025-01-25T12:19:10Z</time>
      </trkpt>
      <trkpt lat="44.90646" lon="6.74587">
        <ele>2517.1</ele>
        <time>2025-01-25T12:19:12Z</time>
      </trkpt>
      <trkpt lat="44.90646" lon="6.74587">
        <ele>2517.1</ele>
        <time>2025-01-25T12:19:13Z</time>
      </trkpt>
      <trkpt lat="44.90644" lon="6.74582">
        <ele>2516.7</ele>
        <time>2025-01-25T12:19:18Z</time>
      </trkpt>
      <trkpt lat="44.90642" lon="6.74577">
        <ele>2516.3</ele>
        <time>2025-01-25T12:19:22Z</time>
      </trkpt>
      <trkpt lat="44.90642" lon="6.74576">
        <ele>2516.2</ele>
        <time>2025-01-25T12:19:23Z</time>
      </trkpt>
      <trkpt lat="44.90641" lon="6.74573">
        <ele>2516</ele>
        <time>2025-01-25T12:19:27Z</time>
      </trkpt>
      <trkpt lat="44.90641" lon="6.7457">
        <ele>2515.8</ele>
        <time>2025-01-25T12:19:32Z</time>
      </trkpt>
      <trkpt lat="44.90641" lon="6.74567">
        <ele>2515.6</ele>
        <time>2025-01-25T12:19:35Z</time>
      </trkpt>
      <trkpt lat="44.90641" lon="6.74566">
        <ele>2515.5</ele>
        <time>2025-01-25T12:19:38Z</time>
      </trkpt>
      <trkpt lat="44.90641" lon="6.74564">
        <ele>2515.4</ele>
        <time>2025-01-25T12:19:43Z</time>
      </trkpt>
      <trkpt lat="44.90641" lon="6.74563">
        <ele>2515.4</ele>
        <time>2025-01-25T12:19:49Z</time>
      </trkpt>
      <trkpt lat="44.90641" lon="6.74563">
        <ele>2515.4</ele>
        <time>2025-01-25T12:19:56Z</time>
      </trkpt>
      <trkpt lat="44.90641" lon="6.74564">
        <ele>2515.3</ele>
        <time>2025-01-25T12:20:02Z</time>
      </trkpt>
      <trkpt lat="44.90641" lon="6.74563">
        <ele>2515.3</ele>
        <time>2025-01-25T12:20:08Z</time>
      </trkpt>
      <trkpt lat="44.90641" lon="6.74564">
        <ele>2515.2</ele>
        <time>2025-01-25T12:20:13Z</time>
      </trkpt>
      <trkpt lat="44.90641" lon="6.74563">
        <ele>2515.2</ele>
        <time>2025-01-25T12:20:26Z</time>
      </trkpt>
      <trkpt lat="44.90641" lon="6.74563">
        <ele>2515.2</ele>
        <time>2025-01-25T12:20:34Z</time>
      </trkpt>
      <trkpt lat="44.90641" lon="6.74563">
        <ele>2515.1</ele>
        <time>2025-01-25T12:20:41Z</time>
      </trkpt>
      <trkpt lat="44.90641" lon="6.74564">
        <ele>2515</ele>
        <time>2025-01-25T12:20:47Z</time>
      </trkpt>
      <trkpt lat="44.90641" lon="6.74564">
        <ele>2515</ele>
        <time>2025-01-25T12:20:54Z</time>
      </trkpt>
      <trkpt lat="44.90641" lon="6.74564">
        <ele>2515</ele>
        <time>2025-01-25T12:21:04Z</time>
      </trkpt>
      <trkpt lat="44.90641" lon="6.74564">
        <ele>2515</ele>
        <time>2025-01-25T12:21:18Z</time>
      </trkpt>
      <trkpt lat="44.90642" lon="6.74563">
        <ele>2515</ele>
        <time>2025-01-25T12:21:32Z</time>
      </trkpt>
      <trkpt lat="44.90642" lon="6.74563">
        <ele>2515</ele>
        <time>2025-01-25T12:21:40Z</time>
      </trkpt>
      <trkpt lat="44.90641" lon="6.74564">
        <ele>2514.9</ele>
        <time>2025-01-25T12:21:55Z</time>
      </trkpt>
      <trkpt lat="44.90642" lon="6.74564">
        <ele>2514.9</ele>
        <time>2025-01-25T12:22:01Z</time>
      </trkpt>
      <trkpt lat="44.90642" lon="6.74564">
        <ele>2514.9</ele>
        <time>2025-01-25T12:22:14Z</time>
      </trkpt>
      <trkpt lat="44.90642" lon="6.74564">
        <ele>2514.9</ele>
        <time>2025-01-25T12:22:23Z</time>
      </trkpt>
      <trkpt lat="44.90642" lon="6.74564">
        <ele>2514.9</ele>
        <time>2025-01-25T12:22:29Z</time>
      </trkpt>
      <trkpt lat="44.90642" lon="6.74565">
        <ele>2514.9</ele>
        <time>2025-01-25T12:22:35Z</time>
      </trkpt>
      <trkpt lat="44.90642" lon="6.74565">
        <ele>2514.9</ele>
        <time>2025-01-25T12:22:47Z</time>
      </trkpt>
      <trkpt lat="44.90642" lon="6.74565">
        <ele>2514.9</ele>
        <time>2025-01-25T12:22:56Z</time>
      </trkpt>
      <trkpt lat="44.90642" lon="6.74565">
        <ele>2514.9</ele>
        <time>2025-01-25T12:23:00Z</time>
      </trkpt>
      <trkpt lat="44.90641" lon="6.74565">
        <ele>2514.8</ele>
        <time>2025-01-25T12:23:04Z</time>
      </trkpt>
      <trkpt lat="44.90641" lon="6.74565">
        <ele>2514.8</ele>
        <time>2025-01-25T12:23:12Z</time>
      </trkpt>
      <trkpt lat="44.90641" lon="6.74565">
        <ele>2514.8</ele>
        <time>2025-01-25T12:23:18Z</time>
      </trkpt>
      <trkpt lat="44.90641" lon="6.74565">
        <ele>2514.8</ele>
        <time>2025-01-25T12:23:24Z</time>
      </trkpt>
      <trkpt lat="44.90641" lon="6.74564">
        <ele>2514.8</ele>
        <time>2025-01-25T12:23:29Z</time>
      </trkpt>
      <trkpt lat="44.90641" lon="6.74564">
        <ele>2514.8</ele>
        <time>2025-01-25T12:23:36Z</time>
      </trkpt>
      <trkpt lat="44.90641" lon="6.74565">
        <ele>2514.7</ele>
        <time>2025-01-25T12:23:42Z</time>
      </trkpt>
      <trkpt lat="44.90641" lon="6.74564">
        <ele>2514.7</ele>
        <time>2025-01-25T12:23:48Z</time>
      </trkpt>
      <trkpt lat="44.90641" lon="6.74564">
        <ele>2514.7</ele>
        <time>2025-01-25T12:23:53Z</time>
      </trkpt>
      <trkpt lat="44.90641" lon="6.74564">
        <ele>2514.7</ele>
        <time>2025-01-25T12:24:01Z</time>
      </trkpt>
      <trkpt lat="44.90641" lon="6.74564">
        <ele>2514.7</ele>
        <time>2025-01-25T12:24:07Z</time>
      </trkpt>
      <trkpt lat="44.90641" lon="6.74564">
        <ele>2514.7</ele>
        <time>2025-01-25T12:24:14Z</time>
      </trkpt>
      <trkpt lat="44.90641" lon="6.74564">
        <ele>2514.7</ele>
        <time>2025-01-25T12:24:26Z</time>
      </trkpt>
      <trkpt lat="44.90641" lon="6.74564">
        <ele>2514.7</ele>
        <time>2025-01-25T12:24:34Z</time>
      </trkpt>
      <trkpt lat="44.90641" lon="6.74564">
        <ele>2514.7</ele>
        <time>2025-01-25T12:24:43Z</time>
      </trkpt>
      <trkpt lat="44.90641" lon="6.74564">
        <ele>2514.6</ele>
        <time>2025-01-25T12:24:51Z</time>
      </trkpt>
      <trkpt lat="44.90641" lon="6.74564">
        <ele>2514.6</ele>
        <time>2025-01-25T12:24:56Z</time>
      </trkpt>
      <trkpt lat="44.90641" lon="6.74564">
        <ele>2514.6</ele>
        <time>2025-01-25T12:25:02Z</time>
      </trkpt>
      <trkpt lat="44.90641" lon="6.74565">
        <ele>2514.6</ele>
        <time>2025-01-25T12:25:08Z</time>
      </trkpt>
      <trkpt lat="44.90641" lon="6.74565">
        <ele>2514.6</ele>
        <time>2025-01-25T12:25:20Z</time>
      </trkpt>
      <trkpt lat="44.90641" lon="6.74564">
        <ele>2514.5</ele>
        <time>2025-01-25T12:25:26Z</time>
      </trkpt>
      <trkpt lat="44.90641" lon="6.74565">
        <ele>2514.5</ele>
        <time>2025-01-25T12:25:30Z</time>
      </trkpt>
      <trkpt lat="44.90641" lon="6.74565">
        <ele>2514.5</ele>
        <time>2025-01-25T12:25:38Z</time>
      </trkpt>
      <trkpt lat="44.90641" lon="6.74565">
        <ele>2514.5</ele>
        <time>2025-01-25T12:25:44Z</time>
      </trkpt>
      <trkpt lat="44.90641" lon="6.74565">
        <ele>2514.5</ele>
        <time>2025-01-25T12:25:53Z</time>
      </trkpt>
      <trkpt lat="44.90641" lon="6.74565">
        <ele>2514.5</ele>
        <time>2025-01-25T12:26:03Z</time>
      </trkpt>
      <trkpt lat="44.90642" lon="6.74565">
        <ele>2514.4</ele>
        <time>2025-01-25T12:26:10Z</time>
      </trkpt>
      <trkpt lat="44.90641" lon="6.74565">
        <ele>2514.4</ele>
        <time>2025-01-25T12:26:17Z</time>
      </trkpt>
      <trkpt lat="44.90641" lon="6.74565">
        <ele>2514.4</ele>
        <time>2025-01-25T12:26:25Z</time>
      </trkpt>
      <trkpt lat="44.90641" lon="6.74565">
        <ele>2514.4</ele>
        <time>2025-01-25T12:26:32Z</time>
      </trkpt>
      <trkpt lat="44.90641" lon="6.74564">
        <ele>2514.4</ele>
        <time>2025-01-25T12:26:39Z</time>
      </trkpt>
      <trkpt lat="44.90641" lon="6.74564">
        <ele>2514.4</ele>
        <time>2025-01-25T12:26:52Z</time>
      </trkpt>
      <trkpt lat="44.90641" lon="6.74565">
        <ele>2514.3</ele>
        <time>2025-01-25T12:26:57Z</time>
      </trkpt>
      <trkpt lat="44.90641" lon="6.74565">
        <ele>2514.3</ele>
        <time>2025-01-25T12:27:05Z</time>
      </trkpt>
      <trkpt lat="44.90641" lon="6.74565">
        <ele>2514.3</ele>
        <time>2025-01-25T12:27:14Z</time>
      </trkpt>
      <trkpt lat="44.90641" lon="6.74564">
        <ele>2514.3</ele>
        <time>2025-01-25T12:27:22Z</time>
      </trkpt>
      <trkpt lat="44.90641" lon="6.74564">
        <ele>2514.3</ele>
        <time>2025-01-25T12:27:29Z</time>
      </trkpt>
      <trkpt lat="44.90641" lon="6.74565">
        <ele>2514.3</ele>
        <time>2025-01-25T12:27:37Z</time>
      </trkpt>
      <trkpt lat="44.90641" lon="6.74564">
        <ele>2514.2</ele>
        <time>2025-01-25T12:27:45Z</time>
      </trkpt>
      <trkpt lat="44.90641" lon="6.74564">
        <ele>2514.2</ele>
        <time>2025-01-25T12:27:54Z</time>
      </trkpt>
      <trkpt lat="44.90641" lon="6.74564">
        <ele>2514.2</ele>
        <time>2025-01-25T12:28:02Z</time>
      </trkpt>
      <trkpt lat="44.9064" lon="6.74565">
        <ele>2514.2</ele>
        <time>2025-01-25T12:28:08Z</time>
      </trkpt>
      <trkpt lat="44.9064" lon="6.74565">
        <ele>2514.2</ele>
        <time>2025-01-25T12:28:17Z</time>
      </trkpt>
      <trkpt lat="44.9064" lon="6.74565">
        <ele>2514.2</ele>
        <time>2025-01-25T12:28:26Z</time>
      </trkpt>
      <trkpt lat="44.90641" lon="6.74565">
        <ele>2514.2</ele>
        <time>2025-01-25T12:28:34Z</time>
      </trkpt>
      <trkpt lat="44.90641" lon="6.74565">
        <ele>2514.2</ele>
        <time>2025-01-25T12:28:41Z</time>
      </trkpt>
      <trkpt lat="44.90641" lon="6.74565">
        <ele>2514.2</ele>
        <time>2025-01-25T12:28:47Z</time>
      </trkpt>
      <trkpt lat="44.90641" lon="6.74564">
        <ele>2514.1</ele>
        <time>2025-01-25T12:28:53Z</time>
      </trkpt>
      <trkpt lat="44.90641" lon="6.74564">
        <ele>2514.1</ele>
        <time>2025-01-25T12:28:58Z</time>
      </trkpt>
      <trkpt lat="44.90641" lon="6.74564">
        <ele>2514.1</ele>
        <time>2025-01-25T12:29:03Z</time>
      </trkpt>
      <trkpt lat="44.90641" lon="6.74564">
        <ele>2514.1</ele>
        <time>2025-01-25T12:29:11Z</time>
      </trkpt>
      <trkpt lat="44.90641" lon="6.74564">
        <ele>2514.1</ele>
        <time>2025-01-25T12:29:21Z</time>
      </trkpt>
      <trkpt lat="44.90641" lon="6.74564">
        <ele>2514.1</ele>
        <time>2025-01-25T12:29:29Z</time>
      </trkpt>
      <trkpt lat="44.90641" lon="6.74564">
        <ele>2514.1</ele>
        <time>2025-01-25T12:29:36Z</time>
      </trkpt>
      <trkpt lat="44.9064" lon="6.74564">
        <ele>2514.1</ele>
        <time>2025-01-25T12:29:43Z</time>
      </trkpt>
      <trkpt lat="44.90641" lon="6.74563">
        <ele>2514</ele>
        <time>2025-01-25T12:29:48Z</time>
      </trkpt>
      <trkpt lat="44.90641" lon="6.74564">
        <ele>2514</ele>
        <time>2025-01-25T12:29:53Z</time>
      </trkpt>
      <trkpt lat="44.90641" lon="6.74564">
        <ele>2514</ele>
        <time>2025-01-25T12:29:58Z</time>
      </trkpt>
      <trkpt lat="44.90641" lon="6.74564">
        <ele>2514</ele>
        <time>2025-01-25T12:30:04Z</time>
      </trkpt>
      <trkpt lat="44.90641" lon="6.74565">
        <ele>2514</ele>
        <time>2025-01-25T12:30:10Z</time>
      </trkpt>
      <trkpt lat="44.90641" lon="6.74565">
        <ele>2514</ele>
        <time>2025-01-25T12:30:24Z</time>
      </trkpt>
      <trkpt lat="44.90641" lon="6.74565">
        <ele>2514</ele>
        <time>2025-01-25T12:30:33Z</time>
      </trkpt>
      <trkpt lat="44.90641" lon="6.74565">
        <ele>2514</ele>
        <time>2025-01-25T12:30:42Z</time>
      </trkpt>
      <trkpt lat="44.90641" lon="6.74565">
        <ele>2513.9</ele>
        <time>2025-01-25T12:30:50Z</time>
      </trkpt>
      <trkpt lat="44.90641" lon="6.74566">
        <ele>2513.9</ele>
        <time>2025-01-25T12:30:56Z</time>
      </trkpt>
      <trkpt lat="44.90641" lon="6.74566">
        <ele>2513.9</ele>
        <time>2025-01-25T12:31:03Z</time>
      </trkpt>
      <trkpt lat="44.90641" lon="6.74566">
        <ele>2513.9</ele>
        <time>2025-01-25T12:31:09Z</time>
      </trkpt>
      <trkpt lat="44.90641" lon="6.74566">
        <ele>2513.9</ele>
        <time>2025-01-25T12:31:17Z</time>
      </trkpt>
      <trkpt lat="44.90641" lon="6.74566">
        <ele>2513.9</ele>
        <time>2025-01-25T12:31:25Z</time>
      </trkpt>
      <trkpt lat="44.90641" lon="6.74565">
        <ele>2513.9</ele>
        <time>2025-01-25T12:31:32Z</time>
      </trkpt>
      <trkpt lat="44.90641" lon="6.74565">
        <ele>2513.9</ele>
        <time>2025-01-25T12:31:39Z</time>
      </trkpt>
      <trkpt lat="44.90641" lon="6.74565">
        <ele>2513.9</ele>
        <time>2025-01-25T12:31:44Z</time>
      </trkpt>
      <trkpt lat="44.90641" lon="6.74565">
        <ele>2513.9</ele>
        <time>2025-01-25T12:31:51Z</time>
      </trkpt>
      <trkpt lat="44.90641" lon="6.74565">
        <ele>2513.9</ele>
        <time>2025-01-25T12:32:01Z</time>
      </trkpt>
      <trkpt lat="44.9064" lon="6.74564">
        <ele>2513.8</ele>
        <time>2025-01-25T12:32:09Z</time>
      </trkpt>
      <trkpt lat="44.9064" lon="6.74564">
        <ele>2513.8</ele>
        <time>2025-01-25T12:32:14Z</time>
      </trkpt>
      <trkpt lat="44.90641" lon="6.74565">
        <ele>2513.8</ele>
        <time>2025-01-25T12:32:18Z</time>
      </trkpt>
      <trkpt lat="44.90641" lon="6.74565">
        <ele>2513.7</ele>
        <time>2025-01-25T12:32:19Z</time>
      </trkpt>
      <trkpt lat="44.90641" lon="6.74564">
        <ele>2513.7</ele>
        <time>2025-01-25T12:32:21Z</time>
      </trkpt>
      <trkpt lat="44.90641" lon="6.74565">
        <ele>2513.7</ele>
        <time>2025-01-25T12:32:24Z</time>
      </trkpt>
      <trkpt lat="44.9064" lon="6.74566">
        <ele>2513.6</ele>
        <time>2025-01-25T12:32:27Z</time>
      </trkpt>
      <trkpt lat="44.9064" lon="6.74567">
        <ele>2513.6</ele>
        <time>2025-01-25T12:32:28Z</time>
      </trkpt>
      <trkpt lat="44.9064" lon="6.74567">
        <ele>2513.5</ele>
        <time>2025-01-25T12:32:32Z</time>
      </trkpt>
      <trkpt lat="44.9064" lon="6.74567">
        <ele>2513.5</ele>
        <time>2025-01-25T12:32:33Z</time>
      </trkpt>
      <trkpt lat="44.9064" lon="6.74567">
        <ele>2513.5</ele>
        <time>2025-01-25T12:32:35Z</time>
      </trkpt>
      <trkpt lat="44.9064" lon="6.74567">
        <ele>2513.5</ele>
        <time>2025-01-25T12:32:42Z</time>
      </trkpt>
      <trkpt lat="44.9064" lon="6.74567">
        <ele>2513.4</ele>
        <time>2025-01-25T12:32:47Z</time>
      </trkpt>
      <trkpt lat="44.90641" lon="6.74567">
        <ele>2513.4</ele>
        <time>2025-01-25T12:32:51Z</time>
      </trkpt>
      <trkpt lat="44.90641" lon="6.74566">
        <ele>2513.3</ele>
        <time>2025-01-25T12:32:58Z</time>
      </trkpt>
      <trkpt lat="44.9064" lon="6.74568">
        <ele>2513.2</ele>
        <time>2025-01-25T12:33:02Z</time>
      </trkpt>
      <trkpt lat="44.90641" lon="6.74568">
        <ele>2513.2</ele>
        <time>2025-01-25T12:33:08Z</time>
      </trkpt>
      <trkpt lat="44.9064" lon="6.74568">
        <ele>2513.2</ele>
        <time>2025-01-25T12:33:12Z</time>
      </trkpt>
      <trkpt lat="44.9064" lon="6.74567">
        <ele>2513.2</ele>
        <time>2025-01-25T12:33:17Z</time>
      </trkpt>
      <trkpt lat="44.9064" lon="6.74567">
        <ele>2513.2</ele>
        <time>2025-01-25T12:33:25Z</time>
      </trkpt>
      <trkpt lat="44.9064" lon="6.74567">
        <ele>2513.2</ele>
        <time>2025-01-25T12:33:36Z</time>
      </trkpt>
      <trkpt lat="44.9064" lon="6.74567">
        <ele>2513.2</ele>
        <time>2025-01-25T12:33:42Z</time>
      </trkpt>
      <trkpt lat="44.9064" lon="6.74567">
        <ele>2513.1</ele>
        <time>2025-01-25T12:33:48Z</time>
      </trkpt>
      <trkpt lat="44.9064" lon="6.74567">
        <ele>2513.1</ele>
        <time>2025-01-25T12:33:54Z</time>
      </trkpt>
      <trkpt lat="44.9064" lon="6.74567">
        <ele>2513.1</ele>
        <time>2025-01-25T12:34:04Z</time>
      </trkpt>
      <trkpt lat="44.9064" lon="6.74567">
        <ele>2513.1</ele>
        <time>2025-01-25T12:34:11Z</time>
      </trkpt>
      <trkpt lat="44.9064" lon="6.74567">
        <ele>2513.1</ele>
        <time>2025-01-25T12:34:18Z</time>
      </trkpt>
      <trkpt lat="44.90639" lon="6.74566">
        <ele>2513.1</ele>
        <time>2025-01-25T12:34:26Z</time>
      </trkpt>
      <trkpt lat="44.90639" lon="6.74567">
        <ele>2513.1</ele>
        <time>2025-01-25T12:34:31Z</time>
      </trkpt>
      <trkpt lat="44.90639" lon="6.74567">
        <ele>2513.1</ele>
        <time>2025-01-25T12:34:39Z</time>
      </trkpt>
      <trkpt lat="44.90639" lon="6.74566">
        <ele>2513</ele>
        <time>2025-01-25T12:34:47Z</time>
      </trkpt>
      <trkpt lat="44.90639" lon="6.74566">
        <ele>2513</ele>
        <time>2025-01-25T12:34:55Z</time>
      </trkpt>
      <trkpt lat="44.9064" lon="6.74567">
        <ele>2513</ele>
        <time>2025-01-25T12:35:01Z</time>
      </trkpt>
      <trkpt lat="44.9064" lon="6.74567">
        <ele>2513</ele>
        <time>2025-01-25T12:35:10Z</time>
      </trkpt>
      <trkpt lat="44.90639" lon="6.74567">
        <ele>2513</ele>
        <time>2025-01-25T12:35:15Z</time>
      </trkpt>
      <trkpt lat="44.90639" lon="6.74567">
        <ele>2513</ele>
        <time>2025-01-25T12:35:21Z</time>
      </trkpt>
      <trkpt lat="44.90639" lon="6.74567">
        <ele>2513</ele>
        <time>2025-01-25T12:35:26Z</time>
      </trkpt>
      <trkpt lat="44.90639" lon="6.74567">
        <ele>2512.9</ele>
        <time>2025-01-25T12:35:32Z</time>
      </trkpt>
      <trkpt lat="44.90639" lon="6.74567">
        <ele>2512.9</ele>
        <time>2025-01-25T12:35:39Z</time>
      </trkpt>
      <trkpt lat="44.90639" lon="6.74567">
        <ele>2512.9</ele>
        <time>2025-01-25T12:35:44Z</time>
      </trkpt>
      <trkpt lat="44.90638" lon="6.74568">
        <ele>2512.9</ele>
        <time>2025-01-25T12:35:50Z</time>
      </trkpt>
      <trkpt lat="44.90638" lon="6.74569">
        <ele>2512.8</ele>
        <time>2025-01-25T12:35:56Z</time>
      </trkpt>
      <trkpt lat="44.90638" lon="6.74569">
        <ele>2512.8</ele>
        <time>2025-01-25T12:36:09Z</time>
      </trkpt>
      <trkpt lat="44.90638" lon="6.74569">
        <ele>2512.8</ele>
        <time>2025-01-25T12:36:23Z</time>
      </trkpt>
      <trkpt lat="44.90638" lon="6.74569">
        <ele>2512.8</ele>
        <time>2025-01-25T12:36:32Z</time>
      </trkpt>
      <trkpt lat="44.90638" lon="6.74569">
        <ele>2512.8</ele>
        <time>2025-01-25T12:36:46Z</time>
      </trkpt>
      <trkpt lat="44.90637" lon="6.74568">
        <ele>2512.8</ele>
        <time>2025-01-25T12:36:54Z</time>
      </trkpt>
      <trkpt lat="44.90637" lon="6.74568">
        <ele>2512.8</ele>
        <time>2025-01-25T12:37:05Z</time>
      </trkpt>
      <trkpt lat="44.90638" lon="6.74569">
        <ele>2512.7</ele>
        <time>2025-01-25T12:37:10Z</time>
      </trkpt>
      <trkpt lat="44.90638" lon="6.74569">
        <ele>2512.7</ele>
        <time>2025-01-25T12:37:19Z</time>
      </trkpt>
      <trkpt lat="44.90638" lon="6.74569">
        <ele>2512.7</ele>
        <time>2025-01-25T12:37:28Z</time>
      </trkpt>
      <trkpt lat="44.90638" lon="6.74569">
        <ele>2512.7</ele>
        <time>2025-01-25T12:37:45Z</time>
      </trkpt>
      <trkpt lat="44.90638" lon="6.74569">
        <ele>2512.7</ele>
        <time>2025-01-25T12:37:56Z</time>
      </trkpt>
      <trkpt lat="44.90638" lon="6.74569">
        <ele>2512.7</ele>
        <time>2025-01-25T12:38:29Z</time>
      </trkpt>
      <trkpt lat="44.90638" lon="6.74569">
        <ele>2512.7</ele>
        <time>2025-01-25T12:38:38Z</time>
      </trkpt>
      <trkpt lat="44.90638" lon="6.74569">
        <ele>2512.7</ele>
        <time>2025-01-25T12:38:54Z</time>
      </trkpt>
      <trkpt lat="44.90638" lon="6.74569">
        <ele>2512.7</ele>
        <time>2025-01-25T12:39:08Z</time>
      </trkpt>
      <trkpt lat="44.90638" lon="6.74569">
        <ele>2512.7</ele>
        <time>2025-01-25T12:39:32Z</time>
      </trkpt>
      <trkpt lat="44.90638" lon="6.74569">
        <ele>2512.7</ele>
        <time>2025-01-25T12:39:44Z</time>
      </trkpt>
      <trkpt lat="44.90638" lon="6.74569">
        <ele>2512.7</ele>
        <time>2025-01-25T12:40:04Z</time>
      </trkpt>
      <trkpt lat="44.90638" lon="6.74569">
        <ele>2512.7</ele>
        <time>2025-01-25T12:40:20Z</time>
      </trkpt>
      <trkpt lat="44.90635" lon="6.74563">
        <ele>2512.4</ele>
        <time>2025-01-25T12:40:24Z</time>
      </trkpt>
      <trkpt lat="44.90633" lon="6.74558">
        <ele>2512.1</ele>
        <time>2025-01-25T12:40:26Z</time>
      </trkpt>
      <trkpt lat="44.90625" lon="6.74541">
        <ele>2511</ele>
        <time>2025-01-25T12:40:31Z</time>
      </trkpt>
      <trkpt lat="44.90613" lon="6.74526">
        <ele>2505.7</ele>
        <time>2025-01-25T12:40:36Z</time>
      </trkpt>
      <trkpt lat="44.90613" lon="6.74514">
        <ele>2504.1</ele>
        <time>2025-01-25T12:40:38Z</time>
      </trkpt>
      <trkpt lat="44.90611" lon="6.74511">
        <ele>2503.5</ele>
        <time>2025-01-25T12:40:39Z</time>
      </trkpt>
      <trkpt lat="44.90607" lon="6.74504">
        <ele>2502.2</ele>
        <time>2025-01-25T12:40:41Z</time>
      </trkpt>
      <trkpt lat="44.90607" lon="6.74495">
        <ele>2500.8</ele>
        <time>2025-01-25T12:40:43Z</time>
      </trkpt>
      <trkpt lat="44.90606" lon="6.74491">
        <ele>2500.2</ele>
        <time>2025-01-25T12:40:44Z</time>
      </trkpt>
      <trkpt lat="44.90603" lon="6.74483">
        <ele>2498.6</ele>
        <time>2025-01-25T12:40:46Z</time>
      </trkpt>
      <trkpt lat="44.90606" lon="6.7447">
        <ele>2496.2</ele>
        <time>2025-01-25T12:40:49Z</time>
      </trkpt>
      <trkpt lat="44.90598" lon="6.74467">
        <ele>2493.9</ele>
        <time>2025-01-25T12:40:52Z</time>
      </trkpt>
      <trkpt lat="44.90596" lon="6.74464">
        <ele>2493</ele>
        <time>2025-01-25T12:40:53Z</time>
      </trkpt>
      <trkpt lat="44.90596" lon="6.74451">
        <ele>2490</ele>
        <time>2025-01-25T12:40:55Z</time>
      </trkpt>
      <trkpt lat="44.90596" lon="6.74443">
        <ele>2488.1</ele>
        <time>2025-01-25T12:40:57Z</time>
      </trkpt>
      <trkpt lat="44.90594" lon="6.7444">
        <ele>2487.1</ele>
        <time>2025-01-25T12:40:58Z</time>
      </trkpt>
      <trkpt lat="44.90588" lon="6.74438">
        <ele>2485.2</ele>
        <time>2025-01-25T12:41:00Z</time>
      </trkpt>
      <trkpt lat="44.90586" lon="6.74432">
        <ele>2483.6</ele>
        <time>2025-01-25T12:41:01Z</time>
      </trkpt>
      <trkpt lat="44.90586" lon="6.74424">
        <ele>2481.9</ele>
        <time>2025-01-25T12:41:02Z</time>
      </trkpt>
      <trkpt lat="44.90582" lon="6.74408">
        <ele>2478.9</ele>
        <time>2025-01-25T12:41:04Z</time>
      </trkpt>
      <trkpt lat="44.90578" lon="6.74393">
        <ele>2476.5</ele>
        <time>2025-01-25T12:41:06Z</time>
      </trkpt>
      <trkpt lat="44.90575" lon="6.74379">
        <ele>2474.9</ele>
        <time>2025-01-25T12:41:08Z</time>
      </trkpt>
      <trkpt lat="44.90574" lon="6.74372">
        <ele>2474.3</ele>
        <time>2025-01-25T12:41:09Z</time>
      </trkpt>
      <trkpt lat="44.90566" lon="6.74353">
        <ele>2472.4</ele>
        <time>2025-01-25T12:41:12Z</time>
      </trkpt>
      <trkpt lat="44.90564" lon="6.7434">
        <ele>2471</ele>
        <time>2025-01-25T12:41:14Z</time>
      </trkpt>
      <trkpt lat="44.90562" lon="6.74334">
        <ele>2470.2</ele>
        <time>2025-01-25T12:41:15Z</time>
      </trkpt>
      <trkpt lat="44.9056" lon="6.74326">
        <ele>2469.3</ele>
        <time>2025-01-25T12:41:16Z</time>
      </trkpt>
      <trkpt lat="44.90559" lon="6.74312">
        <ele>2467.7</ele>
        <time>2025-01-25T12:41:18Z</time>
      </trkpt>
      <trkpt lat="44.90556" lon="6.74301">
        <ele>2466.3</ele>
        <time>2025-01-25T12:41:20Z</time>
      </trkpt>
      <trkpt lat="44.90555" lon="6.74294">
        <ele>2465.5</ele>
        <time>2025-01-25T12:41:21Z</time>
      </trkpt>
      <trkpt lat="44.90553" lon="6.74287">
        <ele>2464.6</ele>
        <time>2025-01-25T12:41:22Z</time>
      </trkpt>
      <trkpt lat="44.90544" lon="6.74255">
        <ele>2462.2</ele>
        <time>2025-01-25T12:41:26Z</time>
      </trkpt>
      <trkpt lat="44.90534" lon="6.74226">
        <ele>2461.2</ele>
        <time>2025-01-25T12:41:31Z</time>
      </trkpt>
      <trkpt lat="44.90526" lon="6.74199">
        <ele>2460.4</ele>
        <time>2025-01-25T12:41:36Z</time>
      </trkpt>
      <trkpt lat="44.90526" lon="6.74192">
        <ele>2460.2</ele>
        <time>2025-01-25T12:41:37Z</time>
      </trkpt>
      <trkpt lat="44.90524" lon="6.74181">
        <ele>2459.6</ele>
        <time>2025-01-25T12:41:39Z</time>
      </trkpt>
      <trkpt lat="44.90525" lon="6.74176">
        <ele>2459.2</ele>
        <time>2025-01-25T12:41:40Z</time>
      </trkpt>
      <trkpt lat="44.90528" lon="6.74152">
        <ele>2457.4</ele>
        <time>2025-01-25T12:41:44Z</time>
      </trkpt>
      <trkpt lat="44.9053" lon="6.74139">
        <ele>2456.2</ele>
        <time>2025-01-25T12:41:46Z</time>
      </trkpt>
      <trkpt lat="44.90532" lon="6.74128">
        <ele>2455.2</ele>
        <time>2025-01-25T12:41:48Z</time>
      </trkpt>
      <trkpt lat="44.90534" lon="6.74114">
        <ele>2453.9</ele>
        <time>2025-01-25T12:41:51Z</time>
      </trkpt>
      <trkpt lat="44.90537" lon="6.74105">
        <ele>2453.1</ele>
        <time>2025-01-25T12:41:53Z</time>
      </trkpt>
      <trkpt lat="44.90539" lon="6.74102">
        <ele>2452.6</ele>
        <time>2025-01-25T12:41:54Z</time>
      </trkpt>
      <trkpt lat="44.90539" lon="6.74098">
        <ele>2452.3</ele>
        <time>2025-01-25T12:41:55Z</time>
      </trkpt>
      <trkpt lat="44.90538" lon="6.74092">
        <ele>2451.8</ele>
        <time>2025-01-25T12:41:57Z</time>
      </trkpt>
      <trkpt lat="44.90538" lon="6.74088">
        <ele>2451.4</ele>
        <time>2025-01-25T12:41:58Z</time>
      </trkpt>
      <trkpt lat="44.90542" lon="6.74083">
        <ele>2450.7</ele>
        <time>2025-01-25T12:42:00Z</time>
      </trkpt>
      <trkpt lat="44.90543" lon="6.74079">
        <ele>2450.3</ele>
        <time>2025-01-25T12:42:01Z</time>
      </trkpt>
      <trkpt lat="44.90542" lon="6.74071">
        <ele>2449.4</ele>
        <time>2025-01-25T12:42:03Z</time>
      </trkpt>
      <trkpt lat="44.90544" lon="6.7406">
        <ele>2448.1</ele>
        <time>2025-01-25T12:42:05Z</time>
      </trkpt>
      <trkpt lat="44.90547" lon="6.74056">
        <ele>2447.3</ele>
        <time>2025-01-25T12:42:06Z</time>
      </trkpt>
      <trkpt lat="44.9055" lon="6.74051">
        <ele>2446.7</ele>
        <time>2025-01-25T12:42:07Z</time>
      </trkpt>
      <trkpt lat="44.90551" lon="6.74041">
        <ele>2445.4</ele>
        <time>2025-01-25T12:42:09Z</time>
      </trkpt>
      <trkpt lat="44.90557" lon="6.74028">
        <ele>2443.5</ele>
        <time>2025-01-25T12:42:11Z</time>
      </trkpt>
      <trkpt lat="44.9056" lon="6.74022">
        <ele>2442.7</ele>
        <time>2025-01-25T12:42:12Z</time>
      </trkpt>
      <trkpt lat="44.90561" lon="6.74016">
        <ele>2442.1</ele>
        <time>2025-01-25T12:42:13Z</time>
      </trkpt>
      <trkpt lat="44.90564" lon="6.74007">
        <ele>2441</ele>
        <time>2025-01-25T12:42:15Z</time>
      </trkpt>
      <trkpt lat="44.90567" lon="6.73992">
        <ele>2439.5</ele>
        <time>2025-01-25T12:42:20Z</time>
      </trkpt>
      <trkpt lat="44.90572" lon="6.73987">
        <ele>2438.8</ele>
        <time>2025-01-25T12:42:22Z</time>
      </trkpt>
      <trkpt lat="44.90573" lon="6.73986">
        <ele>2438.5</ele>
        <time>2025-01-25T12:42:24Z</time>
      </trkpt>
      <trkpt lat="44.90576" lon="6.73984">
        <ele>2438.1</ele>
        <time>2025-01-25T12:42:30Z</time>
      </trkpt>
      <trkpt lat="44.90579" lon="6.73983">
        <ele>2437.8</ele>
        <time>2025-01-25T12:42:34Z</time>
      </trkpt>
      <trkpt lat="44.9058" lon="6.73981">
        <ele>2437.6</ele>
        <time>2025-01-25T12:42:36Z</time>
      </trkpt>
      <trkpt lat="44.90583" lon="6.73976">
        <ele>2437</ele>
        <time>2025-01-25T12:42:38Z</time>
      </trkpt>
      <trkpt lat="44.90583" lon="6.73973">
        <ele>2436.6</ele>
        <time>2025-01-25T12:42:39Z</time>
      </trkpt>
      <trkpt lat="44.90579" lon="6.73959">
        <ele>2435</ele>
        <time>2025-01-25T12:42:43Z</time>
      </trkpt>
      <trkpt lat="44.90586" lon="6.73954">
        <ele>2433.7</ele>
        <time>2025-01-25T12:42:46Z</time>
      </trkpt>
      <trkpt lat="44.90599" lon="6.73948">
        <ele>2430.6</ele>
        <time>2025-01-25T12:42:50Z</time>
      </trkpt>
      <trkpt lat="44.90605" lon="6.7395">
        <ele>2428.9</ele>
        <time>2025-01-25T12:42:54Z</time>
      </trkpt>
      <trkpt lat="44.90607" lon="6.73947">
        <ele>2428.3</ele>
        <time>2025-01-25T12:43:00Z</time>
      </trkpt>
      <trkpt lat="44.90612" lon="6.73947">
        <ele>2426.8</ele>
        <time>2025-01-25T12:43:03Z</time>
      </trkpt>
      <trkpt lat="44.90612" lon="6.73938">
        <ele>2424.9</ele>
        <time>2025-01-25T12:43:05Z</time>
      </trkpt>
      <trkpt lat="44.9061" lon="6.73932">
        <ele>2423.7</ele>
        <time>2025-01-25T12:43:06Z</time>
      </trkpt>
      <trkpt lat="44.90605" lon="6.73923">
        <ele>2420.7</ele>
        <time>2025-01-25T12:43:09Z</time>
      </trkpt>
      <trkpt lat="44.90604" lon="6.73917">
        <ele>2419.3</ele>
        <time>2025-01-25T12:43:10Z</time>
      </trkpt>
      <trkpt lat="44.90606" lon="6.73909">
        <ele>2416.5</ele>
        <time>2025-01-25T12:43:11Z</time>
      </trkpt>
      <trkpt lat="44.90611" lon="6.73903">
        <ele>2414.4</ele>
        <time>2025-01-25T12:43:12Z</time>
      </trkpt>
      <trkpt lat="44.90619" lon="6.73901">
        <ele>2412</ele>
        <time>2025-01-25T12:43:14Z</time>
      </trkpt>
      <trkpt lat="44.90624" lon="6.73902">
        <ele>2410.4</ele>
        <time>2025-01-25T12:43:18Z</time>
      </trkpt>
      <trkpt lat="44.90624" lon="6.73903">
        <ele>2410.2</ele>
        <time>2025-01-25T12:43:26Z</time>
      </trkpt>
      <trkpt lat="44.90624" lon="6.73902">
        <ele>2410</ele>
        <time>2025-01-25T12:43:34Z</time>
      </trkpt>
      <trkpt lat="44.90625" lon="6.73903">
        <ele>2409.6</ele>
        <time>2025-01-25T12:43:40Z</time>
      </trkpt>
      <trkpt lat="44.90625" lon="6.73903">
        <ele>2409.6</ele>
        <time>2025-01-25T12:43:42Z</time>
      </trkpt>
      <trkpt lat="44.90628" lon="6.73902">
        <ele>2408.7</ele>
        <time>2025-01-25T12:43:50Z</time>
      </trkpt>
      <trkpt lat="44.9063" lon="6.73899">
        <ele>2407.8</ele>
        <time>2025-01-25T12:43:51Z</time>
      </trkpt>
      <trkpt lat="44.90631" lon="6.7389">
        <ele>2406.1</ele>
        <time>2025-01-25T12:43:53Z</time>
      </trkpt>
      <trkpt lat="44.90631" lon="6.73879">
        <ele>2403.9</ele>
        <time>2025-01-25T12:43:55Z</time>
      </trkpt>
      <trkpt lat="44.90635" lon="6.73873">
        <ele>2402.6</ele>
        <time>2025-01-25T12:43:56Z</time>
      </trkpt>
      <trkpt lat="44.9064" lon="6.73869">
        <ele>2401.2</ele>
        <time>2025-01-25T12:43:57Z</time>
      </trkpt>
      <trkpt lat="44.90649" lon="6.73862">
        <ele>2398.5</ele>
        <time>2025-01-25T12:43:59Z</time>
      </trkpt>
      <trkpt lat="44.90663" lon="6.73853">
        <ele>2395.1</ele>
        <time>2025-01-25T12:44:01Z</time>
      </trkpt>
      <trkpt lat="44.90669" lon="6.73854">
        <ele>2393.7</ele>
        <time>2025-01-25T12:44:02Z</time>
      </trkpt>
      <trkpt lat="44.90674" lon="6.73855">
        <ele>2392.4</ele>
        <time>2025-01-25T12:44:03Z</time>
      </trkpt>
      <trkpt lat="44.90684" lon="6.73847">
        <ele>2390.3</ele>
        <time>2025-01-25T12:44:05Z</time>
      </trkpt>
      <trkpt lat="44.90693" lon="6.73846">
        <ele>2388.6</ele>
        <time>2025-01-25T12:44:07Z</time>
      </trkpt>
      <trkpt lat="44.90702" lon="6.73845">
        <ele>2387.3</ele>
        <time>2025-01-25T12:44:09Z</time>
      </trkpt>
      <trkpt lat="44.90707" lon="6.73843">
        <ele>2386.6</ele>
        <time>2025-01-25T12:44:10Z</time>
      </trkpt>
      <trkpt lat="44.90712" lon="6.73842">
        <ele>2385.9</ele>
        <time>2025-01-25T12:44:11Z</time>
      </trkpt>
      <trkpt lat="44.90722" lon="6.73838">
        <ele>2384.6</ele>
        <time>2025-01-25T12:44:13Z</time>
      </trkpt>
      <trkpt lat="44.90731" lon="6.73838">
        <ele>2383.7</ele>
        <time>2025-01-25T12:44:15Z</time>
      </trkpt>
      <trkpt lat="44.90734" lon="6.73836">
        <ele>2383.4</ele>
        <time>2025-01-25T12:44:16Z</time>
      </trkpt>
      <trkpt lat="44.9074" lon="6.7383">
        <ele>2382.6</ele>
        <time>2025-01-25T12:44:18Z</time>
      </trkpt>
      <trkpt lat="44.90743" lon="6.7383">
        <ele>2382.2</ele>
        <time>2025-01-25T12:44:19Z</time>
      </trkpt>
      <trkpt lat="44.90745" lon="6.7383">
        <ele>2381.8</ele>
        <time>2025-01-25T12:44:20Z</time>
      </trkpt>
      <trkpt lat="44.90746" lon="6.73827">
        <ele>2381.5</ele>
        <time>2025-01-25T12:44:22Z</time>
      </trkpt>
      <trkpt lat="44.90746" lon="6.73827">
        <ele>2381.5</ele>
        <time>2025-01-25T12:44:30Z</time>
      </trkpt>
      <trkpt lat="44.90746" lon="6.73827">
        <ele>2381.5</ele>
        <time>2025-01-25T12:44:40Z</time>
      </trkpt>
      <trkpt lat="44.90747" lon="6.73828">
        <ele>2381.3</ele>
        <time>2025-01-25T12:44:45Z</time>
      </trkpt>
      <trkpt lat="44.90748" lon="6.73828">
        <ele>2381.2</ele>
        <time>2025-01-25T12:44:52Z</time>
      </trkpt>
      <trkpt lat="44.90748" lon="6.73828">
        <ele>2381.2</ele>
        <time>2025-01-25T12:45:06Z</time>
      </trkpt>
      <trkpt lat="44.90748" lon="6.73828">
        <ele>2381.2</ele>
        <time>2025-01-25T12:45:14Z</time>
      </trkpt>
      <trkpt lat="44.90753" lon="6.73829">
        <ele>2380.3</ele>
        <time>2025-01-25T12:45:16Z</time>
      </trkpt>
      <trkpt lat="44.90754" lon="6.73826">
        <ele>2379.8</ele>
        <time>2025-01-25T12:45:17Z</time>
      </trkpt>
      <trkpt lat="44.90756" lon="6.7382">
        <ele>2378.8</ele>
        <time>2025-01-25T12:45:19Z</time>
      </trkpt>
      <trkpt lat="44.9076" lon="6.73817">
        <ele>2377.8</ele>
        <time>2025-01-25T12:45:20Z</time>
      </trkpt>
      <trkpt lat="44.90764" lon="6.73817">
        <ele>2376.9</ele>
        <time>2025-01-25T12:45:21Z</time>
      </trkpt>
      <trkpt lat="44.90772" lon="6.73816">
        <ele>2374.7</ele>
        <time>2025-01-25T12:45:23Z</time>
      </trkpt>
      <trkpt lat="44.90777" lon="6.73806">
        <ele>2372.5</ele>
        <time>2025-01-25T12:45:25Z</time>
      </trkpt>
      <trkpt lat="44.90779" lon="6.738">
        <ele>2370.9</ele>
        <time>2025-01-25T12:45:26Z</time>
      </trkpt>
      <trkpt lat="44.90784" lon="6.73796">
        <ele>2369.2</ele>
        <time>2025-01-25T12:45:27Z</time>
      </trkpt>
      <trkpt lat="44.90788" lon="6.73796">
        <ele>2368</ele>
        <time>2025-01-25T12:45:28Z</time>
      </trkpt>
      <trkpt lat="44.90792" lon="6.73796">
        <ele>2366.7</ele>
        <time>2025-01-25T12:45:29Z</time>
      </trkpt>
      <trkpt lat="44.90799" lon="6.73788">
        <ele>2363.9</ele>
        <time>2025-01-25T12:45:31Z</time>
      </trkpt>
      <trkpt lat="44.90801" lon="6.7378">
        <ele>2362.1</ele>
        <time>2025-01-25T12:45:32Z</time>
      </trkpt>
      <trkpt lat="44.90804" lon="6.73763">
        <ele>2358.6</ele>
        <time>2025-01-25T12:45:34Z</time>
      </trkpt>
      <trkpt lat="44.90811" lon="6.73755">
        <ele>2355.8</ele>
        <time>2025-01-25T12:45:36Z</time>
      </trkpt>
      <trkpt lat="44.90812" lon="6.73748">
        <ele>2354.4</ele>
        <time>2025-01-25T12:45:37Z</time>
      </trkpt>
      <trkpt lat="44.90816" lon="6.73731">
        <ele>2350.9</ele>
        <time>2025-01-25T12:45:39Z</time>
      </trkpt>
      <trkpt lat="44.90828" lon="6.73723">
        <ele>2347.8</ele>
        <time>2025-01-25T12:45:41Z</time>
      </trkpt>
      <trkpt lat="44.9083" lon="6.73706">
        <ele>2345.1</ele>
        <time>2025-01-25T12:45:43Z</time>
      </trkpt>
      <trkpt lat="44.90831" lon="6.73696">
        <ele>2343.7</ele>
        <time>2025-01-25T12:45:44Z</time>
      </trkpt>
      <trkpt lat="44.90836" lon="6.73691">
        <ele>2342.6</ele>
        <time>2025-01-25T12:45:45Z</time>
      </trkpt>
      <trkpt lat="44.90844" lon="6.73683">
        <ele>2340.6</ele>
        <time>2025-01-25T12:45:47Z</time>
      </trkpt>
      <trkpt lat="44.90845" lon="6.73677">
        <ele>2339.6</ele>
        <time>2025-01-25T12:45:48Z</time>
      </trkpt>
      <trkpt lat="44.90845" lon="6.73666">
        <ele>2337.9</ele>
        <time>2025-01-25T12:45:50Z</time>
      </trkpt>
      <trkpt lat="44.90852" lon="6.73665">
        <ele>2336</ele>
        <time>2025-01-25T12:45:52Z</time>
      </trkpt>
      <trkpt lat="44.90859" lon="6.73662">
        <ele>2333.9</ele>
        <time>2025-01-25T12:45:54Z</time>
      </trkpt>
      <trkpt lat="44.9086" lon="6.73657">
        <ele>2332.8</ele>
        <time>2025-01-25T12:45:55Z</time>
      </trkpt>
      <trkpt lat="44.90864" lon="6.73647">
        <ele>2330.2</ele>
        <time>2025-01-25T12:45:57Z</time>
      </trkpt>
      <trkpt lat="44.90868" lon="6.73647">
        <ele>2329</ele>
        <time>2025-01-25T12:45:58Z</time>
      </trkpt>
      <trkpt lat="44.90875" lon="6.73646">
        <ele>2326.7</ele>
        <time>2025-01-25T12:46:00Z</time>
      </trkpt>
      <trkpt lat="44.90876" lon="6.73641">
        <ele>2325.3</ele>
        <time>2025-01-25T12:46:01Z</time>
      </trkpt>
      <trkpt lat="44.90878" lon="6.73636">
        <ele>2324</ele>
        <time>2025-01-25T12:46:02Z</time>
      </trkpt>
      <trkpt lat="44.90885" lon="6.73636">
        <ele>2321.6</ele>
        <time>2025-01-25T12:46:04Z</time>
      </trkpt>
      <trkpt lat="44.90889" lon="6.73636">
        <ele>2320.3</ele>
        <time>2025-01-25T12:46:05Z</time>
      </trkpt>
      <trkpt lat="44.90892" lon="6.73632">
        <ele>2318.8</ele>
        <time>2025-01-25T12:46:06Z</time>
      </trkpt>
      <trkpt lat="44.90898" lon="6.73622">
        <ele>2315.9</ele>
        <time>2025-01-25T12:46:08Z</time>
      </trkpt>
      <trkpt lat="44.90903" lon="6.73622">
        <ele>2314.3</ele>
        <time>2025-01-25T12:46:09Z</time>
      </trkpt>
      <trkpt lat="44.90908" lon="6.73625">
        <ele>2312.7</ele>
        <time>2025-01-25T12:46:10Z</time>
      </trkpt>
      <trkpt lat="44.90917" lon="6.73622">
        <ele>2309.8</ele>
        <time>2025-01-25T12:46:12Z</time>
      </trkpt>
      <trkpt lat="44.90926" lon="6.73617">
        <ele>2307.2</ele>
        <time>2025-01-25T12:46:14Z</time>
      </trkpt>
      <trkpt lat="44.90931" lon="6.73618">
        <ele>2305.8</ele>
        <time>2025-01-25T12:46:15Z</time>
      </trkpt>
      <trkpt lat="44.90935" lon="6.73615">
        <ele>2304.6</ele>
        <time>2025-01-25T12:46:16Z</time>
      </trkpt>
      <trkpt lat="44.9094" lon="6.73613">
        <ele>2303.2</ele>
        <time>2025-01-25T12:46:17Z</time>
      </trkpt>
      <trkpt lat="44.90945" lon="6.73614">
        <ele>2301.9</ele>
        <time>2025-01-25T12:46:18Z</time>
      </trkpt>
      <trkpt lat="44.9095" lon="6.73613">
        <ele>2300.5</ele>
        <time>2025-01-25T12:46:19Z</time>
      </trkpt>
      <trkpt lat="44.90954" lon="6.7361">
        <ele>2299.3</ele>
        <time>2025-01-25T12:46:20Z</time>
      </trkpt>
      <trkpt lat="44.90958" lon="6.73606">
        <ele>2298.1</ele>
        <time>2025-01-25T12:46:21Z</time>
      </trkpt>
      <trkpt lat="44.90963" lon="6.73606">
        <ele>2296.9</ele>
        <time>2025-01-25T12:46:22Z</time>
      </trkpt>
      <trkpt lat="44.90969" lon="6.73607">
        <ele>2295.7</ele>
        <time>2025-01-25T12:46:23Z</time>
      </trkpt>
      <trkpt lat="44.90974" lon="6.73605">
        <ele>2294.4</ele>
        <time>2025-01-25T12:46:24Z</time>
      </trkpt>
      <trkpt lat="44.90986" lon="6.73601">
        <ele>2292</ele>
        <time>2025-01-25T12:46:26Z</time>
      </trkpt>
      <trkpt lat="44.90998" lon="6.73599">
        <ele>2289.7</ele>
        <time>2025-01-25T12:46:28Z</time>
      </trkpt>
      <trkpt lat="44.91004" lon="6.73597">
        <ele>2288.7</ele>
        <time>2025-01-25T12:46:29Z</time>
      </trkpt>
      <trkpt lat="44.91011" lon="6.73596">
        <ele>2287.9</ele>
        <time>2025-01-25T12:46:30Z</time>
      </trkpt>
      <trkpt lat="44.91023" lon="6.73593">
        <ele>2286.5</ele>
        <time>2025-01-25T12:46:32Z</time>
      </trkpt>
      <trkpt lat="44.91033" lon="6.73588">
        <ele>2285.7</ele>
        <time>2025-01-25T12:46:34Z</time>
      </trkpt>
      <trkpt lat="44.91042" lon="6.73582">
        <ele>2285.1</ele>
        <time>2025-01-25T12:46:36Z</time>
      </trkpt>
      <trkpt lat="44.91055" lon="6.73571">
        <ele>2284.3</ele>
        <time>2025-01-25T12:46:39Z</time>
      </trkpt>
      <trkpt lat="44.91065" lon="6.73571">
        <ele>2283.6</ele>
        <time>2025-01-25T12:46:41Z</time>
      </trkpt>
      <trkpt lat="44.91069" lon="6.73569">
        <ele>2283.3</ele>
        <time>2025-01-25T12:46:42Z</time>
      </trkpt>
      <trkpt lat="44.91077" lon="6.73561">
        <ele>2282.4</ele>
        <time>2025-01-25T12:46:44Z</time>
      </trkpt>
      <trkpt lat="44.91088" lon="6.73561">
        <ele>2281.3</ele>
        <time>2025-01-25T12:46:46Z</time>
      </trkpt>
      <trkpt lat="44.91098" lon="6.73563">
        <ele>2279.9</ele>
        <time>2025-01-25T12:46:48Z</time>
      </trkpt>
      <trkpt lat="44.91102" lon="6.73558">
        <ele>2279.2</ele>
        <time>2025-01-25T12:46:49Z</time>
      </trkpt>
      <trkpt lat="44.91109" lon="6.73547">
        <ele>2277.3</ele>
        <time>2025-01-25T12:46:51Z</time>
      </trkpt>
      <trkpt lat="44.91115" lon="6.73547">
        <ele>2276.4</ele>
        <time>2025-01-25T12:46:52Z</time>
      </trkpt>
      <trkpt lat="44.9112" lon="6.73548">
        <ele>2275.3</ele>
        <time>2025-01-25T12:46:53Z</time>
      </trkpt>
      <trkpt lat="44.91125" lon="6.73537">
        <ele>2273.6</ele>
        <time>2025-01-25T12:46:55Z</time>
      </trkpt>
      <trkpt lat="44.91126" lon="6.73531">
        <ele>2272.6</ele>
        <time>2025-01-25T12:46:56Z</time>
      </trkpt>
      <trkpt lat="44.91127" lon="6.73521">
        <ele>2271.1</ele>
        <time>2025-01-25T12:46:58Z</time>
      </trkpt>
      <trkpt lat="44.91134" lon="6.73523">
        <ele>2269.6</ele>
        <time>2025-01-25T12:47:00Z</time>
      </trkpt>
      <trkpt lat="44.91137" lon="6.73521">
        <ele>2268.9</ele>
        <time>2025-01-25T12:47:01Z</time>
      </trkpt>
      <trkpt lat="44.91139" lon="6.73518">
        <ele>2268.2</ele>
        <time>2025-01-25T12:47:02Z</time>
      </trkpt>
      <trkpt lat="44.91139" lon="6.73514">
        <ele>2267.6</ele>
        <time>2025-01-25T12:47:03Z</time>
      </trkpt>
      <trkpt lat="44.91139" lon="6.73504">
        <ele>2265.9</ele>
        <time>2025-01-25T12:47:06Z</time>
      </trkpt>
      <trkpt lat="44.91142" lon="6.73493">
        <ele>2263.8</ele>
        <time>2025-01-25T12:47:10Z</time>
      </trkpt>
      <trkpt lat="44.91148" lon="6.73494">
        <ele>2262.1</ele>
        <time>2025-01-25T12:47:13Z</time>
      </trkpt>
      <trkpt lat="44.91154" lon="6.73496">
        <ele>2260.3</ele>
        <time>2025-01-25T12:47:17Z</time>
      </trkpt>
      <trkpt lat="44.91157" lon="6.73495">
        <ele>2259.6</ele>
        <time>2025-01-25T12:47:18Z</time>
      </trkpt>
      <trkpt lat="44.91159" lon="6.73486">
        <ele>2257.5</ele>
        <time>2025-01-25T12:47:20Z</time>
      </trkpt>
      <trkpt lat="44.91158" lon="6.73482">
        <ele>2256.6</ele>
        <time>2025-01-25T12:47:21Z</time>
      </trkpt>
      <trkpt lat="44.91157" lon="6.73476">
        <ele>2255.4</ele>
        <time>2025-01-25T12:47:23Z</time>
      </trkpt>
      <trkpt lat="44.91162" lon="6.73472">
        <ele>2253.4</ele>
        <time>2025-01-25T12:47:26Z</time>
      </trkpt>
      <trkpt lat="44.91165" lon="6.73475">
        <ele>2252.4</ele>
        <time>2025-01-25T12:47:28Z</time>
      </trkpt>
      <trkpt lat="44.91169" lon="6.73475">
        <ele>2251.1</ele>
        <time>2025-01-25T12:47:30Z</time>
      </trkpt>
      <trkpt lat="44.91174" lon="6.73473">
        <ele>2249.4</ele>
        <time>2025-01-25T12:47:32Z</time>
      </trkpt>
      <trkpt lat="44.91175" lon="6.73468">
        <ele>2248.3</ele>
        <time>2025-01-25T12:47:33Z</time>
      </trkpt>
      <trkpt lat="44.91176" lon="6.73458">
        <ele>2246.1</ele>
        <time>2025-01-25T12:47:35Z</time>
      </trkpt>
      <trkpt lat="44.9118" lon="6.73455">
        <ele>2244.8</ele>
        <time>2025-01-25T12:47:36Z</time>
      </trkpt>
      <trkpt lat="44.91189" lon="6.73456">
        <ele>2241.9</ele>
        <time>2025-01-25T12:47:39Z</time>
      </trkpt>
      <trkpt lat="44.91188" lon="6.7345">
        <ele>2240.4</ele>
        <time>2025-01-25T12:47:41Z</time>
      </trkpt>
      <trkpt lat="44.9119" lon="6.73443">
        <ele>2238.7</ele>
        <time>2025-01-25T12:47:43Z</time>
      </trkpt>
      <trkpt lat="44.91194" lon="6.73441">
        <ele>2237.4</ele>
        <time>2025-01-25T12:47:44Z</time>
      </trkpt>
      <trkpt lat="44.91199" lon="6.73443">
        <ele>2235.6</ele>
        <time>2025-01-25T12:47:46Z</time>
      </trkpt>
      <trkpt lat="44.91201" lon="6.73443">
        <ele>2235</ele>
        <time>2025-01-25T12:47:47Z</time>
      </trkpt>
      <trkpt lat="44.91206" lon="6.73444">
        <ele>2233.7</ele>
        <time>2025-01-25T12:47:49Z</time>
      </trkpt>
      <trkpt lat="44.91208" lon="6.7344">
        <ele>2232.8</ele>
        <time>2025-01-25T12:47:50Z</time>
      </trkpt>
      <trkpt lat="44.91208" lon="6.73436">
        <ele>2231.9</ele>
        <time>2025-01-25T12:47:51Z</time>
      </trkpt>
      <trkpt lat="44.91212" lon="6.73426">
        <ele>2229.5</ele>
        <time>2025-01-25T12:47:53Z</time>
      </trkpt>
      <trkpt lat="44.91219" lon="6.73426">
        <ele>2227.6</ele>
        <time>2025-01-25T12:47:55Z</time>
      </trkpt>
      <trkpt lat="44.91222" lon="6.73424">
        <ele>2226.7</ele>
        <time>2025-01-25T12:47:56Z</time>
      </trkpt>
      <trkpt lat="44.91228" lon="6.73418">
        <ele>2224.6</ele>
        <time>2025-01-25T12:47:58Z</time>
      </trkpt>
      <trkpt lat="44.91235" lon="6.73405">
        <ele>2221.5</ele>
        <time>2025-01-25T12:48:00Z</time>
      </trkpt>
      <trkpt lat="44.91239" lon="6.73403">
        <ele>2220.2</ele>
        <time>2025-01-25T12:48:01Z</time>
      </trkpt>
      <trkpt lat="44.91244" lon="6.734">
        <ele>2219</ele>
        <time>2025-01-25T12:48:02Z</time>
      </trkpt>
      <trkpt lat="44.91252" lon="6.73387">
        <ele>2216.4</ele>
        <time>2025-01-25T12:48:04Z</time>
      </trkpt>
      <trkpt lat="44.91262" lon="6.7337">
        <ele>2213.2</ele>
        <time>2025-01-25T12:48:07Z</time>
      </trkpt>
      <trkpt lat="44.91268" lon="6.73357">
        <ele>2211.4</ele>
        <time>2025-01-25T12:48:09Z</time>
      </trkpt>
      <trkpt lat="44.91272" lon="6.73353">
        <ele>2210.6</ele>
        <time>2025-01-25T12:48:10Z</time>
      </trkpt>
      <trkpt lat="44.91274" lon="6.73348">
        <ele>2210</ele>
        <time>2025-01-25T12:48:11Z</time>
      </trkpt>
      <trkpt lat="44.91279" lon="6.73335">
        <ele>2208.7</ele>
        <time>2025-01-25T12:48:13Z</time>
      </trkpt>
      <trkpt lat="44.91286" lon="6.73327">
        <ele>2207.8</ele>
        <time>2025-01-25T12:48:15Z</time>
      </trkpt>
      <trkpt lat="44.91287" lon="6.73321">
        <ele>2207.5</ele>
        <time>2025-01-25T12:48:16Z</time>
      </trkpt>
      <trkpt lat="44.91287" lon="6.73315">
        <ele>2207</ele>
        <time>2025-01-25T12:48:17Z</time>
      </trkpt>
      <trkpt lat="44.91291" lon="6.733">
        <ele>2206</ele>
        <time>2025-01-25T12:48:19Z</time>
      </trkpt>
      <trkpt lat="44.91291" lon="6.73294">
        <ele>2205.6</ele>
        <time>2025-01-25T12:48:20Z</time>
      </trkpt>
      <trkpt lat="44.91293" lon="6.73286">
        <ele>2205.1</ele>
        <time>2025-01-25T12:48:22Z</time>
      </trkpt>
      <trkpt lat="44.91292" lon="6.73283">
        <ele>2204.9</ele>
        <time>2025-01-25T12:48:23Z</time>
      </trkpt>
      <trkpt lat="44.91291" lon="6.73278">
        <ele>2204.5</ele>
        <time>2025-01-25T12:48:25Z</time>
      </trkpt>
      <trkpt lat="44.91293" lon="6.73266">
        <ele>2203.8</ele>
        <time>2025-01-25T12:48:30Z</time>
      </trkpt>
      <trkpt lat="44.91293" lon="6.73264">
        <ele>2203.6</ele>
        <time>2025-01-25T12:48:31Z</time>
      </trkpt>
      <trkpt lat="44.91294" lon="6.73256">
        <ele>2203.1</ele>
        <time>2025-01-25T12:48:34Z</time>
      </trkpt>
      <trkpt lat="44.91295" lon="6.73252">
        <ele>2202.8</ele>
        <time>2025-01-25T12:48:36Z</time>
      </trkpt>
      <trkpt lat="44.91296" lon="6.73249">
        <ele>2202.6</ele>
        <time>2025-01-25T12:48:37Z</time>
      </trkpt>
      <trkpt lat="44.91297" lon="6.73245">
        <ele>2202.3</ele>
        <time>2025-01-25T12:48:39Z</time>
      </trkpt>
      <trkpt lat="44.913" lon="6.73241">
        <ele>2201.9</ele>
        <time>2025-01-25T12:48:42Z</time>
      </trkpt>
      <trkpt lat="44.91302" lon="6.73237">
        <ele>2201.6</ele>
        <time>2025-01-25T12:48:44Z</time>
      </trkpt>
      <trkpt lat="44.91307" lon="6.73238">
        <ele>2201.1</ele>
        <time>2025-01-25T12:48:46Z</time>
      </trkpt>
      <trkpt lat="44.91313" lon="6.73237">
        <ele>2200.6</ele>
        <time>2025-01-25T12:48:48Z</time>
      </trkpt>
      <trkpt lat="44.91319" lon="6.73231">
        <ele>2199.9</ele>
        <time>2025-01-25T12:48:50Z</time>
      </trkpt>
      <trkpt lat="44.91327" lon="6.73214">
        <ele>2198.6</ele>
        <time>2025-01-25T12:48:55Z</time>
      </trkpt>
      <trkpt lat="44.91327" lon="6.73209">
        <ele>2198.2</ele>
        <time>2025-01-25T12:48:57Z</time>
      </trkpt>
      <trkpt lat="44.91326" lon="6.73206">
        <ele>2198</ele>
        <time>2025-01-25T12:48:59Z</time>
      </trkpt>
      <trkpt lat="44.91326" lon="6.73202">
        <ele>2197.8</ele>
        <time>2025-01-25T12:49:05Z</time>
      </trkpt>
      <trkpt lat="44.91326" lon="6.73201">
        <ele>2197.7</ele>
        <time>2025-01-25T12:49:11Z</time>
      </trkpt>
      <trkpt lat="44.91326" lon="6.73201">
        <ele>2197.7</ele>
        <time>2025-01-25T12:49:21Z</time>
      </trkpt>
      <trkpt lat="44.91326" lon="6.73201">
        <ele>2197.7</ele>
        <time>2025-01-25T12:49:31Z</time>
      </trkpt>
      <trkpt lat="44.91326" lon="6.73201">
        <ele>2197.7</ele>
        <time>2025-01-25T12:49:42Z</time>
      </trkpt>
      <trkpt lat="44.91325" lon="6.73201">
        <ele>2197.6</ele>
        <time>2025-01-25T12:49:53Z</time>
      </trkpt>
      <trkpt lat="44.91325" lon="6.73201">
        <ele>2197.6</ele>
        <time>2025-01-25T12:50:05Z</time>
      </trkpt>
      <trkpt lat="44.91325" lon="6.73201">
        <ele>2197.6</ele>
        <time>2025-01-25T12:50:17Z</time>
      </trkpt>
      <trkpt lat="44.91325" lon="6.73201">
        <ele>2197.6</ele>
        <time>2025-01-25T12:50:22Z</time>
      </trkpt>
      <trkpt lat="44.91325" lon="6.73201">
        <ele>2197.6</ele>
        <time>2025-01-25T12:55:48Z</time>
      </trkpt>
      <trkpt lat="44.91325" lon="6.732">
        <ele>2197.6</ele>
        <time>2025-01-25T12:55:54Z</time>
      </trkpt>
      <trkpt lat="44.91326" lon="6.73196">
        <ele>2197.3</ele>
        <time>2025-01-25T12:56:03Z</time>
      </trkpt>
      <trkpt lat="44.91329" lon="6.73199">
        <ele>2196.9</ele>
        <time>2025-01-25T12:56:11Z</time>
      </trkpt>
      <trkpt lat="44.91331" lon="6.73199">
        <ele>2196.8</ele>
        <time>2025-01-25T12:56:12Z</time>
      </trkpt>
      <trkpt lat="44.91334" lon="6.73197">
        <ele>2196.4</ele>
        <time>2025-01-25T12:56:14Z</time>
      </trkpt>
      <trkpt lat="44.91335" lon="6.73194">
        <ele>2196.2</ele>
        <time>2025-01-25T12:56:15Z</time>
      </trkpt>
      <trkpt lat="44.91336" lon="6.73191">
        <ele>2196</ele>
        <time>2025-01-25T12:56:20Z</time>
      </trkpt>
      <trkpt lat="44.91339" lon="6.73188">
        <ele>2195.7</ele>
        <time>2025-01-25T12:56:27Z</time>
      </trkpt>
      <trkpt lat="44.91345" lon="6.73185">
        <ele>2195.1</ele>
        <time>2025-01-25T12:56:33Z</time>
      </trkpt>
      <trkpt lat="44.91351" lon="6.73186">
        <ele>2193.8</ele>
        <time>2025-01-25T12:56:42Z</time>
      </trkpt>
      <trkpt lat="44.91358" lon="6.73188">
        <ele>2192.9</ele>
        <time>2025-01-25T12:56:50Z</time>
      </trkpt>
      <trkpt lat="44.91366" lon="6.73186">
        <ele>2191.2</ele>
        <time>2025-01-25T12:56:59Z</time>
      </trkpt>
      <trkpt lat="44.91369" lon="6.73182">
        <ele>2190.1</ele>
        <time>2025-01-25T12:57:06Z</time>
      </trkpt>
      <trkpt lat="44.91372" lon="6.73181">
        <ele>2189.3</ele>
        <time>2025-01-25T12:57:08Z</time>
      </trkpt>
      <trkpt lat="44.91376" lon="6.73184">
        <ele>2188.8</ele>
        <time>2025-01-25T12:57:11Z</time>
      </trkpt>
      <trkpt lat="44.91379" lon="6.73186">
        <ele>2188.2</ele>
        <time>2025-01-25T12:57:17Z</time>
      </trkpt>
      <trkpt lat="44.91381" lon="6.73186">
        <ele>2187.5</ele>
        <time>2025-01-25T12:57:24Z</time>
      </trkpt>
      <trkpt lat="44.91387" lon="6.73183">
        <ele>2186.6</ele>
        <time>2025-01-25T12:57:28Z</time>
      </trkpt>
      <trkpt lat="44.91392" lon="6.73183">
        <ele>2185.9</ele>
        <time>2025-01-25T12:57:30Z</time>
      </trkpt>
      <trkpt lat="44.91397" lon="6.73186">
        <ele>2185.2</ele>
        <time>2025-01-25T12:57:32Z</time>
      </trkpt>
      <trkpt lat="44.91408" lon="6.73177">
        <ele>2183.4</ele>
        <time>2025-01-25T12:57:35Z</time>
      </trkpt>
      <trkpt lat="44.91421" lon="6.73166">
        <ele>2181.5</ele>
        <time>2025-01-25T12:57:38Z</time>
      </trkpt>
      <trkpt lat="44.91424" lon="6.73161">
        <ele>2181</ele>
        <time>2025-01-25T12:57:39Z</time>
      </trkpt>
      <trkpt lat="44.91429" lon="6.73134">
        <ele>2178.9</ele>
        <time>2025-01-25T12:57:43Z</time>
      </trkpt>
      <trkpt lat="44.91429" lon="6.73121">
        <ele>2177.9</ele>
        <time>2025-01-25T12:57:45Z</time>
      </trkpt>
      <trkpt lat="44.91427" lon="6.73115">
        <ele>2177.5</ele>
        <time>2025-01-25T12:57:46Z</time>
      </trkpt>
      <trkpt lat="44.91428" lon="6.73108">
        <ele>2177</ele>
        <time>2025-01-25T12:57:47Z</time>
      </trkpt>
      <trkpt lat="44.91432" lon="6.73089">
        <ele>2175.8</ele>
        <time>2025-01-25T12:57:50Z</time>
      </trkpt>
      <trkpt lat="44.91442" lon="6.73081">
        <ele>2174.7</ele>
        <time>2025-01-25T12:57:53Z</time>
      </trkpt>
      <trkpt lat="44.9146" lon="6.73076">
        <ele>2172.4</ele>
        <time>2025-01-25T12:57:57Z</time>
      </trkpt>
      <trkpt lat="44.91475" lon="6.73064">
        <ele>2169.5</ele>
        <time>2025-01-25T12:58:02Z</time>
      </trkpt>
      <trkpt lat="44.91483" lon="6.73055">
        <ele>2167.8</ele>
        <time>2025-01-25T12:58:04Z</time>
      </trkpt>
      <trkpt lat="44.91494" lon="6.73052">
        <ele>2166</ele>
        <time>2025-01-25T12:58:06Z</time>
      </trkpt>
      <trkpt lat="44.91494" lon="6.73052">
        <ele>2166</ele>
        <time>2025-01-25T12:58:07Z</time>
      </trkpt>
      <trkpt lat="44.91511" lon="6.73052">
        <ele>2164.1</ele>
        <time>2025-01-25T12:58:10Z</time>
      </trkpt>
      <trkpt lat="44.91522" lon="6.73044">
        <ele>2163.5</ele>
        <time>2025-01-25T12:58:16Z</time>
      </trkpt>
      <trkpt lat="44.91531" lon="6.7305">
        <ele>2163.3</ele>
        <time>2025-01-25T12:58:20Z</time>
      </trkpt>
      <trkpt lat="44.91539" lon="6.73055">
        <ele>2161</ele>
        <time>2025-01-25T12:58:26Z</time>
      </trkpt>
      <trkpt lat="44.91553" lon="6.73065">
        <ele>2157</ele>
        <time>2025-01-25T12:58:32Z</time>
      </trkpt>
      <trkpt lat="44.91563" lon="6.73072">
        <ele>2156.1</ele>
        <time>2025-01-25T12:58:34Z</time>
      </trkpt>
      <trkpt lat="44.91579" lon="6.73074">
        <ele>2153.8</ele>
        <time>2025-01-25T12:58:36Z</time>
      </trkpt>
      <trkpt lat="44.91607" lon="6.73074">
        <ele>2149</ele>
        <time>2025-01-25T12:58:41Z</time>
      </trkpt>
      <trkpt lat="44.91607" lon="6.73074">
        <ele>2149</ele>
        <time>2025-01-25T12:58:42Z</time>
      </trkpt>
      <trkpt lat="44.9163" lon="6.73075">
        <ele>2145.4</ele>
        <time>2025-01-25T12:58:46Z</time>
      </trkpt>
      <trkpt lat="44.91657" lon="6.73079">
        <ele>2141.4</ele>
        <time>2025-01-25T12:58:52Z</time>
      </trkpt>
      <trkpt lat="44.91673" lon="6.73081">
        <ele>2138.5</ele>
        <time>2025-01-25T12:58:57Z</time>
      </trkpt>
      <trkpt lat="44.91695" lon="6.73084">
        <ele>2134.9</ele>
        <time>2025-01-25T12:59:04Z</time>
      </trkpt>
      <trkpt lat="44.9173" lon="6.73084">
        <ele>2131.1</ele>
        <time>2025-01-25T12:59:12Z</time>
      </trkpt>
      <trkpt lat="44.91747" lon="6.7308">
        <ele>2130</ele>
        <time>2025-01-25T12:59:17Z</time>
      </trkpt>
      <trkpt lat="44.9176" lon="6.73067">
        <ele>2128.5</ele>
        <time>2025-01-25T12:59:23Z</time>
      </trkpt>
      <trkpt lat="44.91763" lon="6.73059">
        <ele>2129</ele>
        <time>2025-01-25T12:59:30Z</time>
      </trkpt>
      <trkpt lat="44.91767" lon="6.73051">
        <ele>2129.6</ele>
        <time>2025-01-25T12:59:36Z</time>
      </trkpt>
      <trkpt lat="44.91771" lon="6.73043">
        <ele>2130.2</ele>
        <time>2025-01-25T12:59:43Z</time>
      </trkpt>
      <trkpt lat="44.91775" lon="6.73035">
        <ele>2130.4</ele>
        <time>2025-01-25T12:59:44Z</time>
      </trkpt>
      <trkpt lat="44.91772" lon="6.73008">
        <ele>2132.7</ele>
        <time>2025-01-25T12:59:45Z</time>
      </trkpt>
      <trkpt lat="44.91771" lon="6.73001">
        <ele>2133.5</ele>
        <time>2025-01-25T12:59:47Z</time>
      </trkpt>
      <trkpt lat="44.91778" lon="6.7299">
        <ele>2131.6</ele>
        <time>2025-01-25T12:59:50Z</time>
      </trkpt>
      <trkpt lat="44.91782" lon="6.72975">
        <ele>2129.4</ele>
        <time>2025-01-25T12:59:52Z</time>
      </trkpt>
      <trkpt lat="44.91782" lon="6.72975">
        <ele>2129.4</ele>
        <time>2025-01-25T12:59:53Z</time>
      </trkpt>
      <trkpt lat="44.91789" lon="6.72965">
        <ele>2126.7</ele>
        <time>2025-01-25T12:59:56Z</time>
      </trkpt>
      <trkpt lat="44.91793" lon="6.72958">
        <ele>2125.4</ele>
        <time>2025-01-25T12:59:58Z</time>
      </trkpt>
      <trkpt lat="44.91794" lon="6.72949">
        <ele>2124.1</ele>
        <time>2025-01-25T13:00:00Z</time>
      </trkpt>
      <trkpt lat="44.91792" lon="6.72943">
        <ele>2123.1</ele>
        <time>2025-01-25T13:00:03Z</time>
      </trkpt>
      <trkpt lat="44.91789" lon="6.72937">
        <ele>2122.1</ele>
        <time>2025-01-25T13:00:04Z</time>
      </trkpt>
      <trkpt lat="44.91791" lon="6.72937">
        <ele>2121.8</ele>
        <time>2025-01-25T13:00:05Z</time>
      </trkpt>
      <trkpt lat="44.91796" lon="6.72937">
        <ele>2120.7</ele>
        <time>2025-01-25T13:00:08Z</time>
      </trkpt>
      <trkpt lat="44.91797" lon="6.72939">
        <ele>2120.2</ele>
        <time>2025-01-25T13:00:15Z</time>
      </trkpt>
      <trkpt lat="44.91797" lon="6.72939">
        <ele>2120.2</ele>
        <time>2025-01-25T13:00:28Z</time>
      </trkpt>
      <trkpt lat="44.91797" lon="6.72939">
        <ele>2120.2</ele>
        <time>2025-01-25T13:00:43Z</time>
      </trkpt>
      <trkpt lat="44.91798" lon="6.72939">
        <ele>2120.1</ele>
        <time>2025-01-25T13:01:01Z</time>
      </trkpt>
      <trkpt lat="44.91798" lon="6.72939">
        <ele>2120.1</ele>
        <time>2025-01-25T13:01:16Z</time>
      </trkpt>
      <trkpt lat="44.91799" lon="6.72937">
        <ele>2119.7</ele>
        <time>2025-01-25T13:01:18Z</time>
      </trkpt>
      <trkpt lat="44.91798" lon="6.72928">
        <ele>2118</ele>
        <time>2025-01-25T13:01:20Z</time>
      </trkpt>
      <trkpt lat="44.91798" lon="6.72921">
        <ele>2116.8</ele>
        <time>2025-01-25T13:01:21Z</time>
      </trkpt>
      <trkpt lat="44.91802" lon="6.72909">
        <ele>2114.1</ele>
        <time>2025-01-25T13:01:23Z</time>
      </trkpt>
      <trkpt lat="44.91813" lon="6.72902">
        <ele>2110.3</ele>
        <time>2025-01-25T13:01:26Z</time>
      </trkpt>
      <trkpt lat="44.91816" lon="6.72892">
        <ele>2108.6</ele>
        <time>2025-01-25T13:01:28Z</time>
      </trkpt>
      <trkpt lat="44.91822" lon="6.72887">
        <ele>2107</ele>
        <time>2025-01-25T13:01:30Z</time>
      </trkpt>
      <trkpt lat="44.91825" lon="6.72884">
        <ele>2106.1</ele>
        <time>2025-01-25T13:01:31Z</time>
      </trkpt>
      <trkpt lat="44.91826" lon="6.72872">
        <ele>2104.4</ele>
        <time>2025-01-25T13:01:33Z</time>
      </trkpt>
      <trkpt lat="44.91828" lon="6.72867">
        <ele>2103.5</ele>
        <time>2025-01-25T13:01:34Z</time>
      </trkpt>
      <trkpt lat="44.91834" lon="6.7286">
        <ele>2101.7</ele>
        <time>2025-01-25T13:01:36Z</time>
      </trkpt>
      <trkpt lat="44.91834" lon="6.72848">
        <ele>2099.9</ele>
        <time>2025-01-25T13:01:38Z</time>
      </trkpt>
      <trkpt lat="44.91837" lon="6.72841">
        <ele>2098.7</ele>
        <time>2025-01-25T13:01:39Z</time>
      </trkpt>
      <trkpt lat="44.91849" lon="6.72832">
        <ele>2095.5</ele>
        <time>2025-01-25T13:01:41Z</time>
      </trkpt>
      <trkpt lat="44.91848" lon="6.72827">
        <ele>2094.7</ele>
        <time>2025-01-25T13:01:42Z</time>
      </trkpt>
      <trkpt lat="44.91847" lon="6.72821">
        <ele>2093.8</ele>
        <time>2025-01-25T13:01:43Z</time>
      </trkpt>
      <trkpt lat="44.91833" lon="6.72826">
        <ele>2090.7</ele>
        <time>2025-01-25T13:01:45Z</time>
      </trkpt>
      <trkpt lat="44.91835" lon="6.72822">
        <ele>2090</ele>
        <time>2025-01-25T13:01:46Z</time>
      </trkpt>
      <trkpt lat="44.91843" lon="6.72809">
        <ele>2087.4</ele>
        <time>2025-01-25T13:01:48Z</time>
      </trkpt>
      <trkpt lat="44.91843" lon="6.72809">
        <ele>2087.4</ele>
        <time>2025-01-25T13:01:49Z</time>
      </trkpt>
      <trkpt lat="44.9184" lon="6.72782">
        <ele>2083.3</ele>
        <time>2025-01-25T13:01:51Z</time>
      </trkpt>
      <trkpt lat="44.91843" lon="6.72797">
        <ele>2081</ele>
        <time>2025-01-25T13:01:52Z</time>
      </trkpt>
      <trkpt lat="44.91843" lon="6.72794">
        <ele>2080.4</ele>
        <time>2025-01-25T13:01:58Z</time>
      </trkpt>
      <trkpt lat="44.91853" lon="6.72774">
        <ele>2074.8</ele>
        <time>2025-01-25T13:02:02Z</time>
      </trkpt>
      <trkpt lat="44.91853" lon="6.72774">
        <ele>2074.8</ele>
        <time>2025-01-25T13:02:03Z</time>
      </trkpt>
      <trkpt lat="44.9186" lon="6.72765">
        <ele>2071.9</ele>
        <time>2025-01-25T13:02:05Z</time>
      </trkpt>
      <trkpt lat="44.91869" lon="6.72755">
        <ele>2068.6</ele>
        <time>2025-01-25T13:02:08Z</time>
      </trkpt>
      <trkpt lat="44.91875" lon="6.72746">
        <ele>2065.7</ele>
        <time>2025-01-25T13:02:11Z</time>
      </trkpt>
      <trkpt lat="44.91883" lon="6.72737">
        <ele>2062.8</ele>
        <time>2025-01-25T13:02:13Z</time>
      </trkpt>
      <trkpt lat="44.91885" lon="6.72734">
        <ele>2061.7</ele>
        <time>2025-01-25T13:02:14Z</time>
      </trkpt>
      <trkpt lat="44.91888" lon="6.72731">
        <ele>2060.8</ele>
        <time>2025-01-25T13:02:15Z</time>
      </trkpt>
      <trkpt lat="44.91893" lon="6.72723">
        <ele>2058.7</ele>
        <time>2025-01-25T13:02:17Z</time>
      </trkpt>
      <trkpt lat="44.919" lon="6.72715">
        <ele>2056.4</ele>
        <time>2025-01-25T13:02:19Z</time>
      </trkpt>
      <trkpt lat="44.91904" lon="6.72711">
        <ele>2055.2</ele>
        <time>2025-01-25T13:02:20Z</time>
      </trkpt>
      <trkpt lat="44.91908" lon="6.72707">
        <ele>2053.8</ele>
        <time>2025-01-25T13:02:22Z</time>
      </trkpt>
      <trkpt lat="44.91915" lon="6.72696">
        <ele>2051.6</ele>
        <time>2025-01-25T13:02:23Z</time>
      </trkpt>
      <trkpt lat="44.91921" lon="6.72685">
        <ele>2049.5</ele>
        <time>2025-01-25T13:02:24Z</time>
      </trkpt>
      <trkpt lat="44.91928" lon="6.72675">
        <ele>2047.5</ele>
        <time>2025-01-25T13:02:26Z</time>
      </trkpt>
      <trkpt lat="44.91933" lon="6.72662">
        <ele>2045.3</ele>
        <time>2025-01-25T13:02:28Z</time>
      </trkpt>
      <trkpt lat="44.91937" lon="6.7266">
        <ele>2044.3</ele>
        <time>2025-01-25T13:02:29Z</time>
      </trkpt>
      <trkpt lat="44.91945" lon="6.72656">
        <ele>2042.4</ele>
        <time>2025-01-25T13:02:31Z</time>
      </trkpt>
      <trkpt lat="44.91948" lon="6.72651">
        <ele>2041.3</ele>
        <time>2025-01-25T13:02:32Z</time>
      </trkpt>
      <trkpt lat="44.91948" lon="6.72643">
        <ele>2040.1</ele>
        <time>2025-01-25T13:02:33Z</time>
      </trkpt>
      <trkpt lat="44.91953" lon="6.72631">
        <ele>2037.8</ele>
        <time>2025-01-25T13:02:35Z</time>
      </trkpt>
      <trkpt lat="44.91961" lon="6.72613">
        <ele>2034.1</ele>
        <time>2025-01-25T13:02:39Z</time>
      </trkpt>
      <trkpt lat="44.91961" lon="6.72613">
        <ele>2034</ele>
        <time>2025-01-25T13:02:44Z</time>
      </trkpt>
      <trkpt lat="44.91964" lon="6.72612">
        <ele>2033.2</ele>
        <time>2025-01-25T13:02:51Z</time>
      </trkpt>
      <trkpt lat="44.91971" lon="6.7261">
        <ele>2031.6</ele>
        <time>2025-01-25T13:02:53Z</time>
      </trkpt>
      <trkpt lat="44.91974" lon="6.72609">
        <ele>2030.6</ele>
        <time>2025-01-25T13:02:54Z</time>
      </trkpt>
      <trkpt lat="44.91981" lon="6.72605">
        <ele>2028.7</ele>
        <time>2025-01-25T13:02:55Z</time>
      </trkpt>
      <trkpt lat="44.91986" lon="6.72594">
        <ele>2026.2</ele>
        <time>2025-01-25T13:02:57Z</time>
      </trkpt>
      <trkpt lat="44.91988" lon="6.72586">
        <ele>2024.6</ele>
        <time>2025-01-25T13:02:59Z</time>
      </trkpt>
      <trkpt lat="44.91991" lon="6.72579">
        <ele>2023</ele>
        <time>2025-01-25T13:03:00Z</time>
      </trkpt>
      <trkpt lat="44.91998" lon="6.72556">
        <ele>2017.8</ele>
        <time>2025-01-25T13:03:01Z</time>
      </trkpt>
      <trkpt lat="44.92009" lon="6.72543">
        <ele>2014.6</ele>
        <time>2025-01-25T13:03:03Z</time>
      </trkpt>
      <trkpt lat="44.92016" lon="6.72528">
        <ele>2012.1</ele>
        <time>2025-01-25T13:03:05Z</time>
      </trkpt>
      <trkpt lat="44.9202" lon="6.72502">
        <ele>2009</ele>
        <time>2025-01-25T13:03:08Z</time>
      </trkpt>
      <trkpt lat="44.92023" lon="6.72495">
        <ele>2007.8</ele>
        <time>2025-01-25T13:03:09Z</time>
      </trkpt>
      <trkpt lat="44.92022" lon="6.72482">
        <ele>2005.9</ele>
        <time>2025-01-25T13:03:10Z</time>
      </trkpt>
      <trkpt lat="44.92032" lon="6.72474">
        <ele>2004</ele>
        <time>2025-01-25T13:03:12Z</time>
      </trkpt>
      <trkpt lat="44.92035" lon="6.72463">
        <ele>2002.6</ele>
        <time>2025-01-25T13:03:14Z</time>
      </trkpt>
      <trkpt lat="44.92037" lon="6.72455">
        <ele>2001.5</ele>
        <time>2025-01-25T13:03:15Z</time>
      </trkpt>
      <trkpt lat="44.92038" lon="6.72447">
        <ele>2000.4</ele>
        <time>2025-01-25T13:03:16Z</time>
      </trkpt>
      <trkpt lat="44.92041" lon="6.72441">
        <ele>1999.5</ele>
        <time>2025-01-25T13:03:17Z</time>
      </trkpt>
      <trkpt lat="44.92043" lon="6.72434">
        <ele>1998.4</ele>
        <time>2025-01-25T13:03:18Z</time>
      </trkpt>
      <trkpt lat="44.92064" lon="6.72447">
        <ele>2001.3</ele>
        <time>2025-01-25T13:03:20Z</time>
      </trkpt>
      <trkpt lat="44.92073" lon="6.72439">
        <ele>2000.1</ele>
        <time>2025-01-25T13:03:22Z</time>
      </trkpt>
      <trkpt lat="44.92076" lon="6.72437">
        <ele>1999.6</ele>
        <time>2025-01-25T13:03:23Z</time>
      </trkpt>
      <trkpt lat="44.9208" lon="6.72433">
        <ele>1999.1</ele>
        <time>2025-01-25T13:03:24Z</time>
      </trkpt>
      <trkpt lat="44.92085" lon="6.72429">
        <ele>1998.5</ele>
        <time>2025-01-25T13:03:25Z</time>
      </trkpt>
      <trkpt lat="44.92089" lon="6.72426">
        <ele>1998</ele>
        <time>2025-01-25T13:03:26Z</time>
      </trkpt>
      <trkpt lat="44.92096" lon="6.7242">
        <ele>1997</ele>
        <time>2025-01-25T13:03:28Z</time>
      </trkpt>
      <trkpt lat="44.92105" lon="6.72413">
        <ele>1996.1</ele>
        <time>2025-01-25T13:03:30Z</time>
      </trkpt>
      <trkpt lat="44.92108" lon="6.7241">
        <ele>1995.6</ele>
        <time>2025-01-25T13:03:31Z</time>
      </trkpt>
      <trkpt lat="44.92113" lon="6.72406">
        <ele>1995.1</ele>
        <time>2025-01-25T13:03:32Z</time>
      </trkpt>
      <trkpt lat="44.92121" lon="6.72399">
        <ele>1994</ele>
        <time>2025-01-25T13:03:34Z</time>
      </trkpt>
      <trkpt lat="44.9213" lon="6.72392">
        <ele>1993</ele>
        <time>2025-01-25T13:03:36Z</time>
      </trkpt>
      <trkpt lat="44.92135" lon="6.72388">
        <ele>1992.4</ele>
        <time>2025-01-25T13:03:37Z</time>
      </trkpt>
      <trkpt lat="44.9214" lon="6.72383">
        <ele>1991.7</ele>
        <time>2025-01-25T13:03:38Z</time>
      </trkpt>
      <trkpt lat="44.92152" lon="6.72374">
        <ele>1989.9</ele>
        <time>2025-01-25T13:03:40Z</time>
      </trkpt>
      <trkpt lat="44.92158" lon="6.72368">
        <ele>1988.8</ele>
        <time>2025-01-25T13:03:41Z</time>
      </trkpt>
      <trkpt lat="44.9217" lon="6.72358">
        <ele>1986.5</ele>
        <time>2025-01-25T13:03:43Z</time>
      </trkpt>
      <trkpt lat="44.92176" lon="6.72353">
        <ele>1985.4</ele>
        <time>2025-01-25T13:03:44Z</time>
      </trkpt>
      <trkpt lat="44.92193" lon="6.72339">
        <ele>1982.5</ele>
        <time>2025-01-25T13:03:47Z</time>
      </trkpt>
      <trkpt lat="44.92204" lon="6.7233">
        <ele>1980.7</ele>
        <time>2025-01-25T13:03:49Z</time>
      </trkpt>
      <trkpt lat="44.92215" lon="6.7232">
        <ele>1979</ele>
        <time>2025-01-25T13:03:51Z</time>
      </trkpt>
      <trkpt lat="44.92221" lon="6.72316">
        <ele>1978.1</ele>
        <time>2025-01-25T13:03:52Z</time>
      </trkpt>
      <trkpt lat="44.92231" lon="6.72307">
        <ele>1976.6</ele>
        <time>2025-01-25T13:03:54Z</time>
      </trkpt>
      <trkpt lat="44.92247" lon="6.72294">
        <ele>1974.5</ele>
        <time>2025-01-25T13:03:57Z</time>
      </trkpt>
      <trkpt lat="44.92253" lon="6.72289">
        <ele>1973.8</ele>
        <time>2025-01-25T13:03:58Z</time>
      </trkpt>
      <trkpt lat="44.92264" lon="6.7228">
        <ele>1972.2</ele>
        <time>2025-01-25T13:04:00Z</time>
      </trkpt>
      <trkpt lat="44.92274" lon="6.72271">
        <ele>1970.5</ele>
        <time>2025-01-25T13:04:02Z</time>
      </trkpt>
      <trkpt lat="44.92285" lon="6.72262">
        <ele>1968.4</ele>
        <time>2025-01-25T13:04:04Z</time>
      </trkpt>
      <trkpt lat="44.92294" lon="6.72254">
        <ele>1966</ele>
        <time>2025-01-25T13:04:06Z</time>
      </trkpt>
      <trkpt lat="44.92299" lon="6.7225">
        <ele>1964.7</ele>
        <time>2025-01-25T13:04:07Z</time>
      </trkpt>
      <trkpt lat="44.9231" lon="6.72241">
        <ele>1961.7</ele>
        <time>2025-01-25T13:04:09Z</time>
      </trkpt>
      <trkpt lat="44.9232" lon="6.72232">
        <ele>1958.6</ele>
        <time>2025-01-25T13:04:11Z</time>
      </trkpt>
      <trkpt lat="44.92325" lon="6.72228">
        <ele>1957.1</ele>
        <time>2025-01-25T13:04:12Z</time>
      </trkpt>
      <trkpt lat="44.92334" lon="6.72221">
        <ele>1954.5</ele>
        <time>2025-01-25T13:04:14Z</time>
      </trkpt>
      <trkpt lat="44.92342" lon="6.72215">
        <ele>1952</ele>
        <time>2025-01-25T13:04:16Z</time>
      </trkpt>
      <trkpt lat="44.92327" lon="6.72169">
        <ele>1940.4</ele>
        <time>2025-01-25T13:04:17Z</time>
      </trkpt>
      <trkpt lat="44.92336" lon="6.72162">
        <ele>1938.8</ele>
        <time>2025-01-25T13:04:19Z</time>
      </trkpt>
      <trkpt lat="44.92339" lon="6.72163">
        <ele>1938.4</ele>
        <time>2025-01-25T13:04:20Z</time>
      </trkpt>
      <trkpt lat="44.92341" lon="6.72166">
        <ele>1938</ele>
        <time>2025-01-25T13:04:21Z</time>
      </trkpt>
      <trkpt lat="44.92348" lon="6.72172">
        <ele>1936.5</ele>
        <time>2025-01-25T13:04:23Z</time>
      </trkpt>
      <trkpt lat="44.92353" lon="6.72178">
        <ele>1935.4</ele>
        <time>2025-01-25T13:04:25Z</time>
      </trkpt>
      <trkpt lat="44.92356" lon="6.72182">
        <ele>1934.6</ele>
        <time>2025-01-25T13:04:26Z</time>
      </trkpt>
      <trkpt lat="44.92377" lon="6.7217">
        <ele>1930.7</ele>
        <time>2025-01-25T13:04:29Z</time>
      </trkpt>
      <trkpt lat="44.92383" lon="6.72168">
        <ele>1929.6</ele>
        <time>2025-01-25T13:04:30Z</time>
      </trkpt>
      <trkpt lat="44.92388" lon="6.72168">
        <ele>1928.6</ele>
        <time>2025-01-25T13:04:31Z</time>
      </trkpt>
      <trkpt lat="44.92395" lon="6.7217">
        <ele>1927.3</ele>
        <time>2025-01-25T13:04:33Z</time>
      </trkpt>
      <trkpt lat="44.92406" lon="6.7216">
        <ele>1924.7</ele>
        <time>2025-01-25T13:04:36Z</time>
      </trkpt>
      <trkpt lat="44.92413" lon="6.72154">
        <ele>1923.1</ele>
        <time>2025-01-25T13:04:38Z</time>
      </trkpt>
      <trkpt lat="44.92418" lon="6.7215">
        <ele>1922</ele>
        <time>2025-01-25T13:04:39Z</time>
      </trkpt>
      <trkpt lat="44.92424" lon="6.72146">
        <ele>1920.8</ele>
        <time>2025-01-25T13:04:40Z</time>
      </trkpt>
      <trkpt lat="44.92446" lon="6.72167">
        <ele>1915.9</ele>
        <time>2025-01-25T13:04:42Z</time>
      </trkpt>
      <trkpt lat="44.92457" lon="6.72165">
        <ele>1914.1</ele>
        <time>2025-01-25T13:04:44Z</time>
      </trkpt>
      <trkpt lat="44.92462" lon="6.72166">
        <ele>1913.2</ele>
        <time>2025-01-25T13:04:45Z</time>
      </trkpt>
      <trkpt lat="44.92467" lon="6.72165">
        <ele>1912.3</ele>
        <time>2025-01-25T13:04:46Z</time>
      </trkpt>
      <trkpt lat="44.92479" lon="6.72162">
        <ele>1910.5</ele>
        <time>2025-01-25T13:04:48Z</time>
      </trkpt>
      <trkpt lat="44.92495" lon="6.72166">
        <ele>1907.8</ele>
        <time>2025-01-25T13:04:51Z</time>
      </trkpt>
      <trkpt lat="44.92507" lon="6.72166">
        <ele>1905.9</ele>
        <time>2025-01-25T13:04:53Z</time>
      </trkpt>
      <trkpt lat="44.92512" lon="6.72168">
        <ele>1905</ele>
        <time>2025-01-25T13:04:54Z</time>
      </trkpt>
      <trkpt lat="44.92517" lon="6.7217">
        <ele>1904.2</ele>
        <time>2025-01-25T13:04:55Z</time>
      </trkpt>
      <trkpt lat="44.92529" lon="6.72171">
        <ele>1902.2</ele>
        <time>2025-01-25T13:04:57Z</time>
      </trkpt>
      <trkpt lat="44.92539" lon="6.72175">
        <ele>1900.6</ele>
        <time>2025-01-25T13:04:59Z</time>
      </trkpt>
      <trkpt lat="44.92544" lon="6.72177">
        <ele>1899.8</ele>
        <time>2025-01-25T13:05:00Z</time>
      </trkpt>
      <trkpt lat="44.92554" lon="6.72178">
        <ele>1898.2</ele>
        <time>2025-01-25T13:05:02Z</time>
      </trkpt>
      <trkpt lat="44.92565" lon="6.7218">
        <ele>1896.4</ele>
        <time>2025-01-25T13:05:04Z</time>
      </trkpt>
      <trkpt lat="44.92574" lon="6.72182">
        <ele>1894.7</ele>
        <time>2025-01-25T13:05:06Z</time>
      </trkpt>
      <trkpt lat="44.9258" lon="6.72179">
        <ele>1893.6</ele>
        <time>2025-01-25T13:05:07Z</time>
      </trkpt>
      <trkpt lat="44.92586" lon="6.72179">
        <ele>1892.4</ele>
        <time>2025-01-25T13:05:08Z</time>
      </trkpt>
      <trkpt lat="44.92596" lon="6.72186">
        <ele>1890.3</ele>
        <time>2025-01-25T13:05:10Z</time>
      </trkpt>
      <trkpt lat="44.92608" lon="6.72189">
        <ele>1888</ele>
        <time>2025-01-25T13:05:12Z</time>
      </trkpt>
      <trkpt lat="44.92614" lon="6.7219">
        <ele>1886.9</ele>
        <time>2025-01-25T13:05:13Z</time>
      </trkpt>
      <trkpt lat="44.9262" lon="6.72194">
        <ele>1885.8</ele>
        <time>2025-01-25T13:05:14Z</time>
      </trkpt>
      <trkpt lat="44.92632" lon="6.72198">
        <ele>1883.6</ele>
        <time>2025-01-25T13:05:16Z</time>
      </trkpt>
      <trkpt lat="44.92645" lon="6.72202">
        <ele>1881.4</ele>
        <time>2025-01-25T13:05:18Z</time>
      </trkpt>
      <trkpt lat="44.92651" lon="6.72204">
        <ele>1880.4</ele>
        <time>2025-01-25T13:05:19Z</time>
      </trkpt>
      <trkpt lat="44.92657" lon="6.72204">
        <ele>1879.4</ele>
        <time>2025-01-25T13:05:20Z</time>
      </trkpt>
      <trkpt lat="44.9267" lon="6.72203">
        <ele>1877.4</ele>
        <time>2025-01-25T13:05:22Z</time>
      </trkpt>
      <trkpt lat="44.92682" lon="6.72209">
        <ele>1875.4</ele>
        <time>2025-01-25T13:05:24Z</time>
      </trkpt>
      <trkpt lat="44.92689" lon="6.7221">
        <ele>1874.3</ele>
        <time>2025-01-25T13:05:25Z</time>
      </trkpt>
      <trkpt lat="44.92697" lon="6.72212">
        <ele>1873.1</ele>
        <time>2025-01-25T13:05:26Z</time>
      </trkpt>
      <trkpt lat="44.9271" lon="6.72218">
        <ele>1870.9</ele>
        <time>2025-01-25T13:05:28Z</time>
      </trkpt>
      <trkpt lat="44.92724" lon="6.7222">
        <ele>1868.7</ele>
        <time>2025-01-25T13:05:30Z</time>
      </trkpt>
      <trkpt lat="44.9273" lon="6.72223">
        <ele>1867.8</ele>
        <time>2025-01-25T13:05:31Z</time>
      </trkpt>
      <trkpt lat="44.92736" lon="6.72225">
        <ele>1867</ele>
        <time>2025-01-25T13:05:32Z</time>
      </trkpt>
      <trkpt lat="44.92751" lon="6.72227">
        <ele>1865.2</ele>
        <time>2025-01-25T13:05:34Z</time>
      </trkpt>
      <trkpt lat="44.92764" lon="6.72231">
        <ele>1863.5</ele>
        <time>2025-01-25T13:05:36Z</time>
      </trkpt>
      <trkpt lat="44.92778" lon="6.72234">
        <ele>1861.8</ele>
        <time>2025-01-25T13:05:38Z</time>
      </trkpt>
      <trkpt lat="44.92793" lon="6.7224">
        <ele>1860.1</ele>
        <time>2025-01-25T13:05:40Z</time>
      </trkpt>
      <trkpt lat="44.92807" lon="6.72247">
        <ele>1858.5</ele>
        <time>2025-01-25T13:05:42Z</time>
      </trkpt>
      <trkpt lat="44.92822" lon="6.72256">
        <ele>1856.7</ele>
        <time>2025-01-25T13:05:44Z</time>
      </trkpt>
      <trkpt lat="44.92837" lon="6.72264">
        <ele>1855</ele>
        <time>2025-01-25T13:05:46Z</time>
      </trkpt>
      <trkpt lat="44.92851" lon="6.7227">
        <ele>1853.8</ele>
        <time>2025-01-25T13:05:48Z</time>
      </trkpt>
      <trkpt lat="44.92866" lon="6.72273">
        <ele>1852.9</ele>
        <time>2025-01-25T13:05:50Z</time>
      </trkpt>
      <trkpt lat="44.92898" lon="6.72283">
        <ele>1851.4</ele>
        <time>2025-01-25T13:05:55Z</time>
      </trkpt>
      <trkpt lat="44.92908" lon="6.72288">
        <ele>1850.7</ele>
        <time>2025-01-25T13:05:57Z</time>
      </trkpt>
      <trkpt lat="44.92919" lon="6.72289">
        <ele>1849.8</ele>
        <time>2025-01-25T13:05:59Z</time>
      </trkpt>
      <trkpt lat="44.92938" lon="6.72296">
        <ele>1847.3</ele>
        <time>2025-01-25T13:06:02Z</time>
      </trkpt>
      <trkpt lat="44.92944" lon="6.723">
        <ele>1847.3</ele>
        <time>2025-01-25T13:06:03Z</time>
      </trkpt>
      <trkpt lat="44.92968" lon="6.72314">
        <ele>1846.3</ele>
        <time>2025-01-25T13:06:07Z</time>
      </trkpt>
      <trkpt lat="44.92975" lon="6.72317">
        <ele>1846.2</ele>
        <time>2025-01-25T13:06:08Z</time>
      </trkpt>
      <trkpt lat="44.92991" lon="6.7232">
        <ele>1846.2</ele>
        <time>2025-01-25T13:06:11Z</time>
      </trkpt>
      <trkpt lat="44.92997" lon="6.7232">
        <ele>1846.6</ele>
        <time>2025-01-25T13:06:14Z</time>
      </trkpt>
      <trkpt lat="44.93004" lon="6.72322">
        <ele>1847.3</ele>
        <time>2025-01-25T13:06:19Z</time>
      </trkpt>
      <trkpt lat="44.93014" lon="6.72323">
        <ele>1848.2</ele>
        <time>2025-01-25T13:06:25Z</time>
      </trkpt>
      <trkpt lat="44.93015" lon="6.72328">
        <ele>1848.4</ele>
        <time>2025-01-25T13:06:29Z</time>
      </trkpt>
      <trkpt lat="44.93015" lon="6.72329">
        <ele>1848.4</ele>
        <time>2025-01-25T13:06:36Z</time>
      </trkpt>
      <trkpt lat="44.93015" lon="6.72329">
        <ele>1848.4</ele>
        <time>2025-01-25T13:06:43Z</time>
      </trkpt>
      <trkpt lat="44.93015" lon="6.72329">
        <ele>1848.4</ele>
        <time>2025-01-25T13:06:48Z</time>
      </trkpt>
      <trkpt lat="44.93015" lon="6.72329">
        <ele>1848.4</ele>
        <time>2025-01-25T13:06:54Z</time>
      </trkpt>
      <trkpt lat="44.93015" lon="6.72329">
        <ele>1848.4</ele>
        <time>2025-01-25T13:07:00Z</time>
      </trkpt>
      <trkpt lat="44.93018" lon="6.72339">
        <ele>1848.7</ele>
        <time>2025-01-25T13:07:05Z</time>
      </trkpt>
      <trkpt lat="44.9302" lon="6.72347">
        <ele>1848.9</ele>
        <time>2025-01-25T13:07:12Z</time>
      </trkpt>
      <trkpt lat="44.93026" lon="6.72357">
        <ele>1849.2</ele>
        <time>2025-01-25T13:07:17Z</time>
      </trkpt>
      <trkpt lat="44.93029" lon="6.72359">
        <ele>1849.3</ele>
        <time>2025-01-25T13:07:21Z</time>
      </trkpt>
      <trkpt lat="44.93032" lon="6.7236">
        <ele>1849.4</ele>
        <time>2025-01-25T13:07:23Z</time>
      </trkpt>
      <trkpt lat="44.93038" lon="6.72365">
        <ele>1849.6</ele>
        <time>2025-01-25T13:07:28Z</time>
      </trkpt>
      <trkpt lat="44.93045" lon="6.72375">
        <ele>1849.7</ele>
        <time>2025-01-25T13:07:35Z</time>
      </trkpt>
      <trkpt lat="44.93045" lon="6.72375">
        <ele>1849.7</ele>
        <time>2025-01-25T13:07:42Z</time>
      </trkpt>
      <trkpt lat="44.93045" lon="6.72375">
        <ele>1849.7</ele>
        <time>2025-01-25T13:07:55Z</time>
      </trkpt>
      <trkpt lat="44.93045" lon="6.72375">
        <ele>1849.7</ele>
        <time>2025-01-25T13:08:08Z</time>
      </trkpt>
      <trkpt lat="44.93045" lon="6.72375">
        <ele>1849.7</ele>
        <time>2025-01-25T13:08:19Z</time>
      </trkpt>
      <trkpt lat="44.93045" lon="6.72375">
        <ele>1849.7</ele>
        <time>2025-01-25T13:08:33Z</time>
      </trkpt>
      <trkpt lat="44.93045" lon="6.72375">
        <ele>1849.7</ele>
        <time>2025-01-25T13:08:44Z</time>
      </trkpt>
      <trkpt lat="44.93045" lon="6.72375">
        <ele>1849.7</ele>
        <time>2025-01-25T13:08:56Z</time>
      </trkpt>
      <trkpt lat="44.93045" lon="6.72375">
        <ele>1849.7</ele>
        <time>2025-01-25T13:09:11Z</time>
      </trkpt>
      <trkpt lat="44.93045" lon="6.72375">
        <ele>1849.7</ele>
        <time>2025-01-25T13:09:23Z</time>
      </trkpt>
      <trkpt lat="44.93048" lon="6.72383">
        <ele>1849.6</ele>
        <time>2025-01-25T13:09:32Z</time>
      </trkpt>
      <trkpt lat="44.93048" lon="6.72384">
        <ele>1849.6</ele>
        <time>2025-01-25T13:09:33Z</time>
      </trkpt>
      <trkpt lat="44.93051" lon="6.72366">
        <ele>1849.6</ele>
        <time>2025-01-25T13:09:37Z</time>
      </trkpt>
      <trkpt lat="44.93051" lon="6.72366">
        <ele>1849.6</ele>
        <time>2025-01-25T13:09:42Z</time>
      </trkpt>
      <trkpt lat="44.93051" lon="6.72366">
        <ele>1849.6</ele>
        <time>2025-01-25T13:09:47Z</time>
      </trkpt>
      <trkpt lat="44.93051" lon="6.72366">
        <ele>1849.6</ele>
        <time>2025-01-25T13:09:53Z</time>
      </trkpt>
      <trkpt lat="44.93055" lon="6.72363">
        <ele>1849.6</ele>
        <time>2025-01-25T13:09:59Z</time>
      </trkpt>
      <trkpt lat="44.93055" lon="6.72363">
        <ele>1849.6</ele>
        <time>2025-01-25T13:10:06Z</time>
      </trkpt>
      <trkpt lat="44.93055" lon="6.72363">
        <ele>1849.6</ele>
        <time>2025-01-25T13:10:13Z</time>
      </trkpt>
      <trkpt lat="44.93055" lon="6.72363">
        <ele>1849.6</ele>
        <time>2025-01-25T13:10:24Z</time>
      </trkpt>
      <trkpt lat="44.93068" lon="6.72396">
        <ele>1849.6</ele>
        <time>2025-01-25T13:10:30Z</time>
      </trkpt>
      <trkpt lat="44.93069" lon="6.72401">
        <ele>1849.6</ele>
        <time>2025-01-25T13:10:36Z</time>
      </trkpt>
      <trkpt lat="44.93072" lon="6.72409">
        <ele>1849.6</ele>
        <time>2025-01-25T13:10:42Z</time>
      </trkpt>
      <trkpt lat="44.93073" lon="6.72413">
        <ele>1849.6</ele>
        <time>2025-01-25T13:10:47Z</time>
      </trkpt>
      <trkpt lat="44.93074" lon="6.7242">
        <ele>1849.6</ele>
        <time>2025-01-25T13:10:52Z</time>
      </trkpt>
      <trkpt lat="44.93074" lon="6.72423">
        <ele>1849.6</ele>
        <time>2025-01-25T13:10:58Z</time>
      </trkpt>
      <trkpt lat="44.93074" lon="6.72423">
        <ele>1849.6</ele>
        <time>2025-01-25T13:11:08Z</time>
      </trkpt>
      <trkpt lat="44.93075" lon="6.72429">
        <ele>1849.6</ele>
        <time>2025-01-25T13:11:13Z</time>
      </trkpt>
      <trkpt lat="44.93064" lon="6.7244">
        <ele>1849.6</ele>
        <time>2025-01-25T13:11:19Z</time>
      </trkpt>
      <trkpt lat="44.93065" lon="6.72443">
        <ele>1849.6</ele>
        <time>2025-01-25T13:11:20Z</time>
      </trkpt>
      <trkpt lat="44.93066" lon="6.72449">
        <ele>1849.7</ele>
        <time>2025-01-25T13:11:25Z</time>
      </trkpt>
      <trkpt lat="44.93068" lon="6.72457">
        <ele>1849.7</ele>
        <time>2025-01-25T13:11:31Z</time>
      </trkpt>
      <trkpt lat="44.9307" lon="6.72464">
        <ele>1849.8</ele>
        <time>2025-01-25T13:11:37Z</time>
      </trkpt>
      <trkpt lat="44.93072" lon="6.72472">
        <ele>1850</ele>
        <time>2025-01-25T13:11:43Z</time>
      </trkpt>
      <trkpt lat="44.93073" lon="6.72477">
        <ele>1850.1</ele>
        <time>2025-01-25T13:11:47Z</time>
      </trkpt>
      <trkpt lat="44.93075" lon="6.72483">
        <ele>1850.2</ele>
        <time>2025-01-25T13:11:52Z</time>
      </trkpt>
      <trkpt lat="44.93077" lon="6.72488">
        <ele>1850.3</ele>
        <time>2025-01-25T13:11:58Z</time>
      </trkpt>
      <trkpt lat="44.93079" lon="6.725">
        <ele>1850.6</ele>
        <time>2025-01-25T13:12:04Z</time>
      </trkpt>
      <trkpt lat="44.93082" lon="6.72508">
        <ele>1850.8</ele>
        <time>2025-01-25T13:12:10Z</time>
      </trkpt>
      <trkpt lat="44.93083" lon="6.72514">
        <ele>1851</ele>
        <time>2025-01-25T13:12:15Z</time>
      </trkpt>
      <trkpt lat="44.93087" lon="6.72527">
        <ele>1851.5</ele>
        <time>2025-01-25T13:12:23Z</time>
      </trkpt>
      <trkpt lat="44.93087" lon="6.7253">
        <ele>1851.6</ele>
        <time>2025-01-25T13:12:28Z</time>
      </trkpt>
      <trkpt lat="44.93087" lon="6.7253">
        <ele>1851.6</ele>
        <time>2025-01-25T13:12:34Z</time>
      </trkpt>
      <trkpt lat="44.93094" lon="6.72543">
        <ele>1852.2</ele>
        <time>2025-01-25T13:12:40Z</time>
      </trkpt>
      <trkpt lat="44.93099" lon="6.72549">
        <ele>1852.5</ele>
        <time>2025-01-25T13:12:45Z</time>
      </trkpt>
      <trkpt lat="44.93101" lon="6.72552">
        <ele>1852.7</ele>
        <time>2025-01-25T13:12:48Z</time>
      </trkpt>
      <trkpt lat="44.93105" lon="6.72558">
        <ele>1853</ele>
        <time>2025-01-25T13:12:54Z</time>
      </trkpt>
      <trkpt lat="44.9311" lon="6.72564">
        <ele>1853.2</ele>
        <time>2025-01-25T13:12:59Z</time>
      </trkpt>
      <trkpt lat="44.93114" lon="6.7257">
        <ele>1853.4</ele>
        <time>2025-01-25T13:13:06Z</time>
      </trkpt>
      <trkpt lat="44.93116" lon="6.72574">
        <ele>1853.6</ele>
        <time>2025-01-25T13:13:12Z</time>
      </trkpt>
      <trkpt lat="44.93116" lon="6.72574">
        <ele>1852.8</ele>
        <time>2025-01-25T13:13:19Z</time>
      </trkpt>
      <trkpt lat="44.93116" lon="6.72574">
        <ele>1852.1</ele>
        <time>2025-01-25T13:13:25Z</time>
      </trkpt>
      <trkpt lat="44.93146" lon="6.72572">
        <ele>1852.1</ele>
        <time>2025-01-25T13:13:29Z</time>
      </trkpt>
      <trkpt lat="44.93147" lon="6.72576">
        <ele>1851.2</ele>
        <time>2025-01-25T13:13:31Z</time>
      </trkpt>
      <trkpt lat="44.93141" lon="6.72596">
        <ele>1849.6</ele>
        <time>2025-01-25T13:13:38Z</time>
      </trkpt>
      <trkpt lat="44.93145" lon="6.72603">
        <ele>1849.7</ele>
        <time>2025-01-25T13:13:44Z</time>
      </trkpt>
      <trkpt lat="44.93147" lon="6.72608">
        <ele>1849.7</ele>
        <time>2025-01-25T13:13:51Z</time>
      </trkpt>
      <trkpt lat="44.93147" lon="6.72608">
        <ele>1849.7</ele>
        <time>2025-01-25T13:13:57Z</time>
      </trkpt>
      <trkpt lat="44.93147" lon="6.72608">
        <ele>1849.7</ele>
        <time>2025-01-25T13:14:10Z</time>
      </trkpt>
      <trkpt lat="44.93147" lon="6.72608">
        <ele>1849.7</ele>
        <time>2025-01-25T13:14:20Z</time>
      </trkpt>
      <trkpt lat="44.93147" lon="6.72608">
        <ele>1849.7</ele>
        <time>2025-01-25T13:14:21Z</time>
      </trkpt>
    </trkseg>
  </trk>
</gpx>